<?xml version="1.0" encoding="UTF-8" standalone="no" ?>
<gpx xmlns="http://www.topografix.com/GPX/1/1" xmlns:xsi="http://www.w3.org/2001/XMLSchema-instance" xsi:schemaLocation="http://www.topografix.com/GPX/1/1 http://www.topografix.com/GPX/1/1/gpx.xsd" version="1.1" creator="VisuGPX - https://www.visugpx.com">
  <metadata>
    <name>Puivers-Carcassonne_Circuit Route</name>
    <desc><![CDATA[Ballade entre Puivers et Carcassonne 113 KM, 1000 m de dénivelé. ]]></desc>
  </metadata>
  <wpt lat="49.00243" lon="1.08928">
    <ele>120.77</ele>
    <name><![CDATA[001]]></name>
  </wpt>
  <wpt lat="49.00243" lon="1.08928">
    <ele>120.77</ele>
    <name><![CDATA[0011]]></name>
  </wpt>
  <wpt lat="43.76297" lon="6.98747">
    <ele>487.03</ele>
    <name><![CDATA[002]]></name>
  </wpt>
  <wpt lat="38.85555" lon="-94.79902">
    <ele>3.01</ele>
    <name><![CDATA[GARMIN]]></name>
  </wpt>
  <wpt lat="50.98288" lon="-1.4639">
    <ele>3.01</ele>
    <name><![CDATA[GRMEUR]]></name>
  </wpt>
  <wpt lat="25.06178" lon="121.64027">
    <ele>3.01</ele>
    <name><![CDATA[GRMTWN]]></name>
  </wpt>
  <wpt lat="43.57746" lon="1.45163">
    <ele>97.22</ele>
    <name><![CDATA[MAP]]></name>
  </wpt>
  <trk>
    <name><![CDATA[ACTIVE LOG: 17 DEC 2012 11:59]]></name>
    <trkseg>
      <trkpt lat="42.90382" lon="2.06095">
        <ele>508.19</ele>
        <time>2012-12-17T10:59:54Z</time>
      </trkpt>
      <trkpt lat="42.90382" lon="2.06085">
        <ele>508.67</ele>
        <time>2012-12-17T11:00:32Z</time>
      </trkpt>
      <trkpt lat="42.90381" lon="2.06081">
        <ele>509.64</ele>
        <time>2012-12-17T11:00:52Z</time>
      </trkpt>
      <trkpt lat="42.90387" lon="2.06069">
        <ele>510.6</ele>
        <time>2012-12-17T11:01:06Z</time>
      </trkpt>
      <trkpt lat="42.90394" lon="2.06056">
        <ele>510.6</ele>
        <time>2012-12-17T11:01:13Z</time>
      </trkpt>
      <trkpt lat="42.90405" lon="2.06059">
        <ele>511.08</ele>
        <time>2012-12-17T11:01:17Z</time>
      </trkpt>
      <trkpt lat="42.90448" lon="2.06073">
        <ele>508.67</ele>
        <time>2012-12-17T11:01:26Z</time>
      </trkpt>
      <trkpt lat="42.9048" lon="2.06072">
        <ele>505.79</ele>
        <time>2012-12-17T11:01:32Z</time>
      </trkpt>
      <trkpt lat="42.9052" lon="2.06079">
        <ele>501.46</ele>
        <time>2012-12-17T11:01:38Z</time>
      </trkpt>
      <trkpt lat="42.90543" lon="2.06086">
        <ele>499.54</ele>
        <time>2012-12-17T11:01:41Z</time>
      </trkpt>
      <trkpt lat="42.90563" lon="2.06093">
        <ele>497.62</ele>
        <time>2012-12-17T11:01:44Z</time>
      </trkpt>
      <trkpt lat="42.90606" lon="2.06107">
        <ele>495.22</ele>
        <time>2012-12-17T11:01:51Z</time>
      </trkpt>
      <trkpt lat="42.90628" lon="2.06099">
        <ele>494.74</ele>
        <time>2012-12-17T11:01:55Z</time>
      </trkpt>
      <trkpt lat="42.9065" lon="2.06071">
        <ele>494.74</ele>
        <time>2012-12-17T11:02:00Z</time>
      </trkpt>
      <trkpt lat="42.90669" lon="2.06036">
        <ele>494.74</ele>
        <time>2012-12-17T11:02:05Z</time>
      </trkpt>
      <trkpt lat="42.90683" lon="2.06018">
        <ele>494.26</ele>
        <time>2012-12-17T11:02:08Z</time>
      </trkpt>
      <trkpt lat="42.90726" lon="2.06003">
        <ele>493.29</ele>
        <time>2012-12-17T11:02:15Z</time>
      </trkpt>
      <trkpt lat="42.9081" lon="2.06051">
        <ele>494.74</ele>
        <time>2012-12-17T11:02:29Z</time>
      </trkpt>
      <trkpt lat="42.90829" lon="2.06075">
        <ele>494.74</ele>
        <time>2012-12-17T11:02:33Z</time>
      </trkpt>
      <trkpt lat="42.90907" lon="2.06173">
        <ele>494.74</ele>
        <time>2012-12-17T11:02:49Z</time>
      </trkpt>
      <trkpt lat="42.91011" lon="2.06255">
        <ele>491.85</ele>
        <time>2012-12-17T11:03:03Z</time>
      </trkpt>
      <trkpt lat="42.91145" lon="2.06337">
        <ele>489.93</ele>
        <time>2012-12-17T11:03:21Z</time>
      </trkpt>
      <trkpt lat="42.91233" lon="2.06368">
        <ele>489.93</ele>
        <time>2012-12-17T11:03:34Z</time>
      </trkpt>
      <trkpt lat="42.91369" lon="2.0633">
        <ele>488.49</ele>
        <time>2012-12-17T11:03:55Z</time>
      </trkpt>
      <trkpt lat="42.91456" lon="2.06295">
        <ele>485.6</ele>
        <time>2012-12-17T11:04:08Z</time>
      </trkpt>
      <trkpt lat="42.91553" lon="2.06272">
        <ele>482.24</ele>
        <time>2012-12-17T11:04:21Z</time>
      </trkpt>
      <trkpt lat="42.91664" lon="2.06271">
        <ele>479.84</ele>
        <time>2012-12-17T11:04:35Z</time>
      </trkpt>
      <trkpt lat="42.9172" lon="2.0628">
        <ele>478.39</ele>
        <time>2012-12-17T11:04:42Z</time>
      </trkpt>
      <trkpt lat="42.91761" lon="2.06277">
        <ele>478.39</ele>
        <time>2012-12-17T11:04:48Z</time>
      </trkpt>
      <trkpt lat="42.91782" lon="2.06298">
        <ele>478.39</ele>
        <time>2012-12-17T11:04:53Z</time>
      </trkpt>
      <trkpt lat="42.91791" lon="2.06317">
        <ele>478.87</ele>
        <time>2012-12-17T11:04:56Z</time>
      </trkpt>
      <trkpt lat="42.91828" lon="2.06332">
        <ele>479.84</ele>
        <time>2012-12-17T11:05:05Z</time>
      </trkpt>
      <trkpt lat="42.91831" lon="2.06331">
        <ele>480.32</ele>
        <time>2012-12-17T11:05:06Z</time>
      </trkpt>
      <trkpt lat="42.91857" lon="2.063">
        <ele>483.68</ele>
        <time>2012-12-17T11:05:18Z</time>
      </trkpt>
      <trkpt lat="42.91874" lon="2.06225">
        <ele>487.05</ele>
        <time>2012-12-17T11:05:37Z</time>
      </trkpt>
      <trkpt lat="42.91881" lon="2.06169">
        <ele>489.93</ele>
        <time>2012-12-17T11:05:52Z</time>
      </trkpt>
      <trkpt lat="42.91887" lon="2.06122">
        <ele>492.81</ele>
        <time>2012-12-17T11:06:05Z</time>
      </trkpt>
      <trkpt lat="42.91895" lon="2.06068">
        <ele>495.7</ele>
        <time>2012-12-17T11:06:21Z</time>
      </trkpt>
      <trkpt lat="42.91897" lon="2.06035">
        <ele>498.1</ele>
        <time>2012-12-17T11:06:35Z</time>
      </trkpt>
      <trkpt lat="42.91901" lon="2.06037">
        <ele>499.06</ele>
        <time>2012-12-17T11:06:40Z</time>
      </trkpt>
      <trkpt lat="42.91901" lon="2.0608">
        <ele>500.5</ele>
        <time>2012-12-17T11:06:55Z</time>
      </trkpt>
      <trkpt lat="42.91907" lon="2.06168">
        <ele>501.95</ele>
        <time>2012-12-17T11:07:12Z</time>
      </trkpt>
      <trkpt lat="42.91908" lon="2.06303">
        <ele>503.39</ele>
        <time>2012-12-17T11:07:35Z</time>
      </trkpt>
      <trkpt lat="42.91903" lon="2.064">
        <ele>504.35</ele>
        <time>2012-12-17T11:07:51Z</time>
      </trkpt>
      <trkpt lat="42.91896" lon="2.06527">
        <ele>505.79</ele>
        <time>2012-12-17T11:08:10Z</time>
      </trkpt>
      <trkpt lat="42.91884" lon="2.06713">
        <ele>507.23</ele>
        <time>2012-12-17T11:08:37Z</time>
      </trkpt>
      <trkpt lat="42.91863" lon="2.06969">
        <ele>509.64</ele>
        <time>2012-12-17T11:09:14Z</time>
      </trkpt>
      <trkpt lat="42.91821" lon="2.07166">
        <ele>511.56</ele>
        <time>2012-12-17T11:09:43Z</time>
      </trkpt>
      <trkpt lat="42.91767" lon="2.07377">
        <ele>512.52</ele>
        <time>2012-12-17T11:10:13Z</time>
      </trkpt>
      <trkpt lat="42.91723" lon="2.0757">
        <ele>514.92</ele>
        <time>2012-12-17T11:10:41Z</time>
      </trkpt>
      <trkpt lat="42.91679" lon="2.07751">
        <ele>516.85</ele>
        <time>2012-12-17T11:11:09Z</time>
      </trkpt>
      <trkpt lat="42.9164" lon="2.07899">
        <ele>517.33</ele>
        <time>2012-12-17T11:11:31Z</time>
      </trkpt>
      <trkpt lat="42.9159" lon="2.08018">
        <ele>519.25</ele>
        <time>2012-12-17T11:11:51Z</time>
      </trkpt>
      <trkpt lat="42.91535" lon="2.08158">
        <ele>520.21</ele>
        <time>2012-12-17T11:12:14Z</time>
      </trkpt>
      <trkpt lat="42.91502" lon="2.08255">
        <ele>521.65</ele>
        <time>2012-12-17T11:12:29Z</time>
      </trkpt>
      <trkpt lat="42.91453" lon="2.08406">
        <ele>523.58</ele>
        <time>2012-12-17T11:12:51Z</time>
      </trkpt>
      <trkpt lat="42.91448" lon="2.08418">
        <ele>523.58</ele>
        <time>2012-12-17T11:12:53Z</time>
      </trkpt>
      <trkpt lat="42.91402" lon="2.0851">
        <ele>524.54</ele>
        <time>2012-12-17T11:13:08Z</time>
      </trkpt>
      <trkpt lat="42.9135" lon="2.08633">
        <ele>526.46</ele>
        <time>2012-12-17T11:13:28Z</time>
      </trkpt>
      <trkpt lat="42.91328" lon="2.08754">
        <ele>527.42</ele>
        <time>2012-12-17T11:13:45Z</time>
      </trkpt>
      <trkpt lat="42.91325" lon="2.08775">
        <ele>527.42</ele>
        <time>2012-12-17T11:13:48Z</time>
      </trkpt>
      <trkpt lat="42.91303" lon="2.089">
        <ele>528.86</ele>
        <time>2012-12-17T11:14:05Z</time>
      </trkpt>
      <trkpt lat="42.9126" lon="2.09015">
        <ele>529.34</ele>
        <time>2012-12-17T11:14:22Z</time>
      </trkpt>
      <trkpt lat="42.91194" lon="2.09111">
        <ele>531.27</ele>
        <time>2012-12-17T11:14:39Z</time>
      </trkpt>
      <trkpt lat="42.91107" lon="2.09232">
        <ele>532.71</ele>
        <time>2012-12-17T11:15:03Z</time>
      </trkpt>
      <trkpt lat="42.91053" lon="2.09303">
        <ele>533.19</ele>
        <time>2012-12-17T11:15:17Z</time>
      </trkpt>
      <trkpt lat="42.91035" lon="2.09316">
        <ele>533.67</ele>
        <time>2012-12-17T11:15:21Z</time>
      </trkpt>
      <trkpt lat="42.90967" lon="2.09346">
        <ele>535.11</ele>
        <time>2012-12-17T11:15:34Z</time>
      </trkpt>
      <trkpt lat="42.90855" lon="2.09426">
        <ele>536.07</ele>
        <time>2012-12-17T11:15:56Z</time>
      </trkpt>
      <trkpt lat="42.90741" lon="2.09514">
        <ele>537.51</ele>
        <time>2012-12-17T11:16:19Z</time>
      </trkpt>
      <trkpt lat="42.90716" lon="2.09531">
        <ele>538.48</ele>
        <time>2012-12-17T11:16:24Z</time>
      </trkpt>
      <trkpt lat="42.90676" lon="2.09566">
        <ele>538.96</ele>
        <time>2012-12-17T11:16:33Z</time>
      </trkpt>
      <trkpt lat="42.90658" lon="2.0958">
        <ele>539.44</ele>
        <time>2012-12-17T11:16:37Z</time>
      </trkpt>
      <trkpt lat="42.90626" lon="2.09602">
        <ele>539.44</ele>
        <time>2012-12-17T11:16:43Z</time>
      </trkpt>
      <trkpt lat="42.906" lon="2.09631">
        <ele>540.4</ele>
        <time>2012-12-17T11:16:49Z</time>
      </trkpt>
      <trkpt lat="42.90547" lon="2.09719">
        <ele>541.36</ele>
        <time>2012-12-17T11:17:04Z</time>
      </trkpt>
      <trkpt lat="42.90516" lon="2.09778">
        <ele>541.36</ele>
        <time>2012-12-17T11:17:13Z</time>
      </trkpt>
      <trkpt lat="42.90472" lon="2.09812">
        <ele>542.8</ele>
        <time>2012-12-17T11:17:22Z</time>
      </trkpt>
      <trkpt lat="42.90391" lon="2.09859">
        <ele>543.76</ele>
        <time>2012-12-17T11:17:38Z</time>
      </trkpt>
      <trkpt lat="42.90333" lon="2.09933">
        <ele>543.28</ele>
        <time>2012-12-17T11:17:52Z</time>
      </trkpt>
      <trkpt lat="42.90257" lon="2.10067">
        <ele>544.24</ele>
        <time>2012-12-17T11:18:13Z</time>
      </trkpt>
      <trkpt lat="42.90163" lon="2.10127">
        <ele>545.69</ele>
        <time>2012-12-17T11:18:31Z</time>
      </trkpt>
      <trkpt lat="42.90093" lon="2.10217">
        <ele>547.61</ele>
        <time>2012-12-17T11:18:48Z</time>
      </trkpt>
      <trkpt lat="42.90023" lon="2.10334">
        <ele>549.53</ele>
        <time>2012-12-17T11:19:08Z</time>
      </trkpt>
      <trkpt lat="42.90018" lon="2.10347">
        <ele>549.53</ele>
        <time>2012-12-17T11:19:10Z</time>
      </trkpt>
      <trkpt lat="42.89975" lon="2.10534">
        <ele>550.97</ele>
        <time>2012-12-17T11:19:35Z</time>
      </trkpt>
      <trkpt lat="42.89964" lon="2.1061">
        <ele>551.93</ele>
        <time>2012-12-17T11:19:45Z</time>
      </trkpt>
      <trkpt lat="42.89957" lon="2.10794">
        <ele>554.34</ele>
        <time>2012-12-17T11:20:09Z</time>
      </trkpt>
      <trkpt lat="42.8993" lon="2.1091">
        <ele>554.34</ele>
        <time>2012-12-17T11:20:25Z</time>
      </trkpt>
      <trkpt lat="42.8992" lon="2.10928">
        <ele>553.86</ele>
        <time>2012-12-17T11:20:28Z</time>
      </trkpt>
      <trkpt lat="42.89903" lon="2.10947">
        <ele>554.34</ele>
        <time>2012-12-17T11:20:32Z</time>
      </trkpt>
      <trkpt lat="42.89814" lon="2.10979">
        <ele>556.26</ele>
        <time>2012-12-17T11:20:49Z</time>
      </trkpt>
      <trkpt lat="42.89675" lon="2.11026">
        <ele>559.14</ele>
        <time>2012-12-17T11:21:16Z</time>
      </trkpt>
      <trkpt lat="42.89616" lon="2.1112">
        <ele>561.55</ele>
        <time>2012-12-17T11:21:33Z</time>
      </trkpt>
      <trkpt lat="42.89561" lon="2.1126">
        <ele>563.47</ele>
        <time>2012-12-17T11:21:55Z</time>
      </trkpt>
      <trkpt lat="42.89497" lon="2.11381">
        <ele>564.91</ele>
        <time>2012-12-17T11:22:14Z</time>
      </trkpt>
      <trkpt lat="42.89406" lon="2.11553">
        <ele>565.87</ele>
        <time>2012-12-17T11:22:39Z</time>
      </trkpt>
      <trkpt lat="42.89341" lon="2.11673">
        <ele>565.39</ele>
        <time>2012-12-17T11:22:56Z</time>
      </trkpt>
      <trkpt lat="42.89237" lon="2.11867">
        <ele>563.47</ele>
        <time>2012-12-17T11:23:20Z</time>
      </trkpt>
      <trkpt lat="42.89105" lon="2.12113">
        <ele>561.55</ele>
        <time>2012-12-17T11:23:46Z</time>
      </trkpt>
      <trkpt lat="42.88932" lon="2.12435">
        <ele>559.62</ele>
        <time>2012-12-17T11:24:19Z</time>
      </trkpt>
      <trkpt lat="42.88735" lon="2.12805">
        <ele>559.62</ele>
        <time>2012-12-17T11:24:57Z</time>
      </trkpt>
      <trkpt lat="42.88596" lon="2.13065">
        <ele>561.55</ele>
        <time>2012-12-17T11:25:28Z</time>
      </trkpt>
      <trkpt lat="42.88534" lon="2.13178">
        <ele>564.43</ele>
        <time>2012-12-17T11:25:46Z</time>
      </trkpt>
      <trkpt lat="42.88493" lon="2.13254">
        <ele>567.8</ele>
        <time>2012-12-17T11:26:03Z</time>
      </trkpt>
      <trkpt lat="42.88466" lon="2.13308">
        <ele>570.68</ele>
        <time>2012-12-17T11:26:17Z</time>
      </trkpt>
      <trkpt lat="42.88483" lon="2.13306">
        <ele>571.16</ele>
        <time>2012-12-17T11:26:22Z</time>
      </trkpt>
      <trkpt lat="42.88562" lon="2.13364">
        <ele>569.72</ele>
        <time>2012-12-17T11:26:41Z</time>
      </trkpt>
      <trkpt lat="42.88618" lon="2.13406">
        <ele>569.24</ele>
        <time>2012-12-17T11:26:53Z</time>
      </trkpt>
      <trkpt lat="42.88718" lon="2.13451">
        <ele>568.28</ele>
        <time>2012-12-17T11:27:12Z</time>
      </trkpt>
      <trkpt lat="42.88827" lon="2.13533">
        <ele>564.91</ele>
        <time>2012-12-17T11:27:31Z</time>
      </trkpt>
      <trkpt lat="42.88896" lon="2.1356">
        <ele>562.03</ele>
        <time>2012-12-17T11:27:41Z</time>
      </trkpt>
      <trkpt lat="42.88918" lon="2.13566">
        <ele>561.07</ele>
        <time>2012-12-17T11:27:44Z</time>
      </trkpt>
      <trkpt lat="42.8895" lon="2.13622">
        <ele>558.18</ele>
        <time>2012-12-17T11:27:52Z</time>
      </trkpt>
      <trkpt lat="42.8894" lon="2.13659">
        <ele>556.26</ele>
        <time>2012-12-17T11:27:57Z</time>
      </trkpt>
      <trkpt lat="42.88932" lon="2.13672">
        <ele>555.78</ele>
        <time>2012-12-17T11:27:59Z</time>
      </trkpt>
      <trkpt lat="42.8891" lon="2.13693">
        <ele>554.82</ele>
        <time>2012-12-17T11:28:03Z</time>
      </trkpt>
      <trkpt lat="42.88852" lon="2.13727">
        <ele>551.93</ele>
        <time>2012-12-17T11:28:12Z</time>
      </trkpt>
      <trkpt lat="42.88826" lon="2.13734">
        <ele>550.01</ele>
        <time>2012-12-17T11:28:16Z</time>
      </trkpt>
      <trkpt lat="42.88785" lon="2.13736">
        <ele>546.65</ele>
        <time>2012-12-17T11:28:22Z</time>
      </trkpt>
      <trkpt lat="42.88733" lon="2.13742">
        <ele>543.76</ele>
        <time>2012-12-17T11:28:31Z</time>
      </trkpt>
      <trkpt lat="42.88721" lon="2.13742">
        <ele>543.28</ele>
        <time>2012-12-17T11:28:33Z</time>
      </trkpt>
      <trkpt lat="42.88707" lon="2.13778">
        <ele>541.84</ele>
        <time>2012-12-17T11:28:39Z</time>
      </trkpt>
      <trkpt lat="42.88724" lon="2.13784">
        <ele>539.92</ele>
        <time>2012-12-17T11:28:42Z</time>
      </trkpt>
      <trkpt lat="42.88743" lon="2.1378">
        <ele>538.96</ele>
        <time>2012-12-17T11:28:45Z</time>
      </trkpt>
      <trkpt lat="42.88814" lon="2.13787">
        <ele>535.59</ele>
        <time>2012-12-17T11:28:55Z</time>
      </trkpt>
      <trkpt lat="42.88856" lon="2.13795">
        <ele>533.19</ele>
        <time>2012-12-17T11:29:01Z</time>
      </trkpt>
      <trkpt lat="42.88897" lon="2.13781">
        <ele>531.27</ele>
        <time>2012-12-17T11:29:07Z</time>
      </trkpt>
      <trkpt lat="42.8892" lon="2.13793">
        <ele>529.34</ele>
        <time>2012-12-17T11:29:16Z</time>
      </trkpt>
      <trkpt lat="42.88906" lon="2.13803">
        <ele>528.38</ele>
        <time>2012-12-17T11:29:20Z</time>
      </trkpt>
      <trkpt lat="42.88856" lon="2.13822">
        <ele>525.02</ele>
        <time>2012-12-17T11:29:30Z</time>
      </trkpt>
      <trkpt lat="42.88779" lon="2.13839">
        <ele>521.65</ele>
        <time>2012-12-17T11:29:42Z</time>
      </trkpt>
      <trkpt lat="42.88697" lon="2.13865">
        <ele>518.29</ele>
        <time>2012-12-17T11:29:53Z</time>
      </trkpt>
      <trkpt lat="42.88683" lon="2.1387">
        <ele>517.33</ele>
        <time>2012-12-17T11:29:55Z</time>
      </trkpt>
      <trkpt lat="42.88652" lon="2.13883">
        <ele>515.4</ele>
        <time>2012-12-17T11:29:59Z</time>
      </trkpt>
      <trkpt lat="42.88593" lon="2.13903">
        <ele>511.56</ele>
        <time>2012-12-17T11:30:07Z</time>
      </trkpt>
      <trkpt lat="42.88541" lon="2.1389">
        <ele>508.19</ele>
        <time>2012-12-17T11:30:14Z</time>
      </trkpt>
      <trkpt lat="42.88508" lon="2.13871">
        <ele>504.83</ele>
        <time>2012-12-17T11:30:19Z</time>
      </trkpt>
      <trkpt lat="42.88461" lon="2.13841">
        <ele>500.98</ele>
        <time>2012-12-17T11:30:26Z</time>
      </trkpt>
      <trkpt lat="42.88448" lon="2.13834">
        <ele>500.02</ele>
        <time>2012-12-17T11:30:28Z</time>
      </trkpt>
      <trkpt lat="42.88415" lon="2.13837">
        <ele>498.58</ele>
        <time>2012-12-17T11:30:33Z</time>
      </trkpt>
      <trkpt lat="42.88365" lon="2.13873">
        <ele>496.66</ele>
        <time>2012-12-17T11:30:41Z</time>
      </trkpt>
      <trkpt lat="42.88351" lon="2.13894">
        <ele>495.22</ele>
        <time>2012-12-17T11:30:44Z</time>
      </trkpt>
      <trkpt lat="42.88347" lon="2.13922">
        <ele>493.77</ele>
        <time>2012-12-17T11:30:47Z</time>
      </trkpt>
      <trkpt lat="42.88348" lon="2.13954">
        <ele>491.85</ele>
        <time>2012-12-17T11:30:50Z</time>
      </trkpt>
      <trkpt lat="42.88349" lon="2.14021">
        <ele>488.49</ele>
        <time>2012-12-17T11:30:56Z</time>
      </trkpt>
      <trkpt lat="42.88347" lon="2.14106">
        <ele>485.6</ele>
        <time>2012-12-17T11:31:03Z</time>
      </trkpt>
      <trkpt lat="42.88347" lon="2.1413">
        <ele>484.64</ele>
        <time>2012-12-17T11:31:05Z</time>
      </trkpt>
      <trkpt lat="42.88358" lon="2.14173">
        <ele>482.72</ele>
        <time>2012-12-17T11:31:09Z</time>
      </trkpt>
      <trkpt lat="42.88396" lon="2.14244">
        <ele>478.87</ele>
        <time>2012-12-17T11:31:16Z</time>
      </trkpt>
      <trkpt lat="42.88408" lon="2.14263">
        <ele>477.43</ele>
        <time>2012-12-17T11:31:18Z</time>
      </trkpt>
      <trkpt lat="42.88456" lon="2.143">
        <ele>475.03</ele>
        <time>2012-12-17T11:31:24Z</time>
      </trkpt>
      <trkpt lat="42.88514" lon="2.14324">
        <ele>472.14</ele>
        <time>2012-12-17T11:31:31Z</time>
      </trkpt>
      <trkpt lat="42.88546" lon="2.14335">
        <ele>468.78</ele>
        <time>2012-12-17T11:31:35Z</time>
      </trkpt>
      <trkpt lat="42.88554" lon="2.14338">
        <ele>468.3</ele>
        <time>2012-12-17T11:31:36Z</time>
      </trkpt>
      <trkpt lat="42.88609" lon="2.14359">
        <ele>467.82</ele>
        <time>2012-12-17T11:31:43Z</time>
      </trkpt>
      <trkpt lat="42.88636" lon="2.14384">
        <ele>464.93</ele>
        <time>2012-12-17T11:31:47Z</time>
      </trkpt>
      <trkpt lat="42.88668" lon="2.14436">
        <ele>461.57</ele>
        <time>2012-12-17T11:31:53Z</time>
      </trkpt>
      <trkpt lat="42.88678" lon="2.14453">
        <ele>460.61</ele>
        <time>2012-12-17T11:31:55Z</time>
      </trkpt>
      <trkpt lat="42.88687" lon="2.14481">
        <ele>459.17</ele>
        <time>2012-12-17T11:31:58Z</time>
      </trkpt>
      <trkpt lat="42.88673" lon="2.14527">
        <ele>456.28</ele>
        <time>2012-12-17T11:32:03Z</time>
      </trkpt>
      <trkpt lat="42.88655" lon="2.14552">
        <ele>454.36</ele>
        <time>2012-12-17T11:32:07Z</time>
      </trkpt>
      <trkpt lat="42.88643" lon="2.14567">
        <ele>453.4</ele>
        <time>2012-12-17T11:32:10Z</time>
      </trkpt>
      <trkpt lat="42.88594" lon="2.14639">
        <ele>450.03</ele>
        <time>2012-12-17T11:32:21Z</time>
      </trkpt>
      <trkpt lat="42.88588" lon="2.14685">
        <ele>447.63</ele>
        <time>2012-12-17T11:32:26Z</time>
      </trkpt>
      <trkpt lat="42.88594" lon="2.14703">
        <ele>447.15</ele>
        <time>2012-12-17T11:32:28Z</time>
      </trkpt>
      <trkpt lat="42.88586" lon="2.14747">
        <ele>443.31</ele>
        <time>2012-12-17T11:32:34Z</time>
      </trkpt>
      <trkpt lat="42.8857" lon="2.1476">
        <ele>442.34</ele>
        <time>2012-12-17T11:32:37Z</time>
      </trkpt>
      <trkpt lat="42.88526" lon="2.14792">
        <ele>439.94</ele>
        <time>2012-12-17T11:32:44Z</time>
      </trkpt>
      <trkpt lat="42.88512" lon="2.14809">
        <ele>439.46</ele>
        <time>2012-12-17T11:32:47Z</time>
      </trkpt>
      <trkpt lat="42.8852" lon="2.14844">
        <ele>437.06</ele>
        <time>2012-12-17T11:32:52Z</time>
      </trkpt>
      <trkpt lat="42.88557" lon="2.14905">
        <ele>433.21</ele>
        <time>2012-12-17T11:33:00Z</time>
      </trkpt>
      <trkpt lat="42.88569" lon="2.14932">
        <ele>431.77</ele>
        <time>2012-12-17T11:33:03Z</time>
      </trkpt>
      <trkpt lat="42.88578" lon="2.14963">
        <ele>430.33</ele>
        <time>2012-12-17T11:33:06Z</time>
      </trkpt>
      <trkpt lat="42.88588" lon="2.1504">
        <ele>426.96</ele>
        <time>2012-12-17T11:33:13Z</time>
      </trkpt>
      <trkpt lat="42.8859" lon="2.15051">
        <ele>426.48</ele>
        <time>2012-12-17T11:33:14Z</time>
      </trkpt>
      <trkpt lat="42.88615" lon="2.15128">
        <ele>423.6</ele>
        <time>2012-12-17T11:33:21Z</time>
      </trkpt>
      <trkpt lat="42.88648" lon="2.15161">
        <ele>421.68</ele>
        <time>2012-12-17T11:33:26Z</time>
      </trkpt>
      <trkpt lat="42.88709" lon="2.15183">
        <ele>417.83</ele>
        <time>2012-12-17T11:33:33Z</time>
      </trkpt>
      <trkpt lat="42.88751" lon="2.15202">
        <ele>414.95</ele>
        <time>2012-12-17T11:33:38Z</time>
      </trkpt>
      <trkpt lat="42.88781" lon="2.15225">
        <ele>413.02</ele>
        <time>2012-12-17T11:33:42Z</time>
      </trkpt>
      <trkpt lat="42.88801" lon="2.15245">
        <ele>412.06</ele>
        <time>2012-12-17T11:33:45Z</time>
      </trkpt>
      <trkpt lat="42.8883" lon="2.15295">
        <ele>408.7</ele>
        <time>2012-12-17T11:33:51Z</time>
      </trkpt>
      <trkpt lat="42.88838" lon="2.15321">
        <ele>408.7</ele>
        <time>2012-12-17T11:33:54Z</time>
      </trkpt>
      <trkpt lat="42.88871" lon="2.15353">
        <ele>405.81</ele>
        <time>2012-12-17T11:34:00Z</time>
      </trkpt>
      <trkpt lat="42.88927" lon="2.1537">
        <ele>401.97</ele>
        <time>2012-12-17T11:34:08Z</time>
      </trkpt>
      <trkpt lat="42.88972" lon="2.15363">
        <ele>399.57</ele>
        <time>2012-12-17T11:34:14Z</time>
      </trkpt>
      <trkpt lat="42.89019" lon="2.15323">
        <ele>397.16</ele>
        <time>2012-12-17T11:34:21Z</time>
      </trkpt>
      <trkpt lat="42.89054" lon="2.15322">
        <ele>395.24</ele>
        <time>2012-12-17T11:34:27Z</time>
      </trkpt>
      <trkpt lat="42.89106" lon="2.15358">
        <ele>391.87</ele>
        <time>2012-12-17T11:34:38Z</time>
      </trkpt>
      <trkpt lat="42.89118" lon="2.15377">
        <ele>391.39</ele>
        <time>2012-12-17T11:34:42Z</time>
      </trkpt>
      <trkpt lat="42.89136" lon="2.15402">
        <ele>392.36</ele>
        <time>2012-12-17T11:34:48Z</time>
      </trkpt>
      <trkpt lat="42.89151" lon="2.15415">
        <ele>392.36</ele>
        <time>2012-12-17T11:34:52Z</time>
      </trkpt>
      <trkpt lat="42.89171" lon="2.15426">
        <ele>392.36</ele>
        <time>2012-12-17T11:34:56Z</time>
      </trkpt>
      <trkpt lat="42.89181" lon="2.1543">
        <ele>391.87</ele>
        <time>2012-12-17T11:34:58Z</time>
      </trkpt>
      <trkpt lat="42.89206" lon="2.15432">
        <ele>390.43</ele>
        <time>2012-12-17T11:35:02Z</time>
      </trkpt>
      <trkpt lat="42.89218" lon="2.15431">
        <ele>390.43</ele>
        <time>2012-12-17T11:35:04Z</time>
      </trkpt>
      <trkpt lat="42.89247" lon="2.15467">
        <ele>387.55</ele>
        <time>2012-12-17T11:35:11Z</time>
      </trkpt>
      <trkpt lat="42.89256" lon="2.15504">
        <ele>386.11</ele>
        <time>2012-12-17T11:35:15Z</time>
      </trkpt>
      <trkpt lat="42.89281" lon="2.15557">
        <ele>382.26</ele>
        <time>2012-12-17T11:35:21Z</time>
      </trkpt>
      <trkpt lat="42.89287" lon="2.15565">
        <ele>382.26</ele>
        <time>2012-12-17T11:35:22Z</time>
      </trkpt>
      <trkpt lat="42.89297" lon="2.15583">
        <ele>380.82</ele>
        <time>2012-12-17T11:35:24Z</time>
      </trkpt>
      <trkpt lat="42.89345" lon="2.15631">
        <ele>376.49</ele>
        <time>2012-12-17T11:35:31Z</time>
      </trkpt>
      <trkpt lat="42.89366" lon="2.15648">
        <ele>375.53</ele>
        <time>2012-12-17T11:35:34Z</time>
      </trkpt>
      <trkpt lat="42.89392" lon="2.157">
        <ele>372.17</ele>
        <time>2012-12-17T11:35:40Z</time>
      </trkpt>
      <trkpt lat="42.89395" lon="2.15722">
        <ele>371.69</ele>
        <time>2012-12-17T11:35:42Z</time>
      </trkpt>
      <trkpt lat="42.89419" lon="2.15764">
        <ele>368.32</ele>
        <time>2012-12-17T11:35:47Z</time>
      </trkpt>
      <trkpt lat="42.89448" lon="2.15787">
        <ele>366.4</ele>
        <time>2012-12-17T11:35:51Z</time>
      </trkpt>
      <trkpt lat="42.89499" lon="2.15823">
        <ele>362.55</ele>
        <time>2012-12-17T11:35:58Z</time>
      </trkpt>
      <trkpt lat="42.8952" lon="2.15837">
        <ele>361.11</ele>
        <time>2012-12-17T11:36:01Z</time>
      </trkpt>
      <trkpt lat="42.89527" lon="2.1584">
        <ele>360.63</ele>
        <time>2012-12-17T11:36:02Z</time>
      </trkpt>
      <trkpt lat="42.89571" lon="2.15833">
        <ele>356.79</ele>
        <time>2012-12-17T11:36:08Z</time>
      </trkpt>
      <trkpt lat="42.89599" lon="2.15814">
        <ele>355.34</ele>
        <time>2012-12-17T11:36:12Z</time>
      </trkpt>
      <trkpt lat="42.89642" lon="2.15812">
        <ele>351.5</ele>
        <time>2012-12-17T11:36:18Z</time>
      </trkpt>
      <trkpt lat="42.89657" lon="2.1582">
        <ele>350.06</ele>
        <time>2012-12-17T11:36:20Z</time>
      </trkpt>
      <trkpt lat="42.897" lon="2.15866">
        <ele>346.69</ele>
        <time>2012-12-17T11:36:27Z</time>
      </trkpt>
      <trkpt lat="42.89713" lon="2.15878">
        <ele>345.73</ele>
        <time>2012-12-17T11:36:29Z</time>
      </trkpt>
      <trkpt lat="42.89769" lon="2.15871">
        <ele>342.85</ele>
        <time>2012-12-17T11:36:37Z</time>
      </trkpt>
      <trkpt lat="42.89803" lon="2.15871">
        <ele>339.96</ele>
        <time>2012-12-17T11:36:43Z</time>
      </trkpt>
      <trkpt lat="42.89825" lon="2.15889">
        <ele>338.04</ele>
        <time>2012-12-17T11:36:47Z</time>
      </trkpt>
      <trkpt lat="42.89859" lon="2.15878">
        <ele>336.6</ele>
        <time>2012-12-17T11:36:52Z</time>
      </trkpt>
      <trkpt lat="42.89877" lon="2.15863">
        <ele>335.16</ele>
        <time>2012-12-17T11:36:55Z</time>
      </trkpt>
      <trkpt lat="42.89907" lon="2.15879">
        <ele>332.75</ele>
        <time>2012-12-17T11:37:02Z</time>
      </trkpt>
      <trkpt lat="42.89901" lon="2.15897">
        <ele>331.79</ele>
        <time>2012-12-17T11:37:05Z</time>
      </trkpt>
      <trkpt lat="42.89814" lon="2.15987">
        <ele>328.43</ele>
        <time>2012-12-17T11:37:22Z</time>
      </trkpt>
      <trkpt lat="42.89809" lon="2.15993">
        <ele>328.43</ele>
        <time>2012-12-17T11:37:23Z</time>
      </trkpt>
      <trkpt lat="42.89789" lon="2.16039">
        <ele>327.95</ele>
        <time>2012-12-17T11:37:29Z</time>
      </trkpt>
      <trkpt lat="42.89783" lon="2.16068">
        <ele>326.99</ele>
        <time>2012-12-17T11:37:32Z</time>
      </trkpt>
      <trkpt lat="42.89782" lon="2.16117">
        <ele>326.02</ele>
        <time>2012-12-17T11:37:37Z</time>
      </trkpt>
      <trkpt lat="42.89816" lon="2.16245">
        <ele>323.14</ele>
        <time>2012-12-17T11:37:51Z</time>
      </trkpt>
      <trkpt lat="42.89828" lon="2.16306">
        <ele>322.18</ele>
        <time>2012-12-17T11:37:58Z</time>
      </trkpt>
      <trkpt lat="42.89819" lon="2.16372">
        <ele>321.7</ele>
        <time>2012-12-17T11:38:05Z</time>
      </trkpt>
      <trkpt lat="42.89835" lon="2.1647">
        <ele>320.26</ele>
        <time>2012-12-17T11:38:15Z</time>
      </trkpt>
      <trkpt lat="42.8984" lon="2.16528">
        <ele>320.26</ele>
        <time>2012-12-17T11:38:21Z</time>
      </trkpt>
      <trkpt lat="42.89848" lon="2.16563">
        <ele>319.3</ele>
        <time>2012-12-17T11:38:25Z</time>
      </trkpt>
      <trkpt lat="42.89863" lon="2.16593">
        <ele>318.81</ele>
        <time>2012-12-17T11:38:29Z</time>
      </trkpt>
      <trkpt lat="42.89872" lon="2.16607">
        <ele>318.33</ele>
        <time>2012-12-17T11:38:31Z</time>
      </trkpt>
      <trkpt lat="42.899" lon="2.16632">
        <ele>317.85</ele>
        <time>2012-12-17T11:38:36Z</time>
      </trkpt>
      <trkpt lat="42.89927" lon="2.16674">
        <ele>317.37</ele>
        <time>2012-12-17T11:38:42Z</time>
      </trkpt>
      <trkpt lat="42.89964" lon="2.16712">
        <ele>315.93</ele>
        <time>2012-12-17T11:38:49Z</time>
      </trkpt>
      <trkpt lat="42.89975" lon="2.16733">
        <ele>315.93</ele>
        <time>2012-12-17T11:38:52Z</time>
      </trkpt>
      <trkpt lat="42.89983" lon="2.16776">
        <ele>315.45</ele>
        <time>2012-12-17T11:38:57Z</time>
      </trkpt>
      <trkpt lat="42.89982" lon="2.16821">
        <ele>314.97</ele>
        <time>2012-12-17T11:39:02Z</time>
      </trkpt>
      <trkpt lat="42.90011" lon="2.1688">
        <ele>313.53</ele>
        <time>2012-12-17T11:39:10Z</time>
      </trkpt>
      <trkpt lat="42.90064" lon="2.16942">
        <ele>316.41</ele>
        <time>2012-12-17T11:39:24Z</time>
      </trkpt>
      <trkpt lat="42.90095" lon="2.17004">
        <ele>313.53</ele>
        <time>2012-12-17T11:39:33Z</time>
      </trkpt>
      <trkpt lat="42.90128" lon="2.17037">
        <ele>309.68</ele>
        <time>2012-12-17T11:39:39Z</time>
      </trkpt>
      <trkpt lat="42.90135" lon="2.17038">
        <ele>308.72</ele>
        <time>2012-12-17T11:39:40Z</time>
      </trkpt>
      <trkpt lat="42.90201" lon="2.17047">
        <ele>305.84</ele>
        <time>2012-12-17T11:39:49Z</time>
      </trkpt>
      <trkpt lat="42.90229" lon="2.17076">
        <ele>305.36</ele>
        <time>2012-12-17T11:39:54Z</time>
      </trkpt>
      <trkpt lat="42.90277" lon="2.17185">
        <ele>301.99</ele>
        <time>2012-12-17T11:40:06Z</time>
      </trkpt>
      <trkpt lat="42.9033" lon="2.17304">
        <ele>299.11</ele>
        <time>2012-12-17T11:40:19Z</time>
      </trkpt>
      <trkpt lat="42.90401" lon="2.17458">
        <ele>295.74</ele>
        <time>2012-12-17T11:40:35Z</time>
      </trkpt>
      <trkpt lat="42.90446" lon="2.17573">
        <ele>292.38</ele>
        <time>2012-12-17T11:40:46Z</time>
      </trkpt>
      <trkpt lat="42.90473" lon="2.17673">
        <ele>290.94</ele>
        <time>2012-12-17T11:40:55Z</time>
      </trkpt>
      <trkpt lat="42.90474" lon="2.17753">
        <ele>289.97</ele>
        <time>2012-12-17T11:41:02Z</time>
      </trkpt>
      <trkpt lat="42.90484" lon="2.17805">
        <ele>288.53</ele>
        <time>2012-12-17T11:41:07Z</time>
      </trkpt>
      <trkpt lat="42.90542" lon="2.17946">
        <ele>286.13</ele>
        <time>2012-12-17T11:41:21Z</time>
      </trkpt>
      <trkpt lat="42.90577" lon="2.18081">
        <ele>283.25</ele>
        <time>2012-12-17T11:41:33Z</time>
      </trkpt>
      <trkpt lat="42.90589" lon="2.18127">
        <ele>282.28</ele>
        <time>2012-12-17T11:41:37Z</time>
      </trkpt>
      <trkpt lat="42.90583" lon="2.18203">
        <ele>280.36</ele>
        <time>2012-12-17T11:41:44Z</time>
      </trkpt>
      <trkpt lat="42.90581" lon="2.18286">
        <ele>279.4</ele>
        <time>2012-12-17T11:41:52Z</time>
      </trkpt>
      <trkpt lat="42.90595" lon="2.18312">
        <ele>278.44</ele>
        <time>2012-12-17T11:41:55Z</time>
      </trkpt>
      <trkpt lat="42.90613" lon="2.18334">
        <ele>277.96</ele>
        <time>2012-12-17T11:41:58Z</time>
      </trkpt>
      <trkpt lat="42.90637" lon="2.18393">
        <ele>276.04</ele>
        <time>2012-12-17T11:42:04Z</time>
      </trkpt>
      <trkpt lat="42.90652" lon="2.18469">
        <ele>275.07</ele>
        <time>2012-12-17T11:42:11Z</time>
      </trkpt>
      <trkpt lat="42.90666" lon="2.18509">
        <ele>274.11</ele>
        <time>2012-12-17T11:42:15Z</time>
      </trkpt>
      <trkpt lat="42.90684" lon="2.18623">
        <ele>271.71</ele>
        <time>2012-12-17T11:42:26Z</time>
      </trkpt>
      <trkpt lat="42.90689" lon="2.18644">
        <ele>271.71</ele>
        <time>2012-12-17T11:42:28Z</time>
      </trkpt>
      <trkpt lat="42.90706" lon="2.18682">
        <ele>271.23</ele>
        <time>2012-12-17T11:42:32Z</time>
      </trkpt>
      <trkpt lat="42.90729" lon="2.18722">
        <ele>270.75</ele>
        <time>2012-12-17T11:42:37Z</time>
      </trkpt>
      <trkpt lat="42.90735" lon="2.18758">
        <ele>269.79</ele>
        <time>2012-12-17T11:42:41Z</time>
      </trkpt>
      <trkpt lat="42.90735" lon="2.18776">
        <ele>268.83</ele>
        <time>2012-12-17T11:42:43Z</time>
      </trkpt>
      <trkpt lat="42.9072" lon="2.18829">
        <ele>267.86</ele>
        <time>2012-12-17T11:42:50Z</time>
      </trkpt>
      <trkpt lat="42.90725" lon="2.1887">
        <ele>267.38</ele>
        <time>2012-12-17T11:42:56Z</time>
      </trkpt>
      <trkpt lat="42.90797" lon="2.19036">
        <ele>264.02</ele>
        <time>2012-12-17T11:43:15Z</time>
      </trkpt>
      <trkpt lat="42.9085" lon="2.19172">
        <ele>262.58</ele>
        <time>2012-12-17T11:43:30Z</time>
      </trkpt>
      <trkpt lat="42.90913" lon="2.19312">
        <ele>261.14</ele>
        <time>2012-12-17T11:43:47Z</time>
      </trkpt>
      <trkpt lat="42.91003" lon="2.19382">
        <ele>260.65</ele>
        <time>2012-12-17T11:44:03Z</time>
      </trkpt>
      <trkpt lat="42.91105" lon="2.19457">
        <ele>261.14</ele>
        <time>2012-12-17T11:44:21Z</time>
      </trkpt>
      <trkpt lat="42.91235" lon="2.19568">
        <ele>259.21</ele>
        <time>2012-12-17T11:44:43Z</time>
      </trkpt>
      <trkpt lat="42.914" lon="2.19716">
        <ele>259.21</ele>
        <time>2012-12-17T11:45:12Z</time>
      </trkpt>
      <trkpt lat="42.91448" lon="2.19782">
        <ele>258.73</ele>
        <time>2012-12-17T11:45:23Z</time>
      </trkpt>
      <trkpt lat="42.91487" lon="2.19887">
        <ele>258.73</ele>
        <time>2012-12-17T11:45:37Z</time>
      </trkpt>
      <trkpt lat="42.91489" lon="2.19894">
        <ele>258.73</ele>
        <time>2012-12-17T11:45:38Z</time>
      </trkpt>
      <trkpt lat="42.91529" lon="2.20077">
        <ele>257.29</ele>
        <time>2012-12-17T11:45:59Z</time>
      </trkpt>
      <trkpt lat="42.9155" lon="2.20252">
        <ele>256.81</ele>
        <time>2012-12-17T11:46:20Z</time>
      </trkpt>
      <trkpt lat="42.9155" lon="2.20401">
        <ele>254.89</ele>
        <time>2012-12-17T11:46:38Z</time>
      </trkpt>
      <trkpt lat="42.91552" lon="2.20555">
        <ele>253.93</ele>
        <time>2012-12-17T11:46:57Z</time>
      </trkpt>
      <trkpt lat="42.91555" lon="2.20577">
        <ele>253.93</ele>
        <time>2012-12-17T11:47:00Z</time>
      </trkpt>
      <trkpt lat="42.91567" lon="2.20633">
        <ele>252.96</ele>
        <time>2012-12-17T11:47:07Z</time>
      </trkpt>
      <trkpt lat="42.91583" lon="2.20657">
        <ele>251.52</ele>
        <time>2012-12-17T11:47:12Z</time>
      </trkpt>
      <trkpt lat="42.91597" lon="2.20708">
        <ele>250.56</ele>
        <time>2012-12-17T11:47:20Z</time>
      </trkpt>
      <trkpt lat="42.91595" lon="2.20715">
        <ele>250.08</ele>
        <time>2012-12-17T11:47:21Z</time>
      </trkpt>
      <trkpt lat="42.9159" lon="2.20748">
        <ele>250.56</ele>
        <time>2012-12-17T11:47:26Z</time>
      </trkpt>
      <trkpt lat="42.91585" lon="2.20818">
        <ele>253.93</ele>
        <time>2012-12-17T11:47:39Z</time>
      </trkpt>
      <trkpt lat="42.91582" lon="2.2087">
        <ele>256.33</ele>
        <time>2012-12-17T11:47:51Z</time>
      </trkpt>
      <trkpt lat="42.91595" lon="2.20871">
        <ele>256.81</ele>
        <time>2012-12-17T11:47:55Z</time>
      </trkpt>
      <trkpt lat="42.9165" lon="2.2087">
        <ele>255.85</ele>
        <time>2012-12-17T11:48:08Z</time>
      </trkpt>
      <trkpt lat="42.91656" lon="2.20871">
        <ele>255.85</ele>
        <time>2012-12-17T11:48:09Z</time>
      </trkpt>
      <trkpt lat="42.91686" lon="2.20876">
        <ele>253.93</ele>
        <time>2012-12-17T11:48:13Z</time>
      </trkpt>
      <trkpt lat="42.91795" lon="2.20933">
        <ele>252.96</ele>
        <time>2012-12-17T11:48:30Z</time>
      </trkpt>
      <trkpt lat="42.91889" lon="2.21017">
        <ele>252.96</ele>
        <time>2012-12-17T11:48:45Z</time>
      </trkpt>
      <trkpt lat="42.92001" lon="2.21159">
        <ele>252</ele>
        <time>2012-12-17T11:49:06Z</time>
      </trkpt>
      <trkpt lat="42.92064" lon="2.2126">
        <ele>251.52</ele>
        <time>2012-12-17T11:49:20Z</time>
      </trkpt>
      <trkpt lat="42.92096" lon="2.214">
        <ele>251.04</ele>
        <time>2012-12-17T11:49:35Z</time>
      </trkpt>
      <trkpt lat="42.92139" lon="2.21614">
        <ele>250.08</ele>
        <time>2012-12-17T11:49:57Z</time>
      </trkpt>
      <trkpt lat="42.92159" lon="2.21669">
        <ele>250.56</ele>
        <time>2012-12-17T11:50:03Z</time>
      </trkpt>
      <trkpt lat="42.92183" lon="2.21705">
        <ele>251.04</ele>
        <time>2012-12-17T11:50:08Z</time>
      </trkpt>
      <trkpt lat="42.92271" lon="2.21766">
        <ele>252.96</ele>
        <time>2012-12-17T11:50:23Z</time>
      </trkpt>
      <trkpt lat="42.92365" lon="2.21825">
        <ele>253.44</ele>
        <time>2012-12-17T11:50:41Z</time>
      </trkpt>
      <trkpt lat="42.9246" lon="2.2193">
        <ele>251.52</ele>
        <time>2012-12-17T11:51:00Z</time>
      </trkpt>
      <trkpt lat="42.92559" lon="2.2198">
        <ele>250.08</ele>
        <time>2012-12-17T11:51:15Z</time>
      </trkpt>
      <trkpt lat="42.92626" lon="2.21995">
        <ele>252.96</ele>
        <time>2012-12-17T11:51:28Z</time>
      </trkpt>
      <trkpt lat="42.92694" lon="2.21983">
        <ele>253.44</ele>
        <time>2012-12-17T11:51:42Z</time>
      </trkpt>
      <trkpt lat="42.92792" lon="2.2196">
        <ele>252.48</ele>
        <time>2012-12-17T11:52:01Z</time>
      </trkpt>
      <trkpt lat="42.92797" lon="2.2196">
        <ele>252.48</ele>
        <time>2012-12-17T11:52:02Z</time>
      </trkpt>
      <trkpt lat="42.92849" lon="2.21973">
        <ele>255.85</ele>
        <time>2012-12-17T11:52:15Z</time>
      </trkpt>
      <trkpt lat="42.92889" lon="2.21999">
        <ele>259.21</ele>
        <time>2012-12-17T11:52:27Z</time>
      </trkpt>
      <trkpt lat="42.92921" lon="2.22043">
        <ele>262.1</ele>
        <time>2012-12-17T11:52:41Z</time>
      </trkpt>
      <trkpt lat="42.92945" lon="2.22098">
        <ele>264.98</ele>
        <time>2012-12-17T11:52:56Z</time>
      </trkpt>
      <trkpt lat="42.92961" lon="2.22161">
        <ele>267.38</ele>
        <time>2012-12-17T11:53:11Z</time>
      </trkpt>
      <trkpt lat="42.92973" lon="2.2226">
        <ele>268.35</ele>
        <time>2012-12-17T11:53:28Z</time>
      </trkpt>
      <trkpt lat="42.92979" lon="2.22397">
        <ele>264.98</ele>
        <time>2012-12-17T11:53:43Z</time>
      </trkpt>
      <trkpt lat="42.92986" lon="2.22509">
        <ele>262.1</ele>
        <time>2012-12-17T11:53:52Z</time>
      </trkpt>
      <trkpt lat="42.93007" lon="2.22585">
        <ele>258.73</ele>
        <time>2012-12-17T11:53:58Z</time>
      </trkpt>
      <trkpt lat="42.93071" lon="2.22729">
        <ele>255.37</ele>
        <time>2012-12-17T11:54:11Z</time>
      </trkpt>
      <trkpt lat="42.93101" lon="2.22799">
        <ele>252.48</ele>
        <time>2012-12-17T11:54:17Z</time>
      </trkpt>
      <trkpt lat="42.93135" lon="2.22863">
        <ele>250.08</ele>
        <time>2012-12-17T11:54:23Z</time>
      </trkpt>
      <trkpt lat="42.93181" lon="2.22964">
        <ele>246.72</ele>
        <time>2012-12-17T11:54:32Z</time>
      </trkpt>
      <trkpt lat="42.93247" lon="2.23112">
        <ele>243.35</ele>
        <time>2012-12-17T11:54:45Z</time>
      </trkpt>
      <trkpt lat="42.93304" lon="2.23238">
        <ele>239.99</ele>
        <time>2012-12-17T11:54:57Z</time>
      </trkpt>
      <trkpt lat="42.93386" lon="2.23399">
        <ele>239.02</ele>
        <time>2012-12-17T11:55:13Z</time>
      </trkpt>
      <trkpt lat="42.93464" lon="2.23468">
        <ele>239.02</ele>
        <time>2012-12-17T11:55:24Z</time>
      </trkpt>
      <trkpt lat="42.93575" lon="2.23509">
        <ele>238.06</ele>
        <time>2012-12-17T11:55:39Z</time>
      </trkpt>
      <trkpt lat="42.93635" lon="2.23531">
        <ele>237.1</ele>
        <time>2012-12-17T11:55:48Z</time>
      </trkpt>
      <trkpt lat="42.93708" lon="2.23572">
        <ele>236.14</ele>
        <time>2012-12-17T11:56:00Z</time>
      </trkpt>
      <trkpt lat="42.93834" lon="2.23668">
        <ele>235.18</ele>
        <time>2012-12-17T11:56:21Z</time>
      </trkpt>
      <trkpt lat="42.93864" lon="2.23732">
        <ele>234.22</ele>
        <time>2012-12-17T11:56:29Z</time>
      </trkpt>
      <trkpt lat="42.93886" lon="2.23864">
        <ele>234.7</ele>
        <time>2012-12-17T11:56:43Z</time>
      </trkpt>
      <trkpt lat="42.93921" lon="2.24075">
        <ele>234.7</ele>
        <time>2012-12-17T11:57:05Z</time>
      </trkpt>
      <trkpt lat="42.93944" lon="2.24188">
        <ele>235.18</ele>
        <time>2012-12-17T11:57:17Z</time>
      </trkpt>
      <trkpt lat="42.93937" lon="2.24339">
        <ele>233.74</ele>
        <time>2012-12-17T11:57:32Z</time>
      </trkpt>
      <trkpt lat="42.93923" lon="2.24524">
        <ele>233.74</ele>
        <time>2012-12-17T11:57:51Z</time>
      </trkpt>
      <trkpt lat="42.93948" lon="2.24654">
        <ele>233.74</ele>
        <time>2012-12-17T11:58:05Z</time>
      </trkpt>
      <trkpt lat="42.93975" lon="2.24785">
        <ele>233.26</ele>
        <time>2012-12-17T11:58:19Z</time>
      </trkpt>
      <trkpt lat="42.93976" lon="2.24794">
        <ele>232.78</ele>
        <time>2012-12-17T11:58:20Z</time>
      </trkpt>
      <trkpt lat="42.93998" lon="2.24936">
        <ele>232.78</ele>
        <time>2012-12-17T11:58:35Z</time>
      </trkpt>
      <trkpt lat="42.94024" lon="2.25074">
        <ele>232.78</ele>
        <time>2012-12-17T11:58:51Z</time>
      </trkpt>
      <trkpt lat="42.94035" lon="2.25143">
        <ele>232.78</ele>
        <time>2012-12-17T11:58:59Z</time>
      </trkpt>
      <trkpt lat="42.94042" lon="2.25167">
        <ele>232.78</ele>
        <time>2012-12-17T11:59:02Z</time>
      </trkpt>
      <trkpt lat="42.94107" lon="2.25287">
        <ele>231.33</ele>
        <time>2012-12-17T11:59:16Z</time>
      </trkpt>
      <trkpt lat="42.94154" lon="2.25354">
        <ele>230.85</ele>
        <time>2012-12-17T11:59:26Z</time>
      </trkpt>
      <trkpt lat="42.94209" lon="2.25423">
        <ele>230.85</ele>
        <time>2012-12-17T11:59:38Z</time>
      </trkpt>
      <trkpt lat="42.94255" lon="2.25493">
        <ele>231.81</ele>
        <time>2012-12-17T11:59:50Z</time>
      </trkpt>
      <trkpt lat="42.94281" lon="2.2553">
        <ele>230.37</ele>
        <time>2012-12-17T12:00:01Z</time>
      </trkpt>
      <trkpt lat="42.94287" lon="2.25538">
        <ele>230.85</ele>
        <time>2012-12-17T12:00:03Z</time>
      </trkpt>
      <trkpt lat="42.94304" lon="2.25562">
        <ele>230.85</ele>
        <time>2012-12-17T12:00:08Z</time>
      </trkpt>
      <trkpt lat="42.94339" lon="2.25603">
        <ele>230.85</ele>
        <time>2012-12-17T12:00:17Z</time>
      </trkpt>
      <trkpt lat="42.94406" lon="2.25637">
        <ele>231.81</ele>
        <time>2012-12-17T12:00:32Z</time>
      </trkpt>
      <trkpt lat="42.94411" lon="2.25638">
        <ele>231.81</ele>
        <time>2012-12-17T12:00:33Z</time>
      </trkpt>
      <trkpt lat="42.94427" lon="2.25636">
        <ele>232.3</ele>
        <time>2012-12-17T12:00:36Z</time>
      </trkpt>
      <trkpt lat="42.94452" lon="2.25626">
        <ele>232.78</ele>
        <time>2012-12-17T12:00:42Z</time>
      </trkpt>
      <trkpt lat="42.94485" lon="2.25598">
        <ele>234.7</ele>
        <time>2012-12-17T12:00:51Z</time>
      </trkpt>
      <trkpt lat="42.94519" lon="2.25565">
        <ele>235.18</ele>
        <time>2012-12-17T12:01:01Z</time>
      </trkpt>
      <trkpt lat="42.94556" lon="2.25524">
        <ele>234.22</ele>
        <time>2012-12-17T12:01:10Z</time>
      </trkpt>
      <trkpt lat="42.94645" lon="2.25445">
        <ele>231.81</ele>
        <time>2012-12-17T12:01:26Z</time>
      </trkpt>
      <trkpt lat="42.94762" lon="2.25377">
        <ele>230.85</ele>
        <time>2012-12-17T12:01:45Z</time>
      </trkpt>
      <trkpt lat="42.94867" lon="2.25366">
        <ele>227.97</ele>
        <time>2012-12-17T12:02:01Z</time>
      </trkpt>
      <trkpt lat="42.94967" lon="2.25367">
        <ele>229.41</ele>
        <time>2012-12-17T12:02:17Z</time>
      </trkpt>
      <trkpt lat="42.951" lon="2.25367">
        <ele>228.93</ele>
        <time>2012-12-17T12:02:39Z</time>
      </trkpt>
      <trkpt lat="42.95225" lon="2.25368">
        <ele>227.49</ele>
        <time>2012-12-17T12:02:58Z</time>
      </trkpt>
      <trkpt lat="42.95322" lon="2.25409">
        <ele>227.01</ele>
        <time>2012-12-17T12:03:13Z</time>
      </trkpt>
      <trkpt lat="42.95429" lon="2.25512">
        <ele>224.12</ele>
        <time>2012-12-17T12:03:32Z</time>
      </trkpt>
      <trkpt lat="42.95513" lon="2.25625">
        <ele>223.16</ele>
        <time>2012-12-17T12:03:49Z</time>
      </trkpt>
      <trkpt lat="42.95562" lon="2.25749">
        <ele>224.61</ele>
        <time>2012-12-17T12:04:06Z</time>
      </trkpt>
      <trkpt lat="42.95612" lon="2.25882">
        <ele>226.53</ele>
        <time>2012-12-17T12:04:24Z</time>
      </trkpt>
      <trkpt lat="42.95655" lon="2.25967">
        <ele>227.49</ele>
        <time>2012-12-17T12:04:36Z</time>
      </trkpt>
      <trkpt lat="42.9566" lon="2.25973">
        <ele>227.49</ele>
        <time>2012-12-17T12:04:37Z</time>
      </trkpt>
      <trkpt lat="42.95674" lon="2.25989">
        <ele>227.97</ele>
        <time>2012-12-17T12:04:40Z</time>
      </trkpt>
      <trkpt lat="42.95693" lon="2.26006">
        <ele>227.49</ele>
        <time>2012-12-17T12:04:44Z</time>
      </trkpt>
      <trkpt lat="42.95721" lon="2.26023">
        <ele>227.01</ele>
        <time>2012-12-17T12:04:49Z</time>
      </trkpt>
      <trkpt lat="42.95803" lon="2.26025">
        <ele>227.01</ele>
        <time>2012-12-17T12:05:03Z</time>
      </trkpt>
      <trkpt lat="42.95815" lon="2.2602">
        <ele>227.49</ele>
        <time>2012-12-17T12:05:05Z</time>
      </trkpt>
      <trkpt lat="42.95844" lon="2.25998">
        <ele>227.97</ele>
        <time>2012-12-17T12:05:11Z</time>
      </trkpt>
      <trkpt lat="42.95905" lon="2.25902">
        <ele>227.97</ele>
        <time>2012-12-17T12:05:27Z</time>
      </trkpt>
      <trkpt lat="42.95932" lon="2.25803">
        <ele>227.49</ele>
        <time>2012-12-17T12:05:40Z</time>
      </trkpt>
      <trkpt lat="42.95986" lon="2.25704">
        <ele>227.97</ele>
        <time>2012-12-17T12:05:56Z</time>
      </trkpt>
      <trkpt lat="42.96076" lon="2.25651">
        <ele>227.01</ele>
        <time>2012-12-17T12:06:14Z</time>
      </trkpt>
      <trkpt lat="42.96092" lon="2.25649">
        <ele>227.01</ele>
        <time>2012-12-17T12:06:17Z</time>
      </trkpt>
      <trkpt lat="42.96198" lon="2.25663">
        <ele>227.97</ele>
        <time>2012-12-17T12:06:37Z</time>
      </trkpt>
      <trkpt lat="42.96295" lon="2.25685">
        <ele>226.05</ele>
        <time>2012-12-17T12:06:56Z</time>
      </trkpt>
      <trkpt lat="42.96371" lon="2.25714">
        <ele>224.61</ele>
        <time>2012-12-17T12:07:10Z</time>
      </trkpt>
      <trkpt lat="42.96435" lon="2.25789">
        <ele>221.24</ele>
        <time>2012-12-17T12:07:25Z</time>
      </trkpt>
      <trkpt lat="42.96439" lon="2.25795">
        <ele>221.24</ele>
        <time>2012-12-17T12:07:26Z</time>
      </trkpt>
      <trkpt lat="42.96463" lon="2.25818">
        <ele>221.72</ele>
        <time>2012-12-17T12:07:31Z</time>
      </trkpt>
      <trkpt lat="42.96534" lon="2.25861">
        <ele>220.28</ele>
        <time>2012-12-17T12:07:43Z</time>
      </trkpt>
      <trkpt lat="42.96635" lon="2.25921">
        <ele>222.2</ele>
        <time>2012-12-17T12:07:59Z</time>
      </trkpt>
      <trkpt lat="42.96665" lon="2.25943">
        <ele>222.2</ele>
        <time>2012-12-17T12:08:04Z</time>
      </trkpt>
      <trkpt lat="42.96675" lon="2.25954">
        <ele>222.2</ele>
        <time>2012-12-17T12:08:06Z</time>
      </trkpt>
      <trkpt lat="42.96718" lon="2.26038">
        <ele>222.2</ele>
        <time>2012-12-17T12:08:18Z</time>
      </trkpt>
      <trkpt lat="42.96725" lon="2.26051">
        <ele>222.2</ele>
        <time>2012-12-17T12:08:20Z</time>
      </trkpt>
      <trkpt lat="42.96734" lon="2.26063">
        <ele>222.2</ele>
        <time>2012-12-17T12:08:22Z</time>
      </trkpt>
      <trkpt lat="42.96798" lon="2.26087">
        <ele>221.72</ele>
        <time>2012-12-17T12:08:33Z</time>
      </trkpt>
      <trkpt lat="42.96864" lon="2.26042">
        <ele>220.76</ele>
        <time>2012-12-17T12:08:45Z</time>
      </trkpt>
      <trkpt lat="42.96895" lon="2.26008">
        <ele>220.76</ele>
        <time>2012-12-17T12:08:52Z</time>
      </trkpt>
      <trkpt lat="42.96966" lon="2.25961">
        <ele>221.24</ele>
        <time>2012-12-17T12:09:05Z</time>
      </trkpt>
      <trkpt lat="42.96997" lon="2.25955">
        <ele>220.28</ele>
        <time>2012-12-17T12:09:11Z</time>
      </trkpt>
      <trkpt lat="42.97018" lon="2.25959">
        <ele>220.76</ele>
        <time>2012-12-17T12:09:15Z</time>
      </trkpt>
      <trkpt lat="42.9703" lon="2.25965">
        <ele>220.76</ele>
        <time>2012-12-17T12:09:17Z</time>
      </trkpt>
      <trkpt lat="42.97112" lon="2.26052">
        <ele>221.24</ele>
        <time>2012-12-17T12:09:33Z</time>
      </trkpt>
      <trkpt lat="42.97195" lon="2.26076">
        <ele>220.76</ele>
        <time>2012-12-17T12:09:47Z</time>
      </trkpt>
      <trkpt lat="42.9728" lon="2.2606">
        <ele>220.76</ele>
        <time>2012-12-17T12:10:01Z</time>
      </trkpt>
      <trkpt lat="42.97375" lon="2.26078">
        <ele>221.24</ele>
        <time>2012-12-17T12:10:16Z</time>
      </trkpt>
      <trkpt lat="42.97484" lon="2.26133">
        <ele>217.88</ele>
        <time>2012-12-17T12:10:34Z</time>
      </trkpt>
      <trkpt lat="42.97565" lon="2.26251">
        <ele>216.91</ele>
        <time>2012-12-17T12:10:53Z</time>
      </trkpt>
      <trkpt lat="42.97612" lon="2.26299">
        <ele>216.91</ele>
        <time>2012-12-17T12:11:02Z</time>
      </trkpt>
      <trkpt lat="42.97719" lon="2.26333">
        <ele>216.43</ele>
        <time>2012-12-17T12:11:18Z</time>
      </trkpt>
      <trkpt lat="42.97791" lon="2.26349">
        <ele>213.55</ele>
        <time>2012-12-17T12:11:28Z</time>
      </trkpt>
      <trkpt lat="42.97869" lon="2.26365">
        <ele>213.07</ele>
        <time>2012-12-17T12:11:39Z</time>
      </trkpt>
      <trkpt lat="42.97915" lon="2.26387">
        <ele>213.07</ele>
        <time>2012-12-17T12:11:46Z</time>
      </trkpt>
      <trkpt lat="42.97983" lon="2.26449">
        <ele>214.51</ele>
        <time>2012-12-17T12:11:59Z</time>
      </trkpt>
      <trkpt lat="42.98058" lon="2.2652">
        <ele>216.43</ele>
        <time>2012-12-17T12:12:16Z</time>
      </trkpt>
      <trkpt lat="42.98068" lon="2.26527">
        <ele>216.91</ele>
        <time>2012-12-17T12:12:18Z</time>
      </trkpt>
      <trkpt lat="42.9815" lon="2.26547">
        <ele>217.4</ele>
        <time>2012-12-17T12:12:34Z</time>
      </trkpt>
      <trkpt lat="42.98164" lon="2.26542">
        <ele>217.4</ele>
        <time>2012-12-17T12:12:37Z</time>
      </trkpt>
      <trkpt lat="42.98228" lon="2.26506">
        <ele>216.91</ele>
        <time>2012-12-17T12:12:50Z</time>
      </trkpt>
      <trkpt lat="42.98273" lon="2.26478">
        <ele>217.4</ele>
        <time>2012-12-17T12:13:00Z</time>
      </trkpt>
      <trkpt lat="42.98316" lon="2.26451">
        <ele>216.91</ele>
        <time>2012-12-17T12:13:09Z</time>
      </trkpt>
      <trkpt lat="42.98399" lon="2.26385">
        <ele>215.47</ele>
        <time>2012-12-17T12:13:25Z</time>
      </trkpt>
      <trkpt lat="42.98504" lon="2.26304">
        <ele>213.07</ele>
        <time>2012-12-17T12:13:43Z</time>
      </trkpt>
      <trkpt lat="42.98606" lon="2.2625">
        <ele>212.11</ele>
        <time>2012-12-17T12:14:01Z</time>
      </trkpt>
      <trkpt lat="42.98629" lon="2.26246">
        <ele>211.15</ele>
        <time>2012-12-17T12:14:05Z</time>
      </trkpt>
      <trkpt lat="42.98749" lon="2.26256">
        <ele>209.22</ele>
        <time>2012-12-17T12:14:26Z</time>
      </trkpt>
      <trkpt lat="42.98813" lon="2.26265">
        <ele>208.74</ele>
        <time>2012-12-17T12:14:37Z</time>
      </trkpt>
      <trkpt lat="42.98911" lon="2.26235">
        <ele>209.7</ele>
        <time>2012-12-17T12:14:56Z</time>
      </trkpt>
      <trkpt lat="42.98945" lon="2.26197">
        <ele>210.19</ele>
        <time>2012-12-17T12:15:05Z</time>
      </trkpt>
      <trkpt lat="42.98984" lon="2.26106">
        <ele>211.15</ele>
        <time>2012-12-17T12:15:20Z</time>
      </trkpt>
      <trkpt lat="42.99009" lon="2.26045">
        <ele>211.63</ele>
        <time>2012-12-17T12:15:29Z</time>
      </trkpt>
      <trkpt lat="42.99037" lon="2.25997">
        <ele>211.15</ele>
        <time>2012-12-17T12:15:37Z</time>
      </trkpt>
      <trkpt lat="42.99112" lon="2.25927">
        <ele>211.15</ele>
        <time>2012-12-17T12:15:53Z</time>
      </trkpt>
      <trkpt lat="42.99186" lon="2.25845">
        <ele>210.67</ele>
        <time>2012-12-17T12:16:09Z</time>
      </trkpt>
      <trkpt lat="42.99234" lon="2.25795">
        <ele>210.67</ele>
        <time>2012-12-17T12:16:19Z</time>
      </trkpt>
      <trkpt lat="42.99278" lon="2.25749">
        <ele>210.19</ele>
        <time>2012-12-17T12:16:28Z</time>
      </trkpt>
      <trkpt lat="42.99352" lon="2.25648">
        <ele>211.15</ele>
        <time>2012-12-17T12:16:46Z</time>
      </trkpt>
      <trkpt lat="42.99422" lon="2.25513">
        <ele>210.19</ele>
        <time>2012-12-17T12:17:06Z</time>
      </trkpt>
      <trkpt lat="42.99494" lon="2.25397">
        <ele>210.19</ele>
        <time>2012-12-17T12:17:25Z</time>
      </trkpt>
      <trkpt lat="42.99514" lon="2.25377">
        <ele>210.19</ele>
        <time>2012-12-17T12:17:29Z</time>
      </trkpt>
      <trkpt lat="42.99605" lon="2.25317">
        <ele>210.67</ele>
        <time>2012-12-17T12:17:46Z</time>
      </trkpt>
      <trkpt lat="42.99711" lon="2.25269">
        <ele>210.67</ele>
        <time>2012-12-17T12:18:06Z</time>
      </trkpt>
      <trkpt lat="42.99771" lon="2.25247">
        <ele>210.67</ele>
        <time>2012-12-17T12:18:17Z</time>
      </trkpt>
      <trkpt lat="42.99813" lon="2.2522">
        <ele>209.7</ele>
        <time>2012-12-17T12:18:25Z</time>
      </trkpt>
      <trkpt lat="42.99828" lon="2.25205">
        <ele>209.7</ele>
        <time>2012-12-17T12:18:28Z</time>
      </trkpt>
      <trkpt lat="42.99842" lon="2.25189">
        <ele>209.7</ele>
        <time>2012-12-17T12:18:31Z</time>
      </trkpt>
      <trkpt lat="42.9987" lon="2.25148">
        <ele>210.19</ele>
        <time>2012-12-17T12:18:38Z</time>
      </trkpt>
      <trkpt lat="42.99895" lon="2.25112">
        <ele>209.7</ele>
        <time>2012-12-17T12:18:44Z</time>
      </trkpt>
      <trkpt lat="42.99909" lon="2.25097">
        <ele>209.7</ele>
        <time>2012-12-17T12:18:47Z</time>
      </trkpt>
      <trkpt lat="42.99993" lon="2.25028">
        <ele>208.74</ele>
        <time>2012-12-17T12:19:03Z</time>
      </trkpt>
      <trkpt lat="43.0008" lon="2.24981">
        <ele>206.34</ele>
        <time>2012-12-17T12:19:16Z</time>
      </trkpt>
      <trkpt lat="43.00192" lon="2.24911">
        <ele>204.9</ele>
        <time>2012-12-17T12:19:34Z</time>
      </trkpt>
      <trkpt lat="43.00218" lon="2.24886">
        <ele>204.42</ele>
        <time>2012-12-17T12:19:39Z</time>
      </trkpt>
      <trkpt lat="43.00246" lon="2.24871">
        <ele>203.94</ele>
        <time>2012-12-17T12:19:44Z</time>
      </trkpt>
      <trkpt lat="43.00263" lon="2.24866">
        <ele>203.94</ele>
        <time>2012-12-17T12:19:47Z</time>
      </trkpt>
      <trkpt lat="43.0032" lon="2.24859">
        <ele>203.94</ele>
        <time>2012-12-17T12:19:57Z</time>
      </trkpt>
      <trkpt lat="43.00407" lon="2.24895">
        <ele>203.94</ele>
        <time>2012-12-17T12:20:14Z</time>
      </trkpt>
      <trkpt lat="43.00511" lon="2.24943">
        <ele>202.98</ele>
        <time>2012-12-17T12:20:32Z</time>
      </trkpt>
      <trkpt lat="43.00553" lon="2.24931">
        <ele>202.98</ele>
        <time>2012-12-17T12:20:39Z</time>
      </trkpt>
      <trkpt lat="43.00582" lon="2.24902">
        <ele>202.01</ele>
        <time>2012-12-17T12:20:44Z</time>
      </trkpt>
      <trkpt lat="43.00626" lon="2.24843">
        <ele>202.01</ele>
        <time>2012-12-17T12:20:53Z</time>
      </trkpt>
      <trkpt lat="43.0069" lon="2.24788">
        <ele>203.46</ele>
        <time>2012-12-17T12:21:05Z</time>
      </trkpt>
      <trkpt lat="43.00707" lon="2.24785">
        <ele>203.46</ele>
        <time>2012-12-17T12:21:08Z</time>
      </trkpt>
      <trkpt lat="43.00724" lon="2.24786">
        <ele>203.46</ele>
        <time>2012-12-17T12:21:11Z</time>
      </trkpt>
      <trkpt lat="43.00751" lon="2.24799">
        <ele>204.42</ele>
        <time>2012-12-17T12:21:16Z</time>
      </trkpt>
      <trkpt lat="43.00858" lon="2.24877">
        <ele>204.9</ele>
        <time>2012-12-17T12:21:38Z</time>
      </trkpt>
      <trkpt lat="43.00942" lon="2.24897">
        <ele>202.98</ele>
        <time>2012-12-17T12:21:57Z</time>
      </trkpt>
      <trkpt lat="43.00976" lon="2.24894">
        <ele>202.98</ele>
        <time>2012-12-17T12:22:05Z</time>
      </trkpt>
      <trkpt lat="43.00984" lon="2.24894">
        <ele>203.46</ele>
        <time>2012-12-17T12:22:07Z</time>
      </trkpt>
      <trkpt lat="43.00997" lon="2.24891">
        <ele>203.46</ele>
        <time>2012-12-17T12:22:10Z</time>
      </trkpt>
      <trkpt lat="43.01079" lon="2.24914">
        <ele>204.42</ele>
        <time>2012-12-17T12:22:27Z</time>
      </trkpt>
      <trkpt lat="43.01154" lon="2.24965">
        <ele>202.01</ele>
        <time>2012-12-17T12:22:40Z</time>
      </trkpt>
      <trkpt lat="43.01179" lon="2.24999">
        <ele>200.57</ele>
        <time>2012-12-17T12:22:45Z</time>
      </trkpt>
      <trkpt lat="43.01194" lon="2.25028">
        <ele>199.61</ele>
        <time>2012-12-17T12:22:49Z</time>
      </trkpt>
      <trkpt lat="43.01205" lon="2.25053">
        <ele>199.61</ele>
        <time>2012-12-17T12:22:52Z</time>
      </trkpt>
      <trkpt lat="43.01213" lon="2.25085">
        <ele>199.13</ele>
        <time>2012-12-17T12:22:56Z</time>
      </trkpt>
      <trkpt lat="43.01218" lon="2.25182">
        <ele>198.65</ele>
        <time>2012-12-17T12:23:09Z</time>
      </trkpt>
      <trkpt lat="43.0122" lon="2.25205">
        <ele>198.65</ele>
        <time>2012-12-17T12:23:12Z</time>
      </trkpt>
      <trkpt lat="43.01226" lon="2.25227">
        <ele>199.13</ele>
        <time>2012-12-17T12:23:15Z</time>
      </trkpt>
      <trkpt lat="43.0123" lon="2.25254">
        <ele>199.61</ele>
        <time>2012-12-17T12:23:19Z</time>
      </trkpt>
      <trkpt lat="43.01249" lon="2.25341">
        <ele>201.05</ele>
        <time>2012-12-17T12:23:31Z</time>
      </trkpt>
      <trkpt lat="43.0127" lon="2.25413">
        <ele>202.01</ele>
        <time>2012-12-17T12:23:42Z</time>
      </trkpt>
      <trkpt lat="43.01297" lon="2.25489">
        <ele>201.53</ele>
        <time>2012-12-17T12:23:54Z</time>
      </trkpt>
      <trkpt lat="43.01336" lon="2.25569">
        <ele>200.09</ele>
        <time>2012-12-17T12:24:05Z</time>
      </trkpt>
      <trkpt lat="43.01391" lon="2.25634">
        <ele>199.13</ele>
        <time>2012-12-17T12:24:15Z</time>
      </trkpt>
      <trkpt lat="43.01472" lon="2.25657">
        <ele>197.69</ele>
        <time>2012-12-17T12:24:27Z</time>
      </trkpt>
      <trkpt lat="43.01547" lon="2.25645">
        <ele>196.25</ele>
        <time>2012-12-17T12:24:39Z</time>
      </trkpt>
      <trkpt lat="43.01605" lon="2.25603">
        <ele>196.25</ele>
        <time>2012-12-17T12:24:50Z</time>
      </trkpt>
      <trkpt lat="43.01673" lon="2.25555">
        <ele>196.25</ele>
        <time>2012-12-17T12:25:02Z</time>
      </trkpt>
      <trkpt lat="43.01706" lon="2.25519">
        <ele>196.73</ele>
        <time>2012-12-17T12:25:08Z</time>
      </trkpt>
      <trkpt lat="43.01761" lon="2.25392">
        <ele>196.73</ele>
        <time>2012-12-17T12:25:23Z</time>
      </trkpt>
      <trkpt lat="43.01799" lon="2.25277">
        <ele>195.77</ele>
        <time>2012-12-17T12:25:35Z</time>
      </trkpt>
      <trkpt lat="43.01811" lon="2.25252">
        <ele>195.28</ele>
        <time>2012-12-17T12:25:38Z</time>
      </trkpt>
      <trkpt lat="43.01821" lon="2.25237">
        <ele>195.28</ele>
        <time>2012-12-17T12:25:40Z</time>
      </trkpt>
      <trkpt lat="43.01857" lon="2.252">
        <ele>194.32</ele>
        <time>2012-12-17T12:25:46Z</time>
      </trkpt>
      <trkpt lat="43.01944" lon="2.25174">
        <ele>194.8</ele>
        <time>2012-12-17T12:25:59Z</time>
      </trkpt>
      <trkpt lat="43.01969" lon="2.25176">
        <ele>194.8</ele>
        <time>2012-12-17T12:26:03Z</time>
      </trkpt>
      <trkpt lat="43.02042" lon="2.25188">
        <ele>196.25</ele>
        <time>2012-12-17T12:26:15Z</time>
      </trkpt>
      <trkpt lat="43.02162" lon="2.25187">
        <ele>195.28</ele>
        <time>2012-12-17T12:26:35Z</time>
      </trkpt>
      <trkpt lat="43.02226" lon="2.25188">
        <ele>195.28</ele>
        <time>2012-12-17T12:26:46Z</time>
      </trkpt>
      <trkpt lat="43.02273" lon="2.25173">
        <ele>193.84</ele>
        <time>2012-12-17T12:26:54Z</time>
      </trkpt>
      <trkpt lat="43.02337" lon="2.25151">
        <ele>192.88</ele>
        <time>2012-12-17T12:27:04Z</time>
      </trkpt>
      <trkpt lat="43.02406" lon="2.25118">
        <ele>191.92</ele>
        <time>2012-12-17T12:27:14Z</time>
      </trkpt>
      <trkpt lat="43.02445" lon="2.2511">
        <ele>192.4</ele>
        <time>2012-12-17T12:27:20Z</time>
      </trkpt>
      <trkpt lat="43.02471" lon="2.25111">
        <ele>192.88</ele>
        <time>2012-12-17T12:27:24Z</time>
      </trkpt>
      <trkpt lat="43.02505" lon="2.25114">
        <ele>192.88</ele>
        <time>2012-12-17T12:27:29Z</time>
      </trkpt>
      <trkpt lat="43.02576" lon="2.25107">
        <ele>192.88</ele>
        <time>2012-12-17T12:27:40Z</time>
      </trkpt>
      <trkpt lat="43.02589" lon="2.25105">
        <ele>192.88</ele>
        <time>2012-12-17T12:27:42Z</time>
      </trkpt>
      <trkpt lat="43.02609" lon="2.25103">
        <ele>192.88</ele>
        <time>2012-12-17T12:27:45Z</time>
      </trkpt>
      <trkpt lat="43.02661" lon="2.25094">
        <ele>193.36</ele>
        <time>2012-12-17T12:27:53Z</time>
      </trkpt>
      <trkpt lat="43.02755" lon="2.25086">
        <ele>193.84</ele>
        <time>2012-12-17T12:28:09Z</time>
      </trkpt>
      <trkpt lat="43.02876" lon="2.25065">
        <ele>194.32</ele>
        <time>2012-12-17T12:28:27Z</time>
      </trkpt>
      <trkpt lat="43.02999" lon="2.2505">
        <ele>194.8</ele>
        <time>2012-12-17T12:28:48Z</time>
      </trkpt>
      <trkpt lat="43.03097" lon="2.25028">
        <ele>194.32</ele>
        <time>2012-12-17T12:29:06Z</time>
      </trkpt>
      <trkpt lat="43.03187" lon="2.24999">
        <ele>193.84</ele>
        <time>2012-12-17T12:29:23Z</time>
      </trkpt>
      <trkpt lat="43.03272" lon="2.24958">
        <ele>193.36</ele>
        <time>2012-12-17T12:29:40Z</time>
      </trkpt>
      <trkpt lat="43.03305" lon="2.24939">
        <ele>192.88</ele>
        <time>2012-12-17T12:29:47Z</time>
      </trkpt>
      <trkpt lat="43.03386" lon="2.2488">
        <ele>192.4</ele>
        <time>2012-12-17T12:30:05Z</time>
      </trkpt>
      <trkpt lat="43.03466" lon="2.24808">
        <ele>191.44</ele>
        <time>2012-12-17T12:30:23Z</time>
      </trkpt>
      <trkpt lat="43.03549" lon="2.2472">
        <ele>192.4</ele>
        <time>2012-12-17T12:30:43Z</time>
      </trkpt>
      <trkpt lat="43.03558" lon="2.24711">
        <ele>192.4</ele>
        <time>2012-12-17T12:30:45Z</time>
      </trkpt>
      <trkpt lat="43.03604" lon="2.24657">
        <ele>191.44</ele>
        <time>2012-12-17T12:30:56Z</time>
      </trkpt>
      <trkpt lat="43.03665" lon="2.2459">
        <ele>191.44</ele>
        <time>2012-12-17T12:31:09Z</time>
      </trkpt>
      <trkpt lat="43.03763" lon="2.24481">
        <ele>190.48</ele>
        <time>2012-12-17T12:31:29Z</time>
      </trkpt>
      <trkpt lat="43.0387" lon="2.24369">
        <ele>188.08</ele>
        <time>2012-12-17T12:31:52Z</time>
      </trkpt>
      <trkpt lat="43.03978" lon="2.24254">
        <ele>187.11</ele>
        <time>2012-12-17T12:32:18Z</time>
      </trkpt>
      <trkpt lat="43.04107" lon="2.24111">
        <ele>186.63</ele>
        <time>2012-12-17T12:32:50Z</time>
      </trkpt>
      <trkpt lat="43.04161" lon="2.24057">
        <ele>186.63</ele>
        <time>2012-12-17T12:33:03Z</time>
      </trkpt>
      <trkpt lat="43.04248" lon="2.23974">
        <ele>186.15</ele>
        <time>2012-12-17T12:33:22Z</time>
      </trkpt>
      <trkpt lat="43.04339" lon="2.23855">
        <ele>186.15</ele>
        <time>2012-12-17T12:33:45Z</time>
      </trkpt>
      <trkpt lat="43.04365" lon="2.23743">
        <ele>186.63</ele>
        <time>2012-12-17T12:34:02Z</time>
      </trkpt>
      <trkpt lat="43.04372" lon="2.23669">
        <ele>187.11</ele>
        <time>2012-12-17T12:34:13Z</time>
      </trkpt>
      <trkpt lat="43.04384" lon="2.23572">
        <ele>186.63</ele>
        <time>2012-12-17T12:34:27Z</time>
      </trkpt>
      <trkpt lat="43.04406" lon="2.23376">
        <ele>185.19</ele>
        <time>2012-12-17T12:34:52Z</time>
      </trkpt>
      <trkpt lat="43.0442" lon="2.23262">
        <ele>182.79</ele>
        <time>2012-12-17T12:35:08Z</time>
      </trkpt>
      <trkpt lat="43.04424" lon="2.23236">
        <ele>182.31</ele>
        <time>2012-12-17T12:35:12Z</time>
      </trkpt>
      <trkpt lat="43.0443" lon="2.23189">
        <ele>182.31</ele>
        <time>2012-12-17T12:35:19Z</time>
      </trkpt>
      <trkpt lat="43.04448" lon="2.23066">
        <ele>181.35</ele>
        <time>2012-12-17T12:35:37Z</time>
      </trkpt>
      <trkpt lat="43.04458" lon="2.22973">
        <ele>181.35</ele>
        <time>2012-12-17T12:35:50Z</time>
      </trkpt>
      <trkpt lat="43.04474" lon="2.2285">
        <ele>179.9</ele>
        <time>2012-12-17T12:36:09Z</time>
      </trkpt>
      <trkpt lat="43.04491" lon="2.22698">
        <ele>178.94</ele>
        <time>2012-12-17T12:36:28Z</time>
      </trkpt>
      <trkpt lat="43.04505" lon="2.22581">
        <ele>177.98</ele>
        <time>2012-12-17T12:36:43Z</time>
      </trkpt>
      <trkpt lat="43.04505" lon="2.22529">
        <ele>177.5</ele>
        <time>2012-12-17T12:36:50Z</time>
      </trkpt>
      <trkpt lat="43.04513" lon="2.22495">
        <ele>176.54</ele>
        <time>2012-12-17T12:36:55Z</time>
      </trkpt>
      <trkpt lat="43.04529" lon="2.22378">
        <ele>176.54</ele>
        <time>2012-12-17T12:37:11Z</time>
      </trkpt>
      <trkpt lat="43.04547" lon="2.22256">
        <ele>175.58</ele>
        <time>2012-12-17T12:37:26Z</time>
      </trkpt>
      <trkpt lat="43.04557" lon="2.22226">
        <ele>176.06</ele>
        <time>2012-12-17T12:37:30Z</time>
      </trkpt>
      <trkpt lat="43.04604" lon="2.22151">
        <ele>177.98</ele>
        <time>2012-12-17T12:37:44Z</time>
      </trkpt>
      <trkpt lat="43.04662" lon="2.22105">
        <ele>178.94</ele>
        <time>2012-12-17T12:37:59Z</time>
      </trkpt>
      <trkpt lat="43.04685" lon="2.22095">
        <ele>179.42</ele>
        <time>2012-12-17T12:38:04Z</time>
      </trkpt>
      <trkpt lat="43.04795" lon="2.22067">
        <ele>179.9</ele>
        <time>2012-12-17T12:38:26Z</time>
      </trkpt>
      <trkpt lat="43.04861" lon="2.22043">
        <ele>178.46</ele>
        <time>2012-12-17T12:38:39Z</time>
      </trkpt>
      <trkpt lat="43.04908" lon="2.22011">
        <ele>177.5</ele>
        <time>2012-12-17T12:38:49Z</time>
      </trkpt>
      <trkpt lat="43.04938" lon="2.21981">
        <ele>176.54</ele>
        <time>2012-12-17T12:38:57Z</time>
      </trkpt>
      <trkpt lat="43.04964" lon="2.21946">
        <ele>177.02</ele>
        <time>2012-12-17T12:39:05Z</time>
      </trkpt>
      <trkpt lat="43.04973" lon="2.21934">
        <ele>177.02</ele>
        <time>2012-12-17T12:39:08Z</time>
      </trkpt>
      <trkpt lat="43.04985" lon="2.21921">
        <ele>177.02</ele>
        <time>2012-12-17T12:39:11Z</time>
      </trkpt>
      <trkpt lat="43.05003" lon="2.21903">
        <ele>177.02</ele>
        <time>2012-12-17T12:39:15Z</time>
      </trkpt>
      <trkpt lat="43.05015" lon="2.21888">
        <ele>177.02</ele>
        <time>2012-12-17T12:39:18Z</time>
      </trkpt>
      <trkpt lat="43.05027" lon="2.21874">
        <ele>177.02</ele>
        <time>2012-12-17T12:39:21Z</time>
      </trkpt>
      <trkpt lat="43.0505" lon="2.21858">
        <ele>176.54</ele>
        <time>2012-12-17T12:39:26Z</time>
      </trkpt>
      <trkpt lat="43.05074" lon="2.21834">
        <ele>177.02</ele>
        <time>2012-12-17T12:39:32Z</time>
      </trkpt>
      <trkpt lat="43.05083" lon="2.21812">
        <ele>177.02</ele>
        <time>2012-12-17T12:39:36Z</time>
      </trkpt>
      <trkpt lat="43.0509" lon="2.21797">
        <ele>177.5</ele>
        <time>2012-12-17T12:39:39Z</time>
      </trkpt>
      <trkpt lat="43.0511" lon="2.21772">
        <ele>177.98</ele>
        <time>2012-12-17T12:39:44Z</time>
      </trkpt>
      <trkpt lat="43.05128" lon="2.21746">
        <ele>177.02</ele>
        <time>2012-12-17T12:39:49Z</time>
      </trkpt>
      <trkpt lat="43.0519" lon="2.21663">
        <ele>177.5</ele>
        <time>2012-12-17T12:40:06Z</time>
      </trkpt>
      <trkpt lat="43.05227" lon="2.21613">
        <ele>178.94</ele>
        <time>2012-12-17T12:40:18Z</time>
      </trkpt>
      <trkpt lat="43.05253" lon="2.21572">
        <ele>178.94</ele>
        <time>2012-12-17T12:40:26Z</time>
      </trkpt>
      <trkpt lat="43.05278" lon="2.21532">
        <ele>178.94</ele>
        <time>2012-12-17T12:40:34Z</time>
      </trkpt>
      <trkpt lat="43.05322" lon="2.21451">
        <ele>177.98</ele>
        <time>2012-12-17T12:40:49Z</time>
      </trkpt>
      <trkpt lat="43.05332" lon="2.2143">
        <ele>177.98</ele>
        <time>2012-12-17T12:40:52Z</time>
      </trkpt>
      <trkpt lat="43.05346" lon="2.21411">
        <ele>177.98</ele>
        <time>2012-12-17T12:40:56Z</time>
      </trkpt>
      <trkpt lat="43.05402" lon="2.21356">
        <ele>177.5</ele>
        <time>2012-12-17T12:41:11Z</time>
      </trkpt>
      <trkpt lat="43.0543" lon="2.2134">
        <ele>177.02</ele>
        <time>2012-12-17T12:41:17Z</time>
      </trkpt>
      <trkpt lat="43.05464" lon="2.2132">
        <ele>175.58</ele>
        <time>2012-12-17T12:41:24Z</time>
      </trkpt>
      <trkpt lat="43.05545" lon="2.21332">
        <ele>174.14</ele>
        <time>2012-12-17T12:41:38Z</time>
      </trkpt>
      <trkpt lat="43.05654" lon="2.21354">
        <ele>172.69</ele>
        <time>2012-12-17T12:41:56Z</time>
      </trkpt>
      <trkpt lat="43.05714" lon="2.21375">
        <ele>172.69</ele>
        <time>2012-12-17T12:42:07Z</time>
      </trkpt>
      <trkpt lat="43.05786" lon="2.21358">
        <ele>172.69</ele>
        <time>2012-12-17T12:42:20Z</time>
      </trkpt>
      <trkpt lat="43.05823" lon="2.21365">
        <ele>172.21</ele>
        <time>2012-12-17T12:42:27Z</time>
      </trkpt>
      <trkpt lat="43.05868" lon="2.21377">
        <ele>172.69</ele>
        <time>2012-12-17T12:42:36Z</time>
      </trkpt>
      <trkpt lat="43.0596" lon="2.21397">
        <ele>173.66</ele>
        <time>2012-12-17T12:42:55Z</time>
      </trkpt>
      <trkpt lat="43.05974" lon="2.21399">
        <ele>173.66</ele>
        <time>2012-12-17T12:42:58Z</time>
      </trkpt>
      <trkpt lat="43.06042" lon="2.21424">
        <ele>173.66</ele>
        <time>2012-12-17T12:43:12Z</time>
      </trkpt>
      <trkpt lat="43.06055" lon="2.21444">
        <ele>173.66</ele>
        <time>2012-12-17T12:43:16Z</time>
      </trkpt>
      <trkpt lat="43.06088" lon="2.21478">
        <ele>172.21</ele>
        <time>2012-12-17T12:43:29Z</time>
      </trkpt>
      <trkpt lat="43.0609" lon="2.21479">
        <ele>172.21</ele>
        <time>2012-12-17T12:43:46Z</time>
      </trkpt>
      <trkpt lat="43.06088" lon="2.21474">
        <ele>170.77</ele>
        <time>2012-12-17T12:44:30Z</time>
      </trkpt>
      <trkpt lat="43.06093" lon="2.21469">
        <ele>171.25</ele>
        <time>2012-12-17T12:47:14Z</time>
      </trkpt>
      <trkpt lat="43.0609" lon="2.21471">
        <ele>172.21</ele>
        <time>2012-12-17T12:47:40Z</time>
      </trkpt>
      <trkpt lat="43.06092" lon="2.21467">
        <ele>171.73</ele>
        <time>2012-12-17T12:49:20Z</time>
      </trkpt>
      <trkpt lat="43.06099" lon="2.21463">
        <ele>172.21</ele>
        <time>2012-12-17T12:49:25Z</time>
      </trkpt>
      <trkpt lat="43.06147" lon="2.2148">
        <ele>171.73</ele>
        <time>2012-12-17T12:49:40Z</time>
      </trkpt>
      <trkpt lat="43.0622" lon="2.21512">
        <ele>170.77</ele>
        <time>2012-12-17T12:49:57Z</time>
      </trkpt>
      <trkpt lat="43.06295" lon="2.21549">
        <ele>170.29</ele>
        <time>2012-12-17T12:50:14Z</time>
      </trkpt>
      <trkpt lat="43.06375" lon="2.21589">
        <ele>169.81</ele>
        <time>2012-12-17T12:50:32Z</time>
      </trkpt>
      <trkpt lat="43.06466" lon="2.21632">
        <ele>169.81</ele>
        <time>2012-12-17T12:50:52Z</time>
      </trkpt>
      <trkpt lat="43.06504" lon="2.21652">
        <ele>169.33</ele>
        <time>2012-12-17T12:51:05Z</time>
      </trkpt>
      <trkpt lat="43.06553" lon="2.21675">
        <ele>169.81</ele>
        <time>2012-12-17T12:51:18Z</time>
      </trkpt>
      <trkpt lat="43.06631" lon="2.21711">
        <ele>169.33</ele>
        <time>2012-12-17T12:51:33Z</time>
      </trkpt>
      <trkpt lat="43.06705" lon="2.21746">
        <ele>169.81</ele>
        <time>2012-12-17T12:51:46Z</time>
      </trkpt>
      <trkpt lat="43.0686" lon="2.21825">
        <ele>169.33</ele>
        <time>2012-12-17T12:52:13Z</time>
      </trkpt>
      <trkpt lat="43.0695" lon="2.21866">
        <ele>170.29</ele>
        <time>2012-12-17T12:52:29Z</time>
      </trkpt>
      <trkpt lat="43.07052" lon="2.21915">
        <ele>169.33</ele>
        <time>2012-12-17T12:52:46Z</time>
      </trkpt>
      <trkpt lat="43.07195" lon="2.21982">
        <ele>168.37</ele>
        <time>2012-12-17T12:53:08Z</time>
      </trkpt>
      <trkpt lat="43.0728" lon="2.2202">
        <ele>167.89</ele>
        <time>2012-12-17T12:53:23Z</time>
      </trkpt>
      <trkpt lat="43.07332" lon="2.22044">
        <ele>167.89</ele>
        <time>2012-12-17T12:53:32Z</time>
      </trkpt>
      <trkpt lat="43.07352" lon="2.22076">
        <ele>166.45</ele>
        <time>2012-12-17T12:53:38Z</time>
      </trkpt>
      <trkpt lat="43.07394" lon="2.22104">
        <ele>166.93</ele>
        <time>2012-12-17T12:53:47Z</time>
      </trkpt>
      <trkpt lat="43.07549" lon="2.22161">
        <ele>167.41</ele>
        <time>2012-12-17T12:54:10Z</time>
      </trkpt>
      <trkpt lat="43.07687" lon="2.22217">
        <ele>166.93</ele>
        <time>2012-12-17T12:54:32Z</time>
      </trkpt>
      <trkpt lat="43.07805" lon="2.22275">
        <ele>165.96</ele>
        <time>2012-12-17T12:54:50Z</time>
      </trkpt>
      <trkpt lat="43.07933" lon="2.22336">
        <ele>165.48</ele>
        <time>2012-12-17T12:55:09Z</time>
      </trkpt>
      <trkpt lat="43.08062" lon="2.22398">
        <ele>165.48</ele>
        <time>2012-12-17T12:55:29Z</time>
      </trkpt>
      <trkpt lat="43.08182" lon="2.22455">
        <ele>164.52</ele>
        <time>2012-12-17T12:55:47Z</time>
      </trkpt>
      <trkpt lat="43.08284" lon="2.22506">
        <ele>164.04</ele>
        <time>2012-12-17T12:56:02Z</time>
      </trkpt>
      <trkpt lat="43.08353" lon="2.22539">
        <ele>163.08</ele>
        <time>2012-12-17T12:56:13Z</time>
      </trkpt>
      <trkpt lat="43.08462" lon="2.22582">
        <ele>163.08</ele>
        <time>2012-12-17T12:56:31Z</time>
      </trkpt>
      <trkpt lat="43.08498" lon="2.22592">
        <ele>162.6</ele>
        <time>2012-12-17T12:56:37Z</time>
      </trkpt>
      <trkpt lat="43.08552" lon="2.22614">
        <ele>161.64</ele>
        <time>2012-12-17T12:56:46Z</time>
      </trkpt>
      <trkpt lat="43.08659" lon="2.2268">
        <ele>159.72</ele>
        <time>2012-12-17T12:57:02Z</time>
      </trkpt>
      <trkpt lat="43.08741" lon="2.22722">
        <ele>158.75</ele>
        <time>2012-12-17T12:57:14Z</time>
      </trkpt>
      <trkpt lat="43.08841" lon="2.22771">
        <ele>158.75</ele>
        <time>2012-12-17T12:57:29Z</time>
      </trkpt>
      <trkpt lat="43.08958" lon="2.2283">
        <ele>158.27</ele>
        <time>2012-12-17T12:57:48Z</time>
      </trkpt>
      <trkpt lat="43.09032" lon="2.22866">
        <ele>158.27</ele>
        <time>2012-12-17T12:58:01Z</time>
      </trkpt>
      <trkpt lat="43.09115" lon="2.22905">
        <ele>157.79</ele>
        <time>2012-12-17T12:58:15Z</time>
      </trkpt>
      <trkpt lat="43.09212" lon="2.22952">
        <ele>157.31</ele>
        <time>2012-12-17T12:58:32Z</time>
      </trkpt>
      <trkpt lat="43.09294" lon="2.22981">
        <ele>157.31</ele>
        <time>2012-12-17T12:58:46Z</time>
      </trkpt>
      <trkpt lat="43.09318" lon="2.22983">
        <ele>157.31</ele>
        <time>2012-12-17T12:58:50Z</time>
      </trkpt>
      <trkpt lat="43.09348" lon="2.22998">
        <ele>157.31</ele>
        <time>2012-12-17T12:58:56Z</time>
      </trkpt>
      <trkpt lat="43.09374" lon="2.22995">
        <ele>157.31</ele>
        <time>2012-12-17T12:59:01Z</time>
      </trkpt>
      <trkpt lat="43.09451" lon="2.23021">
        <ele>157.31</ele>
        <time>2012-12-17T12:59:16Z</time>
      </trkpt>
      <trkpt lat="43.09581" lon="2.23087">
        <ele>158.75</ele>
        <time>2012-12-17T12:59:44Z</time>
      </trkpt>
      <trkpt lat="43.09674" lon="2.23193">
        <ele>158.75</ele>
        <time>2012-12-17T13:00:07Z</time>
      </trkpt>
      <trkpt lat="43.09736" lon="2.23353">
        <ele>157.79</ele>
        <time>2012-12-17T13:00:29Z</time>
      </trkpt>
      <trkpt lat="43.09805" lon="2.23595">
        <ele>157.31</ele>
        <time>2012-12-17T13:00:59Z</time>
      </trkpt>
      <trkpt lat="43.09926" lon="2.23925">
        <ele>155.87</ele>
        <time>2012-12-17T13:01:41Z</time>
      </trkpt>
      <trkpt lat="43.1004" lon="2.24231">
        <ele>154.91</ele>
        <time>2012-12-17T13:02:18Z</time>
      </trkpt>
      <trkpt lat="43.10178" lon="2.246">
        <ele>156.35</ele>
        <time>2012-12-17T13:03:00Z</time>
      </trkpt>
      <trkpt lat="43.10277" lon="2.24864">
        <ele>153.95</ele>
        <time>2012-12-17T13:03:29Z</time>
      </trkpt>
      <trkpt lat="43.10358" lon="2.25006">
        <ele>153.47</ele>
        <time>2012-12-17T13:03:47Z</time>
      </trkpt>
      <trkpt lat="43.10437" lon="2.25065">
        <ele>154.43</ele>
        <time>2012-12-17T13:04:01Z</time>
      </trkpt>
      <trkpt lat="43.10474" lon="2.25113">
        <ele>154.91</ele>
        <time>2012-12-17T13:04:10Z</time>
      </trkpt>
      <trkpt lat="43.10488" lon="2.25148">
        <ele>153.95</ele>
        <time>2012-12-17T13:04:18Z</time>
      </trkpt>
      <trkpt lat="43.10495" lon="2.25131">
        <ele>154.43</ele>
        <time>2012-12-17T13:04:25Z</time>
      </trkpt>
      <trkpt lat="43.10492" lon="2.25118">
        <ele>154.91</ele>
        <time>2012-12-17T13:04:27Z</time>
      </trkpt>
      <trkpt lat="43.10497" lon="2.25067">
        <ele>155.39</ele>
        <time>2012-12-17T13:04:35Z</time>
      </trkpt>
      <trkpt lat="43.10512" lon="2.25089">
        <ele>152.99</ele>
        <time>2012-12-17T13:04:41Z</time>
      </trkpt>
      <trkpt lat="43.10511" lon="2.25097">
        <ele>152.99</ele>
        <time>2012-12-17T13:04:42Z</time>
      </trkpt>
      <trkpt lat="43.10511" lon="2.25143">
        <ele>153.47</ele>
        <time>2012-12-17T13:04:48Z</time>
      </trkpt>
      <trkpt lat="43.10516" lon="2.25169">
        <ele>153.95</ele>
        <time>2012-12-17T13:04:51Z</time>
      </trkpt>
      <trkpt lat="43.1055" lon="2.2531">
        <ele>153.95</ele>
        <time>2012-12-17T13:05:07Z</time>
      </trkpt>
      <trkpt lat="43.1058" lon="2.25443">
        <ele>154.43</ele>
        <time>2012-12-17T13:05:21Z</time>
      </trkpt>
      <trkpt lat="43.10608" lon="2.2557">
        <ele>155.87</ele>
        <time>2012-12-17T13:05:36Z</time>
      </trkpt>
      <trkpt lat="43.10648" lon="2.25688">
        <ele>157.79</ele>
        <time>2012-12-17T13:05:52Z</time>
      </trkpt>
      <trkpt lat="43.10698" lon="2.25822">
        <ele>156.83</ele>
        <time>2012-12-17T13:06:09Z</time>
      </trkpt>
      <trkpt lat="43.10791" lon="2.26041">
        <ele>155.39</ele>
        <time>2012-12-17T13:06:35Z</time>
      </trkpt>
      <trkpt lat="43.10898" lon="2.26314">
        <ele>152.51</ele>
        <time>2012-12-17T13:07:06Z</time>
      </trkpt>
      <trkpt lat="43.11005" lon="2.26612">
        <ele>151.06</ele>
        <time>2012-12-17T13:07:40Z</time>
      </trkpt>
      <trkpt lat="43.11054" lon="2.2675">
        <ele>151.06</ele>
        <time>2012-12-17T13:07:57Z</time>
      </trkpt>
      <trkpt lat="43.11131" lon="2.26967">
        <ele>151.06</ele>
        <time>2012-12-17T13:08:24Z</time>
      </trkpt>
      <trkpt lat="43.11168" lon="2.27063">
        <ele>150.58</ele>
        <time>2012-12-17T13:08:40Z</time>
      </trkpt>
      <trkpt lat="43.11169" lon="2.27062">
        <ele>150.58</ele>
        <time>2012-12-17T13:08:52Z</time>
      </trkpt>
      <trkpt lat="43.11168" lon="2.27068">
        <ele>150.1</ele>
        <time>2012-12-17T13:09:20Z</time>
      </trkpt>
      <trkpt lat="43.11169" lon="2.27096">
        <ele>150.58</ele>
        <time>2012-12-17T13:09:33Z</time>
      </trkpt>
      <trkpt lat="43.1117" lon="2.27097">
        <ele>149.62</ele>
        <time>2012-12-17T13:09:46Z</time>
      </trkpt>
      <trkpt lat="43.11168" lon="2.27106">
        <ele>150.58</ele>
        <time>2012-12-17T13:10:00Z</time>
      </trkpt>
      <trkpt lat="43.11168" lon="2.27107">
        <ele>151.06</ele>
        <time>2012-12-17T13:10:18Z</time>
      </trkpt>
      <trkpt lat="43.1119" lon="2.27164">
        <ele>151.06</ele>
        <time>2012-12-17T13:10:31Z</time>
      </trkpt>
      <trkpt lat="43.11261" lon="2.27303">
        <ele>151.06</ele>
        <time>2012-12-17T13:10:53Z</time>
      </trkpt>
      <trkpt lat="43.11335" lon="2.27432">
        <ele>150.1</ele>
        <time>2012-12-17T13:11:13Z</time>
      </trkpt>
      <trkpt lat="43.11376" lon="2.27519">
        <ele>149.62</ele>
        <time>2012-12-17T13:11:25Z</time>
      </trkpt>
      <trkpt lat="43.11419" lon="2.27611">
        <ele>149.14</ele>
        <time>2012-12-17T13:11:38Z</time>
      </trkpt>
      <trkpt lat="43.11471" lon="2.277">
        <ele>149.14</ele>
        <time>2012-12-17T13:11:51Z</time>
      </trkpt>
      <trkpt lat="43.11535" lon="2.27799">
        <ele>149.62</ele>
        <time>2012-12-17T13:12:06Z</time>
      </trkpt>
      <trkpt lat="43.11575" lon="2.27872">
        <ele>148.66</ele>
        <time>2012-12-17T13:12:17Z</time>
      </trkpt>
      <trkpt lat="43.11585" lon="2.27894">
        <ele>148.66</ele>
        <time>2012-12-17T13:12:20Z</time>
      </trkpt>
      <trkpt lat="43.11599" lon="2.27932">
        <ele>148.18</ele>
        <time>2012-12-17T13:12:25Z</time>
      </trkpt>
      <trkpt lat="43.11642" lon="2.28049">
        <ele>148.18</ele>
        <time>2012-12-17T13:12:40Z</time>
      </trkpt>
      <trkpt lat="43.11692" lon="2.28182">
        <ele>147.7</ele>
        <time>2012-12-17T13:12:57Z</time>
      </trkpt>
      <trkpt lat="43.11722" lon="2.28313">
        <ele>147.7</ele>
        <time>2012-12-17T13:13:13Z</time>
      </trkpt>
      <trkpt lat="43.11779" lon="2.28487">
        <ele>146.26</ele>
        <time>2012-12-17T13:13:35Z</time>
      </trkpt>
      <trkpt lat="43.1185" lon="2.28607">
        <ele>145.78</ele>
        <time>2012-12-17T13:13:52Z</time>
      </trkpt>
      <trkpt lat="43.11951" lon="2.28772">
        <ele>145.78</ele>
        <time>2012-12-17T13:14:16Z</time>
      </trkpt>
      <trkpt lat="43.12032" lon="2.289">
        <ele>145.78</ele>
        <time>2012-12-17T13:14:33Z</time>
      </trkpt>
      <trkpt lat="43.12118" lon="2.29032">
        <ele>145.3</ele>
        <time>2012-12-17T13:14:51Z</time>
      </trkpt>
      <trkpt lat="43.12203" lon="2.29162">
        <ele>144.34</ele>
        <time>2012-12-17T13:15:10Z</time>
      </trkpt>
      <trkpt lat="43.12247" lon="2.29231">
        <ele>143.85</ele>
        <time>2012-12-17T13:15:19Z</time>
      </trkpt>
      <trkpt lat="43.12317" lon="2.29342">
        <ele>141.45</ele>
        <time>2012-12-17T13:15:33Z</time>
      </trkpt>
      <trkpt lat="43.12429" lon="2.29576">
        <ele>140.01</ele>
        <time>2012-12-17T13:15:59Z</time>
      </trkpt>
      <trkpt lat="43.12557" lon="2.29867">
        <ele>137.61</ele>
        <time>2012-12-17T13:16:30Z</time>
      </trkpt>
      <trkpt lat="43.12665" lon="2.30075">
        <ele>137.61</ele>
        <time>2012-12-17T13:16:55Z</time>
      </trkpt>
      <trkpt lat="43.12745" lon="2.30125">
        <ele>137.61</ele>
        <time>2012-12-17T13:17:08Z</time>
      </trkpt>
      <trkpt lat="43.12793" lon="2.3013">
        <ele>137.61</ele>
        <time>2012-12-17T13:17:15Z</time>
      </trkpt>
      <trkpt lat="43.12897" lon="2.30084">
        <ele>136.16</ele>
        <time>2012-12-17T13:17:31Z</time>
      </trkpt>
      <trkpt lat="43.13034" lon="2.29988">
        <ele>136.64</ele>
        <time>2012-12-17T13:17:57Z</time>
      </trkpt>
      <trkpt lat="43.1315" lon="2.29913">
        <ele>139.53</ele>
        <time>2012-12-17T13:18:26Z</time>
      </trkpt>
      <trkpt lat="43.13251" lon="2.29881">
        <ele>140.97</ele>
        <time>2012-12-17T13:18:53Z</time>
      </trkpt>
      <trkpt lat="43.13353" lon="2.29891">
        <ele>140.01</ele>
        <time>2012-12-17T13:19:16Z</time>
      </trkpt>
      <trkpt lat="43.13458" lon="2.29929">
        <ele>140.97</ele>
        <time>2012-12-17T13:19:40Z</time>
      </trkpt>
      <trkpt lat="43.136" lon="2.29979">
        <ele>140.97</ele>
        <time>2012-12-17T13:20:10Z</time>
      </trkpt>
      <trkpt lat="43.13613" lon="2.29985">
        <ele>140.97</ele>
        <time>2012-12-17T13:20:13Z</time>
      </trkpt>
      <trkpt lat="43.13677" lon="2.30017">
        <ele>142.41</ele>
        <time>2012-12-17T13:20:30Z</time>
      </trkpt>
      <trkpt lat="43.13739" lon="2.30037">
        <ele>143.85</ele>
        <time>2012-12-17T13:20:48Z</time>
      </trkpt>
      <trkpt lat="43.13809" lon="2.30069">
        <ele>145.78</ele>
        <time>2012-12-17T13:21:09Z</time>
      </trkpt>
      <trkpt lat="43.13871" lon="2.3009">
        <ele>147.22</ele>
        <time>2012-12-17T13:21:24Z</time>
      </trkpt>
      <trkpt lat="43.13972" lon="2.30081">
        <ele>146.26</ele>
        <time>2012-12-17T13:21:43Z</time>
      </trkpt>
      <trkpt lat="43.14075" lon="2.30009">
        <ele>143.85</ele>
        <time>2012-12-17T13:22:02Z</time>
      </trkpt>
      <trkpt lat="43.14148" lon="2.29889">
        <ele>141.93</ele>
        <time>2012-12-17T13:22:21Z</time>
      </trkpt>
      <trkpt lat="43.14195" lon="2.29788">
        <ele>140.97</ele>
        <time>2012-12-17T13:22:40Z</time>
      </trkpt>
      <trkpt lat="43.14258" lon="2.29655">
        <ele>140.01</ele>
        <time>2012-12-17T13:23:05Z</time>
      </trkpt>
      <trkpt lat="43.1433" lon="2.29506">
        <ele>138.09</ele>
        <time>2012-12-17T13:23:33Z</time>
      </trkpt>
      <trkpt lat="43.14417" lon="2.29358">
        <ele>135.2</ele>
        <time>2012-12-17T13:24:01Z</time>
      </trkpt>
      <trkpt lat="43.14518" lon="2.29289">
        <ele>134.72</ele>
        <time>2012-12-17T13:24:22Z</time>
      </trkpt>
      <trkpt lat="43.14654" lon="2.29227">
        <ele>133.76</ele>
        <time>2012-12-17T13:24:50Z</time>
      </trkpt>
      <trkpt lat="43.14752" lon="2.2918">
        <ele>130.4</ele>
        <time>2012-12-17T13:25:11Z</time>
      </trkpt>
      <trkpt lat="43.14871" lon="2.2912">
        <ele>130.4</ele>
        <time>2012-12-17T13:25:36Z</time>
      </trkpt>
      <trkpt lat="43.14967" lon="2.29073">
        <ele>130.88</ele>
        <time>2012-12-17T13:25:58Z</time>
      </trkpt>
      <trkpt lat="43.15093" lon="2.29013">
        <ele>132.8</ele>
        <time>2012-12-17T13:26:28Z</time>
      </trkpt>
      <trkpt lat="43.15212" lon="2.28957">
        <ele>132.8</ele>
        <time>2012-12-17T13:26:57Z</time>
      </trkpt>
      <trkpt lat="43.15326" lon="2.28951">
        <ele>132.8</ele>
        <time>2012-12-17T13:27:19Z</time>
      </trkpt>
      <trkpt lat="43.15442" lon="2.29009">
        <ele>131.36</ele>
        <time>2012-12-17T13:27:41Z</time>
      </trkpt>
      <trkpt lat="43.1559" lon="2.291">
        <ele>129.43</ele>
        <time>2012-12-17T13:28:04Z</time>
      </trkpt>
      <trkpt lat="43.15716" lon="2.29178">
        <ele>129.92</ele>
        <time>2012-12-17T13:28:25Z</time>
      </trkpt>
      <trkpt lat="43.15846" lon="2.29261">
        <ele>129.92</ele>
        <time>2012-12-17T13:28:50Z</time>
      </trkpt>
      <trkpt lat="43.15932" lon="2.29351">
        <ele>132.32</ele>
        <time>2012-12-17T13:29:12Z</time>
      </trkpt>
      <trkpt lat="43.15991" lon="2.29461">
        <ele>132.8</ele>
        <time>2012-12-17T13:29:33Z</time>
      </trkpt>
      <trkpt lat="43.16026" lon="2.29589">
        <ele>132.8</ele>
        <time>2012-12-17T13:29:53Z</time>
      </trkpt>
      <trkpt lat="43.16047" lon="2.29722">
        <ele>133.28</ele>
        <time>2012-12-17T13:30:09Z</time>
      </trkpt>
      <trkpt lat="43.16085" lon="2.2989">
        <ele>135.2</ele>
        <time>2012-12-17T13:30:30Z</time>
      </trkpt>
      <trkpt lat="43.16145" lon="2.29978">
        <ele>135.68</ele>
        <time>2012-12-17T13:30:44Z</time>
      </trkpt>
      <trkpt lat="43.16242" lon="2.30035">
        <ele>134.24</ele>
        <time>2012-12-17T13:31:00Z</time>
      </trkpt>
      <trkpt lat="43.16357" lon="2.30092">
        <ele>133.28</ele>
        <time>2012-12-17T13:31:18Z</time>
      </trkpt>
      <trkpt lat="43.16497" lon="2.3016">
        <ele>130.88</ele>
        <time>2012-12-17T13:31:41Z</time>
      </trkpt>
      <trkpt lat="43.16591" lon="2.3017">
        <ele>130.4</ele>
        <time>2012-12-17T13:31:55Z</time>
      </trkpt>
      <trkpt lat="43.16682" lon="2.30112">
        <ele>128.95</ele>
        <time>2012-12-17T13:32:11Z</time>
      </trkpt>
      <trkpt lat="43.16755" lon="2.30048">
        <ele>127.99</ele>
        <time>2012-12-17T13:32:25Z</time>
      </trkpt>
      <trkpt lat="43.16807" lon="2.30028">
        <ele>127.51</ele>
        <time>2012-12-17T13:32:33Z</time>
      </trkpt>
      <trkpt lat="43.16861" lon="2.30023">
        <ele>126.55</ele>
        <time>2012-12-17T13:32:41Z</time>
      </trkpt>
      <trkpt lat="43.16929" lon="2.30023">
        <ele>125.59</ele>
        <time>2012-12-17T13:32:52Z</time>
      </trkpt>
      <trkpt lat="43.17025" lon="2.30074">
        <ele>124.15</ele>
        <time>2012-12-17T13:33:09Z</time>
      </trkpt>
      <trkpt lat="43.17083" lon="2.30138">
        <ele>123.67</ele>
        <time>2012-12-17T13:33:23Z</time>
      </trkpt>
      <trkpt lat="43.17086" lon="2.30143">
        <ele>123.67</ele>
        <time>2012-12-17T13:33:24Z</time>
      </trkpt>
      <trkpt lat="43.17111" lon="2.302">
        <ele>122.71</ele>
        <time>2012-12-17T13:33:38Z</time>
      </trkpt>
      <trkpt lat="43.17114" lon="2.30203">
        <ele>121.26</ele>
        <time>2012-12-17T13:33:52Z</time>
      </trkpt>
      <trkpt lat="43.17117" lon="2.30204">
        <ele>121.26</ele>
        <time>2012-12-17T13:35:45Z</time>
      </trkpt>
      <trkpt lat="43.17118" lon="2.30206">
        <ele>121.26</ele>
        <time>2012-12-17T13:35:46Z</time>
      </trkpt>
      <trkpt lat="43.17128" lon="2.30214">
        <ele>121.26</ele>
        <time>2012-12-17T13:35:50Z</time>
      </trkpt>
      <trkpt lat="43.17156" lon="2.3023">
        <ele>122.22</ele>
        <time>2012-12-17T13:36:03Z</time>
      </trkpt>
      <trkpt lat="43.17196" lon="2.30234">
        <ele>121.26</ele>
        <time>2012-12-17T13:36:15Z</time>
      </trkpt>
      <trkpt lat="43.17231" lon="2.30224">
        <ele>121.74</ele>
        <time>2012-12-17T13:36:26Z</time>
      </trkpt>
      <trkpt lat="43.17235" lon="2.30224">
        <ele>121.74</ele>
        <time>2012-12-17T13:36:27Z</time>
      </trkpt>
      <trkpt lat="43.17262" lon="2.30224">
        <ele>121.74</ele>
        <time>2012-12-17T13:36:33Z</time>
      </trkpt>
      <trkpt lat="43.17342" lon="2.30262">
        <ele>122.22</ele>
        <time>2012-12-17T13:36:51Z</time>
      </trkpt>
      <trkpt lat="43.17413" lon="2.30334">
        <ele>123.19</ele>
        <time>2012-12-17T13:37:09Z</time>
      </trkpt>
      <trkpt lat="43.175" lon="2.30369">
        <ele>121.26</ele>
        <time>2012-12-17T13:37:24Z</time>
      </trkpt>
      <trkpt lat="43.1772" lon="2.30452">
        <ele>119.34</ele>
        <time>2012-12-17T13:37:58Z</time>
      </trkpt>
      <trkpt lat="43.17889" lon="2.30516">
        <ele>119.34</ele>
        <time>2012-12-17T13:38:25Z</time>
      </trkpt>
      <trkpt lat="43.18054" lon="2.30577">
        <ele>117.9</ele>
        <time>2012-12-17T13:38:52Z</time>
      </trkpt>
      <trkpt lat="43.18228" lon="2.30642">
        <ele>118.38</ele>
        <time>2012-12-17T13:39:20Z</time>
      </trkpt>
      <trkpt lat="43.18395" lon="2.30705">
        <ele>116.94</ele>
        <time>2012-12-17T13:39:47Z</time>
      </trkpt>
      <trkpt lat="43.18515" lon="2.30754">
        <ele>117.9</ele>
        <time>2012-12-17T13:40:07Z</time>
      </trkpt>
      <trkpt lat="43.18542" lon="2.30765">
        <ele>118.86</ele>
        <time>2012-12-17T13:40:12Z</time>
      </trkpt>
      <trkpt lat="43.18638" lon="2.30827">
        <ele>118.38</ele>
        <time>2012-12-17T13:40:30Z</time>
      </trkpt>
      <trkpt lat="43.18721" lon="2.30929">
        <ele>118.86</ele>
        <time>2012-12-17T13:40:48Z</time>
      </trkpt>
      <trkpt lat="43.18846" lon="2.31098">
        <ele>119.34</ele>
        <time>2012-12-17T13:41:16Z</time>
      </trkpt>
      <trkpt lat="43.18912" lon="2.31214">
        <ele>118.38</ele>
        <time>2012-12-17T13:41:34Z</time>
      </trkpt>
      <trkpt lat="43.18955" lon="2.31323">
        <ele>117.9</ele>
        <time>2012-12-17T13:41:48Z</time>
      </trkpt>
      <trkpt lat="43.18978" lon="2.31384">
        <ele>118.86</ele>
        <time>2012-12-17T13:41:56Z</time>
      </trkpt>
      <trkpt lat="43.18988" lon="2.31458">
        <ele>118.86</ele>
        <time>2012-12-17T13:42:06Z</time>
      </trkpt>
      <trkpt lat="43.18992" lon="2.31463">
        <ele>119.34</ele>
        <time>2012-12-17T13:42:07Z</time>
      </trkpt>
      <trkpt lat="43.19014" lon="2.31471">
        <ele>119.82</ele>
        <time>2012-12-17T13:42:11Z</time>
      </trkpt>
      <trkpt lat="43.19048" lon="2.31454">
        <ele>120.78</ele>
        <time>2012-12-17T13:42:18Z</time>
      </trkpt>
      <trkpt lat="43.19134" lon="2.3149">
        <ele>119.82</ele>
        <time>2012-12-17T13:42:35Z</time>
      </trkpt>
      <trkpt lat="43.19227" lon="2.31575">
        <ele>121.74</ele>
        <time>2012-12-17T13:42:59Z</time>
      </trkpt>
      <trkpt lat="43.19272" lon="2.31642">
        <ele>122.71</ele>
        <time>2012-12-17T13:43:12Z</time>
      </trkpt>
      <trkpt lat="43.19318" lon="2.31738">
        <ele>124.63</ele>
        <time>2012-12-17T13:43:30Z</time>
      </trkpt>
      <trkpt lat="43.19376" lon="2.319">
        <ele>127.99</ele>
        <time>2012-12-17T13:44:00Z</time>
      </trkpt>
      <trkpt lat="43.19419" lon="2.32028">
        <ele>130.88</ele>
        <time>2012-12-17T13:44:24Z</time>
      </trkpt>
      <trkpt lat="43.19471" lon="2.3213">
        <ele>134.24</ele>
        <time>2012-12-17T13:44:46Z</time>
      </trkpt>
      <trkpt lat="43.19557" lon="2.32202">
        <ele>135.2</ele>
        <time>2012-12-17T13:45:09Z</time>
      </trkpt>
      <trkpt lat="43.19602" lon="2.32221">
        <ele>135.2</ele>
        <time>2012-12-17T13:45:20Z</time>
      </trkpt>
      <trkpt lat="43.19617" lon="2.32234">
        <ele>134.72</ele>
        <time>2012-12-17T13:45:24Z</time>
      </trkpt>
      <trkpt lat="43.19634" lon="2.32243">
        <ele>134.72</ele>
        <time>2012-12-17T13:45:28Z</time>
      </trkpt>
      <trkpt lat="43.19698" lon="2.32303">
        <ele>132.8</ele>
        <time>2012-12-17T13:45:43Z</time>
      </trkpt>
      <trkpt lat="43.19764" lon="2.32393">
        <ele>129.92</ele>
        <time>2012-12-17T13:45:56Z</time>
      </trkpt>
      <trkpt lat="43.19818" lon="2.32504">
        <ele>127.03</ele>
        <time>2012-12-17T13:46:08Z</time>
      </trkpt>
      <trkpt lat="43.19845" lon="2.32564">
        <ele>124.15</ele>
        <time>2012-12-17T13:46:14Z</time>
      </trkpt>
      <trkpt lat="43.19871" lon="2.32626">
        <ele>120.78</ele>
        <time>2012-12-17T13:46:20Z</time>
      </trkpt>
      <trkpt lat="43.19944" lon="2.32745">
        <ele>117.42</ele>
        <time>2012-12-17T13:46:32Z</time>
      </trkpt>
      <trkpt lat="43.19971" lon="2.32783">
        <ele>115.5</ele>
        <time>2012-12-17T13:46:36Z</time>
      </trkpt>
      <trkpt lat="43.20063" lon="2.32898">
        <ele>113.57</ele>
        <time>2012-12-17T13:46:50Z</time>
      </trkpt>
      <trkpt lat="43.20132" lon="2.32946">
        <ele>112.13</ele>
        <time>2012-12-17T13:47:01Z</time>
      </trkpt>
      <trkpt lat="43.20155" lon="2.32971">
        <ele>111.65</ele>
        <time>2012-12-17T13:47:12Z</time>
      </trkpt>
      <trkpt lat="43.20168" lon="2.32982">
        <ele>112.13</ele>
        <time>2012-12-17T13:47:22Z</time>
      </trkpt>
      <trkpt lat="43.20164" lon="2.3299">
        <ele>112.13</ele>
        <time>2012-12-17T13:47:26Z</time>
      </trkpt>
      <trkpt lat="43.20149" lon="2.32983">
        <ele>110.69</ele>
        <time>2012-12-17T13:47:41Z</time>
      </trkpt>
      <trkpt lat="43.20149" lon="2.32979">
        <ele>111.17</ele>
        <time>2012-12-17T13:48:46Z</time>
      </trkpt>
    </trkseg>
  </trk>
  <trk>
    <name><![CDATA[ACTIVE LOG: 18 DEC 2012 09:02]]></name>
    <trkseg>
      <trkpt lat="43.19047" lon="2.31328">
        <ele>72.72</ele>
        <time>2012-12-18T08:02:32Z</time>
      </trkpt>
      <trkpt lat="43.19049" lon="2.31328">
        <ele>73.68</ele>
        <time>2012-12-18T08:03:24Z</time>
      </trkpt>
      <trkpt lat="43.19049" lon="2.31328">
        <ele>76.56</ele>
        <time>2012-12-18T08:05:14Z</time>
      </trkpt>
      <trkpt lat="43.19049" lon="2.31328">
        <ele>78</ele>
        <time>2012-12-18T08:06:30Z</time>
      </trkpt>
      <trkpt lat="43.19049" lon="2.31328">
        <ele>78</ele>
        <time>2012-12-18T08:06:58Z</time>
      </trkpt>
      <trkpt lat="43.19035" lon="2.31352">
        <ele>78</ele>
        <time>2012-12-18T08:07:09Z</time>
      </trkpt>
      <trkpt lat="43.19035" lon="2.31356">
        <ele>78</ele>
        <time>2012-12-18T08:07:10Z</time>
      </trkpt>
      <trkpt lat="43.19016" lon="2.31386">
        <ele>78</ele>
        <time>2012-12-18T08:07:20Z</time>
      </trkpt>
      <trkpt lat="43.19013" lon="2.31386">
        <ele>78</ele>
        <time>2012-12-18T08:07:21Z</time>
      </trkpt>
      <trkpt lat="43.18981" lon="2.31357">
        <ele>78.48</ele>
        <time>2012-12-18T08:07:32Z</time>
      </trkpt>
      <trkpt lat="43.18944" lon="2.31276">
        <ele>78</ele>
        <time>2012-12-18T08:07:49Z</time>
      </trkpt>
      <trkpt lat="43.18902" lon="2.31177">
        <ele>80.89</ele>
        <time>2012-12-18T08:08:07Z</time>
      </trkpt>
      <trkpt lat="43.18812" lon="2.31041">
        <ele>79.93</ele>
        <time>2012-12-18T08:08:33Z</time>
      </trkpt>
      <trkpt lat="43.18699" lon="2.30892">
        <ele>79.93</ele>
        <time>2012-12-18T08:09:02Z</time>
      </trkpt>
      <trkpt lat="43.18601" lon="2.30782">
        <ele>80.41</ele>
        <time>2012-12-18T08:09:27Z</time>
      </trkpt>
      <trkpt lat="43.18514" lon="2.30744">
        <ele>80.89</ele>
        <time>2012-12-18T08:09:44Z</time>
      </trkpt>
      <trkpt lat="43.1841" lon="2.30704">
        <ele>80.41</ele>
        <time>2012-12-18T08:10:04Z</time>
      </trkpt>
      <trkpt lat="43.18332" lon="2.30674">
        <ele>80.41</ele>
        <time>2012-12-18T08:10:20Z</time>
      </trkpt>
      <trkpt lat="43.18229" lon="2.30637">
        <ele>81.37</ele>
        <time>2012-12-18T08:10:39Z</time>
      </trkpt>
      <trkpt lat="43.18089" lon="2.30584">
        <ele>81.85</ele>
        <time>2012-12-18T08:11:06Z</time>
      </trkpt>
      <trkpt lat="43.17963" lon="2.30537">
        <ele>82.81</ele>
        <time>2012-12-18T08:11:30Z</time>
      </trkpt>
      <trkpt lat="43.17871" lon="2.30501">
        <ele>82.81</ele>
        <time>2012-12-18T08:11:49Z</time>
      </trkpt>
      <trkpt lat="43.17781" lon="2.30468">
        <ele>82.81</ele>
        <time>2012-12-18T08:12:07Z</time>
      </trkpt>
      <trkpt lat="43.17678" lon="2.30428">
        <ele>83.77</ele>
        <time>2012-12-18T08:12:27Z</time>
      </trkpt>
      <trkpt lat="43.17553" lon="2.30381">
        <ele>85.21</ele>
        <time>2012-12-18T08:12:52Z</time>
      </trkpt>
      <trkpt lat="43.17419" lon="2.30328">
        <ele>87.14</ele>
        <time>2012-12-18T08:13:18Z</time>
      </trkpt>
      <trkpt lat="43.17382" lon="2.30297">
        <ele>88.1</ele>
        <time>2012-12-18T08:13:26Z</time>
      </trkpt>
      <trkpt lat="43.17329" lon="2.30241">
        <ele>88.1</ele>
        <time>2012-12-18T08:13:38Z</time>
      </trkpt>
      <trkpt lat="43.17239" lon="2.30213">
        <ele>88.1</ele>
        <time>2012-12-18T08:13:54Z</time>
      </trkpt>
      <trkpt lat="43.17129" lon="2.30182">
        <ele>88.58</ele>
        <time>2012-12-18T08:14:13Z</time>
      </trkpt>
      <trkpt lat="43.17103" lon="2.30154">
        <ele>87.14</ele>
        <time>2012-12-18T08:14:19Z</time>
      </trkpt>
      <trkpt lat="43.17041" lon="2.30081">
        <ele>88.1</ele>
        <time>2012-12-18T08:14:34Z</time>
      </trkpt>
      <trkpt lat="43.17015" lon="2.30062">
        <ele>87.14</ele>
        <time>2012-12-18T08:14:40Z</time>
      </trkpt>
      <trkpt lat="43.16932" lon="2.30009">
        <ele>89.06</ele>
        <time>2012-12-18T08:14:57Z</time>
      </trkpt>
      <trkpt lat="43.16848" lon="2.29992">
        <ele>90.98</ele>
        <time>2012-12-18T08:15:16Z</time>
      </trkpt>
      <trkpt lat="43.16801" lon="2.29984">
        <ele>93.87</ele>
        <time>2012-12-18T08:15:30Z</time>
      </trkpt>
      <trkpt lat="43.16761" lon="2.29969">
        <ele>95.79</ele>
        <time>2012-12-18T08:15:44Z</time>
      </trkpt>
      <trkpt lat="43.16711" lon="2.29946">
        <ele>97.71</ele>
        <time>2012-12-18T08:15:59Z</time>
      </trkpt>
      <trkpt lat="43.16666" lon="2.2992">
        <ele>100.6</ele>
        <time>2012-12-18T08:16:15Z</time>
      </trkpt>
      <trkpt lat="43.16624" lon="2.29896">
        <ele>103.48</ele>
        <time>2012-12-18T08:16:30Z</time>
      </trkpt>
      <trkpt lat="43.16544" lon="2.29852">
        <ele>105.88</ele>
        <time>2012-12-18T08:16:54Z</time>
      </trkpt>
      <trkpt lat="43.16437" lon="2.29791">
        <ele>107.32</ele>
        <time>2012-12-18T08:17:21Z</time>
      </trkpt>
      <trkpt lat="43.16299" lon="2.29712">
        <ele>108.29</ele>
        <time>2012-12-18T08:17:53Z</time>
      </trkpt>
      <trkpt lat="43.16169" lon="2.2964">
        <ele>110.69</ele>
        <time>2012-12-18T08:18:22Z</time>
      </trkpt>
      <trkpt lat="43.16123" lon="2.29609">
        <ele>108.77</ele>
        <time>2012-12-18T08:18:32Z</time>
      </trkpt>
      <trkpt lat="43.1604" lon="2.29517">
        <ele>106.36</ele>
        <time>2012-12-18T08:18:48Z</time>
      </trkpt>
      <trkpt lat="43.16" lon="2.29452">
        <ele>103</ele>
        <time>2012-12-18T08:18:55Z</time>
      </trkpt>
      <trkpt lat="43.15994" lon="2.29442">
        <ele>103</ele>
        <time>2012-12-18T08:18:56Z</time>
      </trkpt>
      <trkpt lat="43.15902" lon="2.29304">
        <ele>99.63</ele>
        <time>2012-12-18T08:19:13Z</time>
      </trkpt>
      <trkpt lat="43.158" lon="2.29222">
        <ele>99.15</ele>
        <time>2012-12-18T08:19:29Z</time>
      </trkpt>
      <trkpt lat="43.15657" lon="2.29132">
        <ele>98.19</ele>
        <time>2012-12-18T08:19:51Z</time>
      </trkpt>
      <trkpt lat="43.15645" lon="2.29125">
        <ele>99.15</ele>
        <time>2012-12-18T08:19:53Z</time>
      </trkpt>
      <trkpt lat="43.15488" lon="2.29028">
        <ele>98.67</ele>
        <time>2012-12-18T08:20:23Z</time>
      </trkpt>
      <trkpt lat="43.15359" lon="2.28954">
        <ele>101.08</ele>
        <time>2012-12-18T08:20:51Z</time>
      </trkpt>
      <trkpt lat="43.15277" lon="2.28937">
        <ele>101.08</ele>
        <time>2012-12-18T08:21:08Z</time>
      </trkpt>
      <trkpt lat="43.15164" lon="2.28968">
        <ele>100.6</ele>
        <time>2012-12-18T08:21:29Z</time>
      </trkpt>
      <trkpt lat="43.15043" lon="2.29026">
        <ele>99.63</ele>
        <time>2012-12-18T08:21:49Z</time>
      </trkpt>
      <trkpt lat="43.14789" lon="2.29149">
        <ele>98.67</ele>
        <time>2012-12-18T08:22:29Z</time>
      </trkpt>
      <trkpt lat="43.14669" lon="2.29208">
        <ele>100.6</ele>
        <time>2012-12-18T08:22:51Z</time>
      </trkpt>
      <trkpt lat="43.14508" lon="2.29288">
        <ele>103.96</ele>
        <time>2012-12-18T08:23:22Z</time>
      </trkpt>
      <trkpt lat="43.14398" lon="2.29371">
        <ele>105.4</ele>
        <time>2012-12-18T08:23:45Z</time>
      </trkpt>
      <trkpt lat="43.14321" lon="2.29508">
        <ele>106.84</ele>
        <time>2012-12-18T08:24:09Z</time>
      </trkpt>
      <trkpt lat="43.14214" lon="2.29723">
        <ele>109.25</ele>
        <time>2012-12-18T08:24:43Z</time>
      </trkpt>
      <trkpt lat="43.14099" lon="2.29957">
        <ele>110.21</ele>
        <time>2012-12-18T08:25:17Z</time>
      </trkpt>
      <trkpt lat="43.14026" lon="2.30041">
        <ele>111.17</ele>
        <time>2012-12-18T08:25:35Z</time>
      </trkpt>
      <trkpt lat="43.14009" lon="2.30052">
        <ele>113.09</ele>
        <time>2012-12-18T08:25:39Z</time>
      </trkpt>
      <trkpt lat="43.1394" lon="2.30081">
        <ele>116.46</ele>
        <time>2012-12-18T08:25:55Z</time>
      </trkpt>
      <trkpt lat="43.13848" lon="2.30076">
        <ele>116.46</ele>
        <time>2012-12-18T08:26:15Z</time>
      </trkpt>
      <trkpt lat="43.13736" lon="2.30026">
        <ele>115.5</ele>
        <time>2012-12-18T08:26:36Z</time>
      </trkpt>
      <trkpt lat="43.1361" lon="2.29971">
        <ele>112.61</ele>
        <time>2012-12-18T08:26:55Z</time>
      </trkpt>
      <trkpt lat="43.13486" lon="2.29927">
        <ele>113.09</ele>
        <time>2012-12-18T08:27:13Z</time>
      </trkpt>
      <trkpt lat="43.13409" lon="2.29901">
        <ele>113.57</ele>
        <time>2012-12-18T08:27:26Z</time>
      </trkpt>
      <trkpt lat="43.13303" lon="2.2987">
        <ele>113.09</ele>
        <time>2012-12-18T08:27:44Z</time>
      </trkpt>
      <trkpt lat="43.132" lon="2.29881">
        <ele>112.61</ele>
        <time>2012-12-18T08:28:01Z</time>
      </trkpt>
      <trkpt lat="43.13107" lon="2.2993">
        <ele>111.17</ele>
        <time>2012-12-18T08:28:16Z</time>
      </trkpt>
      <trkpt lat="43.12991" lon="2.30006">
        <ele>109.25</ele>
        <time>2012-12-18T08:28:33Z</time>
      </trkpt>
      <trkpt lat="43.1286" lon="2.30091">
        <ele>109.25</ele>
        <time>2012-12-18T08:28:53Z</time>
      </trkpt>
      <trkpt lat="43.12765" lon="2.30121">
        <ele>107.32</ele>
        <time>2012-12-18T08:29:08Z</time>
      </trkpt>
      <trkpt lat="43.12667" lon="2.3007">
        <ele>108.77</ele>
        <time>2012-12-18T08:29:24Z</time>
      </trkpt>
      <trkpt lat="43.12608" lon="2.29972">
        <ele>109.73</ele>
        <time>2012-12-18T08:29:40Z</time>
      </trkpt>
      <trkpt lat="43.12546" lon="2.29835">
        <ele>110.21</ele>
        <time>2012-12-18T08:30:02Z</time>
      </trkpt>
      <trkpt lat="43.12465" lon="2.29653">
        <ele>110.21</ele>
        <time>2012-12-18T08:30:33Z</time>
      </trkpt>
      <trkpt lat="43.12386" lon="2.29472">
        <ele>111.65</ele>
        <time>2012-12-18T08:31:05Z</time>
      </trkpt>
      <trkpt lat="43.1234" lon="2.29374">
        <ele>114.53</ele>
        <time>2012-12-18T08:31:23Z</time>
      </trkpt>
      <trkpt lat="43.12273" lon="2.29249">
        <ele>116.46</ele>
        <time>2012-12-18T08:31:46Z</time>
      </trkpt>
      <trkpt lat="43.12215" lon="2.29161">
        <ele>117.9</ele>
        <time>2012-12-18T08:32:04Z</time>
      </trkpt>
      <trkpt lat="43.12167" lon="2.29087">
        <ele>118.86</ele>
        <time>2012-12-18T08:32:19Z</time>
      </trkpt>
      <trkpt lat="43.12128" lon="2.29026">
        <ele>119.34</ele>
        <time>2012-12-18T08:32:31Z</time>
      </trkpt>
      <trkpt lat="43.1208" lon="2.2895">
        <ele>119.34</ele>
        <time>2012-12-18T08:32:46Z</time>
      </trkpt>
      <trkpt lat="43.12034" lon="2.28879">
        <ele>119.82</ele>
        <time>2012-12-18T08:33:01Z</time>
      </trkpt>
      <trkpt lat="43.12028" lon="2.28864">
        <ele>120.3</ele>
        <time>2012-12-18T08:33:04Z</time>
      </trkpt>
      <trkpt lat="43.11959" lon="2.28761">
        <ele>120.78</ele>
        <time>2012-12-18T08:33:24Z</time>
      </trkpt>
      <trkpt lat="43.11885" lon="2.28644">
        <ele>120.78</ele>
        <time>2012-12-18T08:33:46Z</time>
      </trkpt>
      <trkpt lat="43.11813" lon="2.2851">
        <ele>121.26</ele>
        <time>2012-12-18T08:34:12Z</time>
      </trkpt>
      <trkpt lat="43.11804" lon="2.28495">
        <ele>120.78</ele>
        <time>2012-12-18T08:34:15Z</time>
      </trkpt>
      <trkpt lat="43.11794" lon="2.28482">
        <ele>120.78</ele>
        <time>2012-12-18T08:34:18Z</time>
      </trkpt>
      <trkpt lat="43.11782" lon="2.28462">
        <ele>120.78</ele>
        <time>2012-12-18T08:34:22Z</time>
      </trkpt>
      <trkpt lat="43.11744" lon="2.28358">
        <ele>121.74</ele>
        <time>2012-12-18T08:34:41Z</time>
      </trkpt>
      <trkpt lat="43.11706" lon="2.28195">
        <ele>123.19</ele>
        <time>2012-12-18T08:35:07Z</time>
      </trkpt>
      <trkpt lat="43.11689" lon="2.28151">
        <ele>123.67</ele>
        <time>2012-12-18T08:35:14Z</time>
      </trkpt>
      <trkpt lat="43.11654" lon="2.28062">
        <ele>123.67</ele>
        <time>2012-12-18T08:35:29Z</time>
      </trkpt>
      <trkpt lat="43.11637" lon="2.28018">
        <ele>124.15</ele>
        <time>2012-12-18T08:35:36Z</time>
      </trkpt>
      <trkpt lat="43.11604" lon="2.27922">
        <ele>124.63</ele>
        <time>2012-12-18T08:35:51Z</time>
      </trkpt>
      <trkpt lat="43.11598" lon="2.27903">
        <ele>124.63</ele>
        <time>2012-12-18T08:35:54Z</time>
      </trkpt>
      <trkpt lat="43.11587" lon="2.27879">
        <ele>124.63</ele>
        <time>2012-12-18T08:35:58Z</time>
      </trkpt>
      <trkpt lat="43.11571" lon="2.27849">
        <ele>125.59</ele>
        <time>2012-12-18T08:36:03Z</time>
      </trkpt>
      <trkpt lat="43.11518" lon="2.27769">
        <ele>125.59</ele>
        <time>2012-12-18T08:36:18Z</time>
      </trkpt>
      <trkpt lat="43.11455" lon="2.27681">
        <ele>126.07</ele>
        <time>2012-12-18T08:36:35Z</time>
      </trkpt>
      <trkpt lat="43.1141" lon="2.27593">
        <ele>126.55</ele>
        <time>2012-12-18T08:36:50Z</time>
      </trkpt>
      <trkpt lat="43.11359" lon="2.27473">
        <ele>127.03</ele>
        <time>2012-12-18T08:37:09Z</time>
      </trkpt>
      <trkpt lat="43.11315" lon="2.27392">
        <ele>127.99</ele>
        <time>2012-12-18T08:37:24Z</time>
      </trkpt>
      <trkpt lat="43.11277" lon="2.27329">
        <ele>128.47</ele>
        <time>2012-12-18T08:37:37Z</time>
      </trkpt>
      <trkpt lat="43.11224" lon="2.27229">
        <ele>127.99</ele>
        <time>2012-12-18T08:37:56Z</time>
      </trkpt>
      <trkpt lat="43.11184" lon="2.27121">
        <ele>127.99</ele>
        <time>2012-12-18T08:38:17Z</time>
      </trkpt>
      <trkpt lat="43.11161" lon="2.27039">
        <ele>128.47</ele>
        <time>2012-12-18T08:38:34Z</time>
      </trkpt>
      <trkpt lat="43.11153" lon="2.2702">
        <ele>128.47</ele>
        <time>2012-12-18T08:38:38Z</time>
      </trkpt>
      <trkpt lat="43.11111" lon="2.26906">
        <ele>128.95</ele>
        <time>2012-12-18T08:38:58Z</time>
      </trkpt>
      <trkpt lat="43.11064" lon="2.26776">
        <ele>128.95</ele>
        <time>2012-12-18T08:39:21Z</time>
      </trkpt>
      <trkpt lat="43.11024" lon="2.26665">
        <ele>129.92</ele>
        <time>2012-12-18T08:39:43Z</time>
      </trkpt>
      <trkpt lat="43.10978" lon="2.26533">
        <ele>129.92</ele>
        <time>2012-12-18T08:40:06Z</time>
      </trkpt>
      <trkpt lat="43.10916" lon="2.2636">
        <ele>130.4</ele>
        <time>2012-12-18T08:40:40Z</time>
      </trkpt>
      <trkpt lat="43.10862" lon="2.26216">
        <ele>130.88</ele>
        <time>2012-12-18T08:41:09Z</time>
      </trkpt>
      <trkpt lat="43.10811" lon="2.26088">
        <ele>132.32</ele>
        <time>2012-12-18T08:41:35Z</time>
      </trkpt>
      <trkpt lat="43.10754" lon="2.25953">
        <ele>133.76</ele>
        <time>2012-12-18T08:42:04Z</time>
      </trkpt>
      <trkpt lat="43.1068" lon="2.25778">
        <ele>136.16</ele>
        <time>2012-12-18T08:42:41Z</time>
      </trkpt>
      <trkpt lat="43.10635" lon="2.25654">
        <ele>136.16</ele>
        <time>2012-12-18T08:43:05Z</time>
      </trkpt>
      <trkpt lat="43.10622" lon="2.25613">
        <ele>136.16</ele>
        <time>2012-12-18T08:43:12Z</time>
      </trkpt>
      <trkpt lat="43.10613" lon="2.25573">
        <ele>136.16</ele>
        <time>2012-12-18T08:43:18Z</time>
      </trkpt>
      <trkpt lat="43.10609" lon="2.25546">
        <ele>135.68</ele>
        <time>2012-12-18T08:43:22Z</time>
      </trkpt>
      <trkpt lat="43.10575" lon="2.25409">
        <ele>134.24</ele>
        <time>2012-12-18T08:43:41Z</time>
      </trkpt>
      <trkpt lat="43.10554" lon="2.2531">
        <ele>133.76</ele>
        <time>2012-12-18T08:43:56Z</time>
      </trkpt>
      <trkpt lat="43.10529" lon="2.25219">
        <ele>134.24</ele>
        <time>2012-12-18T08:44:12Z</time>
      </trkpt>
      <trkpt lat="43.10511" lon="2.2512">
        <ele>133.76</ele>
        <time>2012-12-18T08:44:31Z</time>
      </trkpt>
      <trkpt lat="43.1051" lon="2.25113">
        <ele>133.28</ele>
        <time>2012-12-18T08:44:32Z</time>
      </trkpt>
      <trkpt lat="43.105" lon="2.25064">
        <ele>132.8</ele>
        <time>2012-12-18T08:44:42Z</time>
      </trkpt>
      <trkpt lat="43.10496" lon="2.25063">
        <ele>132.8</ele>
        <time>2012-12-18T08:44:43Z</time>
      </trkpt>
      <trkpt lat="43.10484" lon="2.25047">
        <ele>133.76</ele>
        <time>2012-12-18T08:44:48Z</time>
      </trkpt>
      <trkpt lat="43.10471" lon="2.24965">
        <ele>133.28</ele>
        <time>2012-12-18T08:45:02Z</time>
      </trkpt>
      <trkpt lat="43.10448" lon="2.2485">
        <ele>133.28</ele>
        <time>2012-12-18T08:45:23Z</time>
      </trkpt>
      <trkpt lat="43.10414" lon="2.24711">
        <ele>134.24</ele>
        <time>2012-12-18T08:45:49Z</time>
      </trkpt>
      <trkpt lat="43.10382" lon="2.24657">
        <ele>135.2</ele>
        <time>2012-12-18T08:46:02Z</time>
      </trkpt>
      <trkpt lat="43.10347" lon="2.24585">
        <ele>135.68</ele>
        <time>2012-12-18T08:46:18Z</time>
      </trkpt>
      <trkpt lat="43.10304" lon="2.24494">
        <ele>135.68</ele>
        <time>2012-12-18T08:46:38Z</time>
      </trkpt>
      <trkpt lat="43.10299" lon="2.24484">
        <ele>135.68</ele>
        <time>2012-12-18T08:46:40Z</time>
      </trkpt>
      <trkpt lat="43.10278" lon="2.24449">
        <ele>134.72</ele>
        <time>2012-12-18T08:46:47Z</time>
      </trkpt>
      <trkpt lat="43.10262" lon="2.24414">
        <ele>135.2</ele>
        <time>2012-12-18T08:46:53Z</time>
      </trkpt>
      <trkpt lat="43.10214" lon="2.24326">
        <ele>134.24</ele>
        <time>2012-12-18T08:47:09Z</time>
      </trkpt>
      <trkpt lat="43.10189" lon="2.24291">
        <ele>134.72</ele>
        <time>2012-12-18T08:47:16Z</time>
      </trkpt>
      <trkpt lat="43.10159" lon="2.24235">
        <ele>133.76</ele>
        <time>2012-12-18T08:47:26Z</time>
      </trkpt>
      <trkpt lat="43.10102" lon="2.24113">
        <ele>134.72</ele>
        <time>2012-12-18T08:47:48Z</time>
      </trkpt>
      <trkpt lat="43.10044" lon="2.23997">
        <ele>135.68</ele>
        <time>2012-12-18T08:48:10Z</time>
      </trkpt>
      <trkpt lat="43.10003" lon="2.23898">
        <ele>135.68</ele>
        <time>2012-12-18T08:48:27Z</time>
      </trkpt>
      <trkpt lat="43.09957" lon="2.23792">
        <ele>135.2</ele>
        <time>2012-12-18T08:48:45Z</time>
      </trkpt>
      <trkpt lat="43.09919" lon="2.23706">
        <ele>136.16</ele>
        <time>2012-12-18T08:49:01Z</time>
      </trkpt>
      <trkpt lat="43.09876" lon="2.2361">
        <ele>135.2</ele>
        <time>2012-12-18T08:49:19Z</time>
      </trkpt>
      <trkpt lat="43.0983" lon="2.2351">
        <ele>135.2</ele>
        <time>2012-12-18T08:49:38Z</time>
      </trkpt>
      <trkpt lat="43.09795" lon="2.23433">
        <ele>134.24</ele>
        <time>2012-12-18T08:49:55Z</time>
      </trkpt>
      <trkpt lat="43.09758" lon="2.23354">
        <ele>135.2</ele>
        <time>2012-12-18T08:50:10Z</time>
      </trkpt>
      <trkpt lat="43.09718" lon="2.23232">
        <ele>135.68</ele>
        <time>2012-12-18T08:50:32Z</time>
      </trkpt>
      <trkpt lat="43.09655" lon="2.23116">
        <ele>137.13</ele>
        <time>2012-12-18T08:50:55Z</time>
      </trkpt>
      <trkpt lat="43.09581" lon="2.23048">
        <ele>138.57</ele>
        <time>2012-12-18T08:51:14Z</time>
      </trkpt>
      <trkpt lat="43.09507" lon="2.23015">
        <ele>138.09</ele>
        <time>2012-12-18T08:51:30Z</time>
      </trkpt>
      <trkpt lat="43.09489" lon="2.23011">
        <ele>137.13</ele>
        <time>2012-12-18T08:51:33Z</time>
      </trkpt>
      <trkpt lat="43.09405" lon="2.22962">
        <ele>135.68</ele>
        <time>2012-12-18T08:51:50Z</time>
      </trkpt>
      <trkpt lat="43.0939" lon="2.22942">
        <ele>136.16</ele>
        <time>2012-12-18T08:51:54Z</time>
      </trkpt>
      <trkpt lat="43.09374" lon="2.22934">
        <ele>136.16</ele>
        <time>2012-12-18T08:51:58Z</time>
      </trkpt>
      <trkpt lat="43.09353" lon="2.22933">
        <ele>137.13</ele>
        <time>2012-12-18T08:52:03Z</time>
      </trkpt>
      <trkpt lat="43.0933" lon="2.22944">
        <ele>136.64</ele>
        <time>2012-12-18T08:52:09Z</time>
      </trkpt>
      <trkpt lat="43.09277" lon="2.22967">
        <ele>135.2</ele>
        <time>2012-12-18T08:52:20Z</time>
      </trkpt>
      <trkpt lat="43.09195" lon="2.22932">
        <ele>136.16</ele>
        <time>2012-12-18T08:52:37Z</time>
      </trkpt>
      <trkpt lat="43.09121" lon="2.22895">
        <ele>136.64</ele>
        <time>2012-12-18T08:52:52Z</time>
      </trkpt>
      <trkpt lat="43.09033" lon="2.22854">
        <ele>136.16</ele>
        <time>2012-12-18T08:53:09Z</time>
      </trkpt>
      <trkpt lat="43.08952" lon="2.22815">
        <ele>136.16</ele>
        <time>2012-12-18T08:53:25Z</time>
      </trkpt>
      <trkpt lat="43.08882" lon="2.22779">
        <ele>136.16</ele>
        <time>2012-12-18T08:53:40Z</time>
      </trkpt>
      <trkpt lat="43.0882" lon="2.22747">
        <ele>137.61</ele>
        <time>2012-12-18T08:53:54Z</time>
      </trkpt>
      <trkpt lat="43.08734" lon="2.22706">
        <ele>137.13</ele>
        <time>2012-12-18T08:54:13Z</time>
      </trkpt>
      <trkpt lat="43.08674" lon="2.22674">
        <ele>138.57</ele>
        <time>2012-12-18T08:54:28Z</time>
      </trkpt>
      <trkpt lat="43.08589" lon="2.22623">
        <ele>140.01</ele>
        <time>2012-12-18T08:54:50Z</time>
      </trkpt>
      <trkpt lat="43.08548" lon="2.22593">
        <ele>140.49</ele>
        <time>2012-12-18T08:55:03Z</time>
      </trkpt>
      <trkpt lat="43.0851" lon="2.22573">
        <ele>141.45</ele>
        <time>2012-12-18T08:55:18Z</time>
      </trkpt>
      <trkpt lat="43.08459" lon="2.22566">
        <ele>142.89</ele>
        <time>2012-12-18T08:55:32Z</time>
      </trkpt>
      <trkpt lat="43.08383" lon="2.22538">
        <ele>141.93</ele>
        <time>2012-12-18T08:55:50Z</time>
      </trkpt>
      <trkpt lat="43.08313" lon="2.22503">
        <ele>141.93</ele>
        <time>2012-12-18T08:56:07Z</time>
      </trkpt>
      <trkpt lat="43.08257" lon="2.22474">
        <ele>142.41</ele>
        <time>2012-12-18T08:56:20Z</time>
      </trkpt>
      <trkpt lat="43.08176" lon="2.22438">
        <ele>142.89</ele>
        <time>2012-12-18T08:56:35Z</time>
      </trkpt>
      <trkpt lat="43.08111" lon="2.224">
        <ele>143.85</ele>
        <time>2012-12-18T08:56:51Z</time>
      </trkpt>
      <trkpt lat="43.08049" lon="2.22372">
        <ele>144.34</ele>
        <time>2012-12-18T08:57:04Z</time>
      </trkpt>
      <trkpt lat="43.07972" lon="2.22335">
        <ele>144.34</ele>
        <time>2012-12-18T08:57:21Z</time>
      </trkpt>
      <trkpt lat="43.07897" lon="2.22302">
        <ele>144.82</ele>
        <time>2012-12-18T08:57:36Z</time>
      </trkpt>
      <trkpt lat="43.07806" lon="2.22263">
        <ele>145.3</ele>
        <time>2012-12-18T08:57:54Z</time>
      </trkpt>
      <trkpt lat="43.07753" lon="2.22237">
        <ele>145.3</ele>
        <time>2012-12-18T08:58:06Z</time>
      </trkpt>
      <trkpt lat="43.07696" lon="2.22208">
        <ele>145.78</ele>
        <time>2012-12-18T08:58:20Z</time>
      </trkpt>
      <trkpt lat="43.07616" lon="2.22169">
        <ele>146.26</ele>
        <time>2012-12-18T08:58:39Z</time>
      </trkpt>
      <trkpt lat="43.07535" lon="2.22147">
        <ele>146.26</ele>
        <time>2012-12-18T08:58:56Z</time>
      </trkpt>
      <trkpt lat="43.07453" lon="2.22122">
        <ele>145.78</ele>
        <time>2012-12-18T08:59:14Z</time>
      </trkpt>
      <trkpt lat="43.07421" lon="2.22104">
        <ele>146.26</ele>
        <time>2012-12-18T08:59:22Z</time>
      </trkpt>
      <trkpt lat="43.07413" lon="2.2207">
        <ele>145.78</ele>
        <time>2012-12-18T08:59:29Z</time>
      </trkpt>
      <trkpt lat="43.07397" lon="2.22016">
        <ele>146.26</ele>
        <time>2012-12-18T08:59:40Z</time>
      </trkpt>
      <trkpt lat="43.07348" lon="2.22025">
        <ele>145.78</ele>
        <time>2012-12-18T08:59:51Z</time>
      </trkpt>
      <trkpt lat="43.07334" lon="2.22023">
        <ele>146.26</ele>
        <time>2012-12-18T08:59:54Z</time>
      </trkpt>
      <trkpt lat="43.07262" lon="2.21985">
        <ele>147.22</ele>
        <time>2012-12-18T09:00:13Z</time>
      </trkpt>
      <trkpt lat="43.07184" lon="2.21949">
        <ele>146.74</ele>
        <time>2012-12-18T09:00:29Z</time>
      </trkpt>
      <trkpt lat="43.07087" lon="2.21902">
        <ele>147.22</ele>
        <time>2012-12-18T09:00:47Z</time>
      </trkpt>
      <trkpt lat="43.07002" lon="2.21863">
        <ele>147.22</ele>
        <time>2012-12-18T09:01:08Z</time>
      </trkpt>
      <trkpt lat="43.06916" lon="2.21826">
        <ele>148.18</ele>
        <time>2012-12-18T09:01:29Z</time>
      </trkpt>
      <trkpt lat="43.06851" lon="2.21792">
        <ele>148.18</ele>
        <time>2012-12-18T09:01:44Z</time>
      </trkpt>
      <trkpt lat="43.0683" lon="2.21783">
        <ele>147.7</ele>
        <time>2012-12-18T09:01:50Z</time>
      </trkpt>
      <trkpt lat="43.06797" lon="2.21779">
        <ele>148.18</ele>
        <time>2012-12-18T09:01:57Z</time>
      </trkpt>
      <trkpt lat="43.06714" lon="2.2174">
        <ele>147.7</ele>
        <time>2012-12-18T09:02:15Z</time>
      </trkpt>
      <trkpt lat="43.06646" lon="2.21707">
        <ele>147.7</ele>
        <time>2012-12-18T09:02:30Z</time>
      </trkpt>
      <trkpt lat="43.06589" lon="2.21675">
        <ele>147.22</ele>
        <time>2012-12-18T09:02:45Z</time>
      </trkpt>
      <trkpt lat="43.06554" lon="2.2166">
        <ele>147.7</ele>
        <time>2012-12-18T09:03:00Z</time>
      </trkpt>
      <trkpt lat="43.06511" lon="2.21638">
        <ele>147.7</ele>
        <time>2012-12-18T09:03:14Z</time>
      </trkpt>
      <trkpt lat="43.06456" lon="2.21611">
        <ele>148.66</ele>
        <time>2012-12-18T09:03:30Z</time>
      </trkpt>
      <trkpt lat="43.06374" lon="2.21573">
        <ele>149.14</ele>
        <time>2012-12-18T09:03:52Z</time>
      </trkpt>
      <trkpt lat="43.0631" lon="2.21538">
        <ele>148.18</ele>
        <time>2012-12-18T09:04:09Z</time>
      </trkpt>
      <trkpt lat="43.06261" lon="2.21517">
        <ele>149.62</ele>
        <time>2012-12-18T09:04:22Z</time>
      </trkpt>
      <trkpt lat="43.06228" lon="2.21502">
        <ele>149.62</ele>
        <time>2012-12-18T09:04:30Z</time>
      </trkpt>
      <trkpt lat="43.06161" lon="2.21468">
        <ele>149.62</ele>
        <time>2012-12-18T09:04:46Z</time>
      </trkpt>
      <trkpt lat="43.06093" lon="2.2144">
        <ele>149.62</ele>
        <time>2012-12-18T09:05:04Z</time>
      </trkpt>
      <trkpt lat="43.06038" lon="2.21403">
        <ele>152.51</ele>
        <time>2012-12-18T09:05:22Z</time>
      </trkpt>
      <trkpt lat="43.05989" lon="2.2138">
        <ele>152.99</ele>
        <time>2012-12-18T09:05:37Z</time>
      </trkpt>
      <trkpt lat="43.0595" lon="2.21374">
        <ele>152.51</ele>
        <time>2012-12-18T09:05:47Z</time>
      </trkpt>
      <trkpt lat="43.05926" lon="2.21371">
        <ele>152.51</ele>
        <time>2012-12-18T09:05:52Z</time>
      </trkpt>
      <trkpt lat="43.05868" lon="2.2136">
        <ele>151.54</ele>
        <time>2012-12-18T09:06:02Z</time>
      </trkpt>
      <trkpt lat="43.05761" lon="2.21349">
        <ele>152.03</ele>
        <time>2012-12-18T09:06:20Z</time>
      </trkpt>
      <trkpt lat="43.05715" lon="2.21361">
        <ele>151.54</ele>
        <time>2012-12-18T09:06:28Z</time>
      </trkpt>
      <trkpt lat="43.05632" lon="2.21342">
        <ele>152.51</ele>
        <time>2012-12-18T09:06:43Z</time>
      </trkpt>
      <trkpt lat="43.05557" lon="2.21326">
        <ele>152.99</ele>
        <time>2012-12-18T09:06:58Z</time>
      </trkpt>
      <trkpt lat="43.05518" lon="2.21318">
        <ele>152.99</ele>
        <time>2012-12-18T09:07:06Z</time>
      </trkpt>
      <trkpt lat="43.05466" lon="2.2129">
        <ele>154.43</ele>
        <time>2012-12-18T09:07:23Z</time>
      </trkpt>
      <trkpt lat="43.05438" lon="2.21288">
        <ele>155.39</ele>
        <time>2012-12-18T09:07:32Z</time>
      </trkpt>
      <trkpt lat="43.05424" lon="2.21316">
        <ele>155.39</ele>
        <time>2012-12-18T09:07:38Z</time>
      </trkpt>
      <trkpt lat="43.05379" lon="2.21358">
        <ele>155.39</ele>
        <time>2012-12-18T09:07:52Z</time>
      </trkpt>
      <trkpt lat="43.0534" lon="2.21395">
        <ele>156.35</ele>
        <time>2012-12-18T09:08:04Z</time>
      </trkpt>
      <trkpt lat="43.05313" lon="2.21446">
        <ele>157.31</ele>
        <time>2012-12-18T09:08:17Z</time>
      </trkpt>
      <trkpt lat="43.05271" lon="2.21511">
        <ele>158.27</ele>
        <time>2012-12-18T09:08:33Z</time>
      </trkpt>
      <trkpt lat="43.05256" lon="2.21536">
        <ele>158.75</ele>
        <time>2012-12-18T09:08:38Z</time>
      </trkpt>
      <trkpt lat="43.05213" lon="2.21606">
        <ele>158.27</ele>
        <time>2012-12-18T09:08:53Z</time>
      </trkpt>
      <trkpt lat="43.05206" lon="2.21615">
        <ele>157.79</ele>
        <time>2012-12-18T09:08:55Z</time>
      </trkpt>
      <trkpt lat="43.05177" lon="2.21656">
        <ele>159.24</ele>
        <time>2012-12-18T09:09:04Z</time>
      </trkpt>
      <trkpt lat="43.05117" lon="2.21735">
        <ele>157.79</ele>
        <time>2012-12-18T09:09:20Z</time>
      </trkpt>
      <trkpt lat="43.05091" lon="2.21767">
        <ele>158.75</ele>
        <time>2012-12-18T09:09:27Z</time>
      </trkpt>
      <trkpt lat="43.0507" lon="2.21803">
        <ele>157.31</ele>
        <time>2012-12-18T09:09:34Z</time>
      </trkpt>
      <trkpt lat="43.05021" lon="2.21857">
        <ele>157.31</ele>
        <time>2012-12-18T09:09:49Z</time>
      </trkpt>
      <trkpt lat="43.04969" lon="2.21927">
        <ele>157.79</ele>
        <time>2012-12-18T09:10:05Z</time>
      </trkpt>
      <trkpt lat="43.04911" lon="2.21994">
        <ele>157.79</ele>
        <time>2012-12-18T09:10:21Z</time>
      </trkpt>
      <trkpt lat="43.04839" lon="2.22034">
        <ele>158.75</ele>
        <time>2012-12-18T09:10:40Z</time>
      </trkpt>
      <trkpt lat="43.04768" lon="2.22057">
        <ele>159.72</ele>
        <time>2012-12-18T09:10:59Z</time>
      </trkpt>
      <trkpt lat="43.04721" lon="2.22069">
        <ele>160.68</ele>
        <time>2012-12-18T09:11:12Z</time>
      </trkpt>
      <trkpt lat="43.04655" lon="2.22088">
        <ele>162.12</ele>
        <time>2012-12-18T09:11:28Z</time>
      </trkpt>
      <trkpt lat="43.04636" lon="2.22098">
        <ele>161.16</ele>
        <time>2012-12-18T09:11:33Z</time>
      </trkpt>
      <trkpt lat="43.0461" lon="2.22117">
        <ele>160.2</ele>
        <time>2012-12-18T09:11:40Z</time>
      </trkpt>
      <trkpt lat="43.04598" lon="2.22124">
        <ele>161.16</ele>
        <time>2012-12-18T09:11:43Z</time>
      </trkpt>
      <trkpt lat="43.04576" lon="2.22133">
        <ele>160.2</ele>
        <time>2012-12-18T09:11:48Z</time>
      </trkpt>
      <trkpt lat="43.04527" lon="2.22136">
        <ele>162.12</ele>
        <time>2012-12-18T09:12:03Z</time>
      </trkpt>
      <trkpt lat="43.04488" lon="2.22121">
        <ele>164.04</ele>
        <time>2012-12-18T09:12:18Z</time>
      </trkpt>
      <trkpt lat="43.04449" lon="2.22085">
        <ele>165.48</ele>
        <time>2012-12-18T09:12:33Z</time>
      </trkpt>
      <trkpt lat="43.04423" lon="2.22056">
        <ele>167.41</ele>
        <time>2012-12-18T09:12:46Z</time>
      </trkpt>
      <trkpt lat="43.04393" lon="2.22018">
        <ele>169.33</ele>
        <time>2012-12-18T09:13:00Z</time>
      </trkpt>
      <trkpt lat="43.04363" lon="2.21961">
        <ele>172.21</ele>
        <time>2012-12-18T09:13:15Z</time>
      </trkpt>
      <trkpt lat="43.04334" lon="2.21896">
        <ele>172.69</ele>
        <time>2012-12-18T09:13:34Z</time>
      </trkpt>
      <trkpt lat="43.04308" lon="2.21839">
        <ele>175.58</ele>
        <time>2012-12-18T09:13:50Z</time>
      </trkpt>
      <trkpt lat="43.04274" lon="2.21772">
        <ele>177.98</ele>
        <time>2012-12-18T09:14:09Z</time>
      </trkpt>
      <trkpt lat="43.04233" lon="2.2173">
        <ele>178.94</ele>
        <time>2012-12-18T09:14:25Z</time>
      </trkpt>
      <trkpt lat="43.04194" lon="2.21685">
        <ele>178.94</ele>
        <time>2012-12-18T09:14:39Z</time>
      </trkpt>
      <trkpt lat="43.04146" lon="2.21618">
        <ele>181.35</ele>
        <time>2012-12-18T09:14:55Z</time>
      </trkpt>
      <trkpt lat="43.04118" lon="2.21583">
        <ele>180.87</ele>
        <time>2012-12-18T09:15:03Z</time>
      </trkpt>
      <trkpt lat="43.04083" lon="2.2156">
        <ele>180.87</ele>
        <time>2012-12-18T09:15:11Z</time>
      </trkpt>
      <trkpt lat="43.04068" lon="2.21556">
        <ele>180.38</ele>
        <time>2012-12-18T09:15:14Z</time>
      </trkpt>
      <trkpt lat="43.04045" lon="2.2154">
        <ele>179.9</ele>
        <time>2012-12-18T09:15:19Z</time>
      </trkpt>
      <trkpt lat="43.04031" lon="2.21523">
        <ele>180.38</ele>
        <time>2012-12-18T09:15:23Z</time>
      </trkpt>
      <trkpt lat="43.04002" lon="2.21463">
        <ele>181.83</ele>
        <time>2012-12-18T09:15:34Z</time>
      </trkpt>
      <trkpt lat="43.03968" lon="2.21396">
        <ele>182.31</ele>
        <time>2012-12-18T09:15:48Z</time>
      </trkpt>
      <trkpt lat="43.03928" lon="2.21326">
        <ele>185.67</ele>
        <time>2012-12-18T09:16:04Z</time>
      </trkpt>
      <trkpt lat="43.03877" lon="2.21271">
        <ele>187.59</ele>
        <time>2012-12-18T09:16:23Z</time>
      </trkpt>
      <trkpt lat="43.03848" lon="2.21218">
        <ele>187.59</ele>
        <time>2012-12-18T09:16:38Z</time>
      </trkpt>
      <trkpt lat="43.03843" lon="2.21203">
        <ele>189.04</ele>
        <time>2012-12-18T09:16:42Z</time>
      </trkpt>
      <trkpt lat="43.03803" lon="2.21149">
        <ele>190</ele>
        <time>2012-12-18T09:17:00Z</time>
      </trkpt>
      <trkpt lat="43.03758" lon="2.21128">
        <ele>190</ele>
        <time>2012-12-18T09:17:13Z</time>
      </trkpt>
      <trkpt lat="43.0369" lon="2.21108">
        <ele>190.48</ele>
        <time>2012-12-18T09:17:29Z</time>
      </trkpt>
      <trkpt lat="43.03636" lon="2.21096">
        <ele>190</ele>
        <time>2012-12-18T09:17:41Z</time>
      </trkpt>
      <trkpt lat="43.03606" lon="2.21076">
        <ele>190.48</ele>
        <time>2012-12-18T09:17:49Z</time>
      </trkpt>
      <trkpt lat="43.03541" lon="2.21004">
        <ele>191.44</ele>
        <time>2012-12-18T09:18:10Z</time>
      </trkpt>
      <trkpt lat="43.03499" lon="2.20929">
        <ele>193.84</ele>
        <time>2012-12-18T09:18:29Z</time>
      </trkpt>
      <trkpt lat="43.03465" lon="2.20835">
        <ele>193.36</ele>
        <time>2012-12-18T09:18:49Z</time>
      </trkpt>
      <trkpt lat="43.03432" lon="2.20752">
        <ele>194.32</ele>
        <time>2012-12-18T09:19:07Z</time>
      </trkpt>
      <trkpt lat="43.03393" lon="2.20666">
        <ele>194.8</ele>
        <time>2012-12-18T09:19:27Z</time>
      </trkpt>
      <trkpt lat="43.03352" lon="2.20563">
        <ele>195.28</ele>
        <time>2012-12-18T09:19:51Z</time>
      </trkpt>
      <trkpt lat="43.03324" lon="2.20492">
        <ele>196.73</ele>
        <time>2012-12-18T09:20:07Z</time>
      </trkpt>
      <trkpt lat="43.03284" lon="2.20419">
        <ele>197.21</ele>
        <time>2012-12-18T09:20:25Z</time>
      </trkpt>
      <trkpt lat="43.03246" lon="2.20361">
        <ele>196.25</ele>
        <time>2012-12-18T09:20:39Z</time>
      </trkpt>
      <trkpt lat="43.0322" lon="2.20338">
        <ele>196.73</ele>
        <time>2012-12-18T09:20:46Z</time>
      </trkpt>
      <trkpt lat="43.03166" lon="2.20308">
        <ele>197.21</ele>
        <time>2012-12-18T09:21:02Z</time>
      </trkpt>
      <trkpt lat="43.03122" lon="2.20293">
        <ele>197.69</ele>
        <time>2012-12-18T09:21:18Z</time>
      </trkpt>
      <trkpt lat="43.03064" lon="2.20271">
        <ele>197.21</ele>
        <time>2012-12-18T09:21:41Z</time>
      </trkpt>
      <trkpt lat="43.03032" lon="2.20264">
        <ele>200.57</ele>
        <time>2012-12-18T09:21:55Z</time>
      </trkpt>
      <trkpt lat="43.02997" lon="2.20252">
        <ele>203.94</ele>
        <time>2012-12-18T09:22:12Z</time>
      </trkpt>
      <trkpt lat="43.02996" lon="2.2025">
        <ele>203.94</ele>
        <time>2012-12-18T09:22:13Z</time>
      </trkpt>
      <trkpt lat="43.02962" lon="2.20236">
        <ele>205.86</ele>
        <time>2012-12-18T09:22:32Z</time>
      </trkpt>
      <trkpt lat="43.02931" lon="2.20227">
        <ele>208.74</ele>
        <time>2012-12-18T09:22:49Z</time>
      </trkpt>
      <trkpt lat="43.02903" lon="2.20218">
        <ele>208.26</ele>
        <time>2012-12-18T09:23:04Z</time>
      </trkpt>
      <trkpt lat="43.0287" lon="2.20205">
        <ele>211.15</ele>
        <time>2012-12-18T09:23:22Z</time>
      </trkpt>
      <trkpt lat="43.02839" lon="2.20191">
        <ele>214.03</ele>
        <time>2012-12-18T09:23:40Z</time>
      </trkpt>
      <trkpt lat="43.02816" lon="2.20182">
        <ele>214.51</ele>
        <time>2012-12-18T09:23:54Z</time>
      </trkpt>
      <trkpt lat="43.02792" lon="2.20176">
        <ele>216.43</ele>
        <time>2012-12-18T09:24:07Z</time>
      </trkpt>
      <trkpt lat="43.02768" lon="2.20175">
        <ele>218.36</ele>
        <time>2012-12-18T09:24:21Z</time>
      </trkpt>
      <trkpt lat="43.02715" lon="2.20191">
        <ele>221.24</ele>
        <time>2012-12-18T09:24:48Z</time>
      </trkpt>
      <trkpt lat="43.02707" lon="2.20196">
        <ele>222.68</ele>
        <time>2012-12-18T09:24:53Z</time>
      </trkpt>
      <trkpt lat="43.02679" lon="2.20228">
        <ele>223.64</ele>
        <time>2012-12-18T09:25:13Z</time>
      </trkpt>
      <trkpt lat="43.02659" lon="2.20272">
        <ele>226.53</ele>
        <time>2012-12-18T09:25:33Z</time>
      </trkpt>
      <trkpt lat="43.02647" lon="2.20332">
        <ele>228.93</ele>
        <time>2012-12-18T09:25:58Z</time>
      </trkpt>
      <trkpt lat="43.02641" lon="2.20357">
        <ele>231.33</ele>
        <time>2012-12-18T09:26:16Z</time>
      </trkpt>
      <trkpt lat="43.02641" lon="2.20358">
        <ele>230.85</ele>
        <time>2012-12-18T09:27:01Z</time>
      </trkpt>
      <trkpt lat="43.02641" lon="2.20358">
        <ele>232.78</ele>
        <time>2012-12-18T09:30:45Z</time>
      </trkpt>
      <trkpt lat="43.02638" lon="2.20362">
        <ele>235.18</ele>
        <time>2012-12-18T09:38:28Z</time>
      </trkpt>
      <trkpt lat="43.02639" lon="2.20366">
        <ele>236.14</ele>
        <time>2012-12-18T09:39:49Z</time>
      </trkpt>
      <trkpt lat="43.02636" lon="2.20381">
        <ele>236.62</ele>
        <time>2012-12-18T09:39:56Z</time>
      </trkpt>
      <trkpt lat="43.02628" lon="2.20418">
        <ele>238.06</ele>
        <time>2012-12-18T09:40:12Z</time>
      </trkpt>
      <trkpt lat="43.02615" lon="2.20473">
        <ele>240.47</ele>
        <time>2012-12-18T09:40:38Z</time>
      </trkpt>
      <trkpt lat="43.02601" lon="2.20541">
        <ele>243.35</ele>
        <time>2012-12-18T09:41:09Z</time>
      </trkpt>
      <trkpt lat="43.02576" lon="2.20589">
        <ele>246.72</ele>
        <time>2012-12-18T09:41:32Z</time>
      </trkpt>
      <trkpt lat="43.0253" lon="2.20613">
        <ele>246.72</ele>
        <time>2012-12-18T09:41:50Z</time>
      </trkpt>
      <trkpt lat="43.02507" lon="2.20631">
        <ele>248.16</ele>
        <time>2012-12-18T09:41:57Z</time>
      </trkpt>
      <trkpt lat="43.02494" lon="2.20687">
        <ele>245.75</ele>
        <time>2012-12-18T09:42:06Z</time>
      </trkpt>
      <trkpt lat="43.02497" lon="2.2071">
        <ele>245.27</ele>
        <time>2012-12-18T09:42:09Z</time>
      </trkpt>
      <trkpt lat="43.02478" lon="2.20752">
        <ele>243.83</ele>
        <time>2012-12-18T09:42:16Z</time>
      </trkpt>
      <trkpt lat="43.02467" lon="2.2075">
        <ele>244.31</ele>
        <time>2012-12-18T09:42:18Z</time>
      </trkpt>
      <trkpt lat="43.02428" lon="2.20737">
        <ele>245.27</ele>
        <time>2012-12-18T09:42:25Z</time>
      </trkpt>
      <trkpt lat="43.02389" lon="2.20703">
        <ele>243.83</ele>
        <time>2012-12-18T09:42:33Z</time>
      </trkpt>
      <trkpt lat="43.02352" lon="2.20711">
        <ele>241.91</ele>
        <time>2012-12-18T09:42:40Z</time>
      </trkpt>
      <trkpt lat="43.02348" lon="2.20729">
        <ele>240.95</ele>
        <time>2012-12-18T09:42:42Z</time>
      </trkpt>
      <trkpt lat="43.02344" lon="2.20747">
        <ele>240.47</ele>
        <time>2012-12-18T09:42:44Z</time>
      </trkpt>
      <trkpt lat="43.02299" lon="2.20826">
        <ele>238.54</ele>
        <time>2012-12-18T09:42:54Z</time>
      </trkpt>
      <trkpt lat="43.02251" lon="2.20841">
        <ele>236.62</ele>
        <time>2012-12-18T09:43:01Z</time>
      </trkpt>
      <trkpt lat="43.02195" lon="2.2082">
        <ele>234.22</ele>
        <time>2012-12-18T09:43:09Z</time>
      </trkpt>
      <trkpt lat="43.02113" lon="2.20751">
        <ele>234.7</ele>
        <time>2012-12-18T09:43:23Z</time>
      </trkpt>
      <trkpt lat="43.02037" lon="2.2071">
        <ele>232.78</ele>
        <time>2012-12-18T09:43:36Z</time>
      </trkpt>
      <trkpt lat="43.01957" lon="2.20648">
        <ele>233.26</ele>
        <time>2012-12-18T09:43:52Z</time>
      </trkpt>
      <trkpt lat="43.01934" lon="2.20641">
        <ele>232.78</ele>
        <time>2012-12-18T09:43:56Z</time>
      </trkpt>
      <trkpt lat="43.01905" lon="2.20636">
        <ele>232.78</ele>
        <time>2012-12-18T09:44:01Z</time>
      </trkpt>
      <trkpt lat="43.01821" lon="2.20581">
        <ele>232.3</ele>
        <time>2012-12-18T09:44:18Z</time>
      </trkpt>
      <trkpt lat="43.01806" lon="2.20571">
        <ele>231.81</ele>
        <time>2012-12-18T09:44:21Z</time>
      </trkpt>
      <trkpt lat="43.01711" lon="2.20542">
        <ele>229.89</ele>
        <time>2012-12-18T09:44:38Z</time>
      </trkpt>
      <trkpt lat="43.01619" lon="2.20483">
        <ele>229.89</ele>
        <time>2012-12-18T09:44:56Z</time>
      </trkpt>
      <trkpt lat="43.01567" lon="2.20447">
        <ele>227.49</ele>
        <time>2012-12-18T09:45:05Z</time>
      </trkpt>
      <trkpt lat="43.01495" lon="2.20402">
        <ele>228.93</ele>
        <time>2012-12-18T09:45:19Z</time>
      </trkpt>
      <trkpt lat="43.01455" lon="2.20371">
        <ele>231.81</ele>
        <time>2012-12-18T09:45:36Z</time>
      </trkpt>
      <trkpt lat="43.01405" lon="2.20369">
        <ele>233.26</ele>
        <time>2012-12-18T09:45:52Z</time>
      </trkpt>
      <trkpt lat="43.0136" lon="2.20402">
        <ele>234.7</ele>
        <time>2012-12-18T09:46:07Z</time>
      </trkpt>
      <trkpt lat="43.01348" lon="2.20408">
        <ele>234.22</ele>
        <time>2012-12-18T09:46:10Z</time>
      </trkpt>
      <trkpt lat="43.01313" lon="2.20396">
        <ele>233.74</ele>
        <time>2012-12-18T09:46:18Z</time>
      </trkpt>
      <trkpt lat="43.01239" lon="2.20291">
        <ele>232.78</ele>
        <time>2012-12-18T09:46:39Z</time>
      </trkpt>
      <trkpt lat="43.012" lon="2.20236">
        <ele>232.78</ele>
        <time>2012-12-18T09:46:50Z</time>
      </trkpt>
      <trkpt lat="43.01166" lon="2.20223">
        <ele>232.78</ele>
        <time>2012-12-18T09:46:57Z</time>
      </trkpt>
      <trkpt lat="43.01118" lon="2.20225">
        <ele>233.74</ele>
        <time>2012-12-18T09:47:07Z</time>
      </trkpt>
      <trkpt lat="43.01086" lon="2.20241">
        <ele>233.74</ele>
        <time>2012-12-18T09:47:15Z</time>
      </trkpt>
      <trkpt lat="43.01032" lon="2.20232">
        <ele>234.7</ele>
        <time>2012-12-18T09:47:29Z</time>
      </trkpt>
      <trkpt lat="43.00987" lon="2.202">
        <ele>237.1</ele>
        <time>2012-12-18T09:47:45Z</time>
      </trkpt>
      <trkpt lat="43.00954" lon="2.2024">
        <ele>238.06</ele>
        <time>2012-12-18T09:47:58Z</time>
      </trkpt>
      <trkpt lat="43.00922" lon="2.20277">
        <ele>239.51</ele>
        <time>2012-12-18T09:48:12Z</time>
      </trkpt>
      <trkpt lat="43.00882" lon="2.20317">
        <ele>241.91</ele>
        <time>2012-12-18T09:48:30Z</time>
      </trkpt>
      <trkpt lat="43.00847" lon="2.20327">
        <ele>243.83</ele>
        <time>2012-12-18T09:48:42Z</time>
      </trkpt>
      <trkpt lat="43.00788" lon="2.20322">
        <ele>244.79</ele>
        <time>2012-12-18T09:49:01Z</time>
      </trkpt>
      <trkpt lat="43.0073" lon="2.20314">
        <ele>244.79</ele>
        <time>2012-12-18T09:49:17Z</time>
      </trkpt>
      <trkpt lat="43.00656" lon="2.2029">
        <ele>246.72</ele>
        <time>2012-12-18T09:49:34Z</time>
      </trkpt>
      <trkpt lat="43.00586" lon="2.20266">
        <ele>245.75</ele>
        <time>2012-12-18T09:49:49Z</time>
      </trkpt>
      <trkpt lat="43.00526" lon="2.20271">
        <ele>245.75</ele>
        <time>2012-12-18T09:50:03Z</time>
      </trkpt>
      <trkpt lat="43.00479" lon="2.20341">
        <ele>246.72</ele>
        <time>2012-12-18T09:50:19Z</time>
      </trkpt>
      <trkpt lat="43.00461" lon="2.20371">
        <ele>247.2</ele>
        <time>2012-12-18T09:50:26Z</time>
      </trkpt>
      <trkpt lat="43.00447" lon="2.20383">
        <ele>247.68</ele>
        <time>2012-12-18T09:50:30Z</time>
      </trkpt>
      <trkpt lat="43.00421" lon="2.20392">
        <ele>248.16</ele>
        <time>2012-12-18T09:50:37Z</time>
      </trkpt>
      <trkpt lat="43.00344" lon="2.20402">
        <ele>249.12</ele>
        <time>2012-12-18T09:50:55Z</time>
      </trkpt>
      <trkpt lat="43.00273" lon="2.20414">
        <ele>249.12</ele>
        <time>2012-12-18T09:51:10Z</time>
      </trkpt>
      <trkpt lat="43.00234" lon="2.20409">
        <ele>248.64</ele>
        <time>2012-12-18T09:51:18Z</time>
      </trkpt>
      <trkpt lat="43.00212" lon="2.20386">
        <ele>248.16</ele>
        <time>2012-12-18T09:51:24Z</time>
      </trkpt>
      <trkpt lat="43.00196" lon="2.20356">
        <ele>248.64</ele>
        <time>2012-12-18T09:51:30Z</time>
      </trkpt>
      <trkpt lat="43.00177" lon="2.20341">
        <ele>248.64</ele>
        <time>2012-12-18T09:51:35Z</time>
      </trkpt>
      <trkpt lat="43.00166" lon="2.20338">
        <ele>249.12</ele>
        <time>2012-12-18T09:51:37Z</time>
      </trkpt>
      <trkpt lat="43.00158" lon="2.20335">
        <ele>249.12</ele>
        <time>2012-12-18T09:51:39Z</time>
      </trkpt>
      <trkpt lat="43.00119" lon="2.20339">
        <ele>249.6</ele>
        <time>2012-12-18T09:51:47Z</time>
      </trkpt>
      <trkpt lat="43.00077" lon="2.20364">
        <ele>250.08</ele>
        <time>2012-12-18T09:51:56Z</time>
      </trkpt>
      <trkpt lat="43.00032" lon="2.20373">
        <ele>251.04</ele>
        <time>2012-12-18T09:52:07Z</time>
      </trkpt>
      <trkpt lat="43.00024" lon="2.20372">
        <ele>250.56</ele>
        <time>2012-12-18T09:52:09Z</time>
      </trkpt>
      <trkpt lat="42.99982" lon="2.20339">
        <ele>252.48</ele>
        <time>2012-12-18T09:52:23Z</time>
      </trkpt>
      <trkpt lat="42.99939" lon="2.20297">
        <ele>253.44</ele>
        <time>2012-12-18T09:52:38Z</time>
      </trkpt>
      <trkpt lat="42.99894" lon="2.20225">
        <ele>253.93</ele>
        <time>2012-12-18T09:52:55Z</time>
      </trkpt>
      <trkpt lat="42.99865" lon="2.20111">
        <ele>254.41</ele>
        <time>2012-12-18T09:53:15Z</time>
      </trkpt>
      <trkpt lat="42.99848" lon="2.20011">
        <ele>254.41</ele>
        <time>2012-12-18T09:53:31Z</time>
      </trkpt>
      <trkpt lat="42.99832" lon="2.19888">
        <ele>254.41</ele>
        <time>2012-12-18T09:53:52Z</time>
      </trkpt>
      <trkpt lat="42.99827" lon="2.19867">
        <ele>254.41</ele>
        <time>2012-12-18T09:53:56Z</time>
      </trkpt>
      <trkpt lat="42.99798" lon="2.19809">
        <ele>254.89</ele>
        <time>2012-12-18T09:54:08Z</time>
      </trkpt>
      <trkpt lat="42.99787" lon="2.19784">
        <ele>254.89</ele>
        <time>2012-12-18T09:54:13Z</time>
      </trkpt>
      <trkpt lat="42.99781" lon="2.19708">
        <ele>256.33</ele>
        <time>2012-12-18T09:54:26Z</time>
      </trkpt>
      <trkpt lat="42.99765" lon="2.1961">
        <ele>257.77</ele>
        <time>2012-12-18T09:54:43Z</time>
      </trkpt>
      <trkpt lat="42.99731" lon="2.19524">
        <ele>258.73</ele>
        <time>2012-12-18T09:55:02Z</time>
      </trkpt>
      <trkpt lat="42.99721" lon="2.1946">
        <ele>260.17</ele>
        <time>2012-12-18T09:55:20Z</time>
      </trkpt>
      <trkpt lat="42.99729" lon="2.19392">
        <ele>262.1</ele>
        <time>2012-12-18T09:55:37Z</time>
      </trkpt>
      <trkpt lat="42.99741" lon="2.19321">
        <ele>262.1</ele>
        <time>2012-12-18T09:55:54Z</time>
      </trkpt>
      <trkpt lat="42.9975" lon="2.19265">
        <ele>263.06</ele>
        <time>2012-12-18T09:56:08Z</time>
      </trkpt>
      <trkpt lat="42.99746" lon="2.19218">
        <ele>264.02</ele>
        <time>2012-12-18T09:56:19Z</time>
      </trkpt>
      <trkpt lat="42.99718" lon="2.19133">
        <ele>264.5</ele>
        <time>2012-12-18T09:56:38Z</time>
      </trkpt>
      <trkpt lat="42.9969" lon="2.1906">
        <ele>265.46</ele>
        <time>2012-12-18T09:56:54Z</time>
      </trkpt>
      <trkpt lat="42.99661" lon="2.18989">
        <ele>265.94</ele>
        <time>2012-12-18T09:57:10Z</time>
      </trkpt>
      <trkpt lat="42.99644" lon="2.18882">
        <ele>266.9</ele>
        <time>2012-12-18T09:57:32Z</time>
      </trkpt>
      <trkpt lat="42.99617" lon="2.18807">
        <ele>267.38</ele>
        <time>2012-12-18T09:57:49Z</time>
      </trkpt>
      <trkpt lat="42.99595" lon="2.18792">
        <ele>266.9</ele>
        <time>2012-12-18T09:57:55Z</time>
      </trkpt>
      <trkpt lat="42.99531" lon="2.18761">
        <ele>268.83</ele>
        <time>2012-12-18T09:58:15Z</time>
      </trkpt>
      <trkpt lat="42.99489" lon="2.18745">
        <ele>270.75</ele>
        <time>2012-12-18T09:58:28Z</time>
      </trkpt>
      <trkpt lat="42.99435" lon="2.18729">
        <ele>271.71</ele>
        <time>2012-12-18T09:58:43Z</time>
      </trkpt>
      <trkpt lat="42.99372" lon="2.18703">
        <ele>273.63</ele>
        <time>2012-12-18T09:59:03Z</time>
      </trkpt>
      <trkpt lat="42.99346" lon="2.18663">
        <ele>274.59</ele>
        <time>2012-12-18T09:59:18Z</time>
      </trkpt>
      <trkpt lat="42.99337" lon="2.18647">
        <ele>275.07</ele>
        <time>2012-12-18T09:59:32Z</time>
      </trkpt>
      <trkpt lat="42.99323" lon="2.18658">
        <ele>274.11</ele>
        <time>2012-12-18T10:01:51Z</time>
      </trkpt>
      <trkpt lat="42.99316" lon="2.18665">
        <ele>274.11</ele>
        <time>2012-12-18T10:02:28Z</time>
      </trkpt>
      <trkpt lat="42.99326" lon="2.18646">
        <ele>277.48</ele>
        <time>2012-12-18T10:09:22Z</time>
      </trkpt>
      <trkpt lat="42.99327" lon="2.18643">
        <ele>277.96</ele>
        <time>2012-12-18T10:10:42Z</time>
      </trkpt>
      <trkpt lat="42.99319" lon="2.18594">
        <ele>277.96</ele>
        <time>2012-12-18T10:10:56Z</time>
      </trkpt>
      <trkpt lat="42.99304" lon="2.18544">
        <ele>277.96</ele>
        <time>2012-12-18T10:11:08Z</time>
      </trkpt>
      <trkpt lat="42.99282" lon="2.18472">
        <ele>279.88</ele>
        <time>2012-12-18T10:11:24Z</time>
      </trkpt>
      <trkpt lat="42.99268" lon="2.18408">
        <ele>279.88</ele>
        <time>2012-12-18T10:11:37Z</time>
      </trkpt>
      <trkpt lat="42.9924" lon="2.18314">
        <ele>280.84</ele>
        <time>2012-12-18T10:11:55Z</time>
      </trkpt>
      <trkpt lat="42.99225" lon="2.18241">
        <ele>282.28</ele>
        <time>2012-12-18T10:12:10Z</time>
      </trkpt>
      <trkpt lat="42.99219" lon="2.18174">
        <ele>282.28</ele>
        <time>2012-12-18T10:12:24Z</time>
      </trkpt>
      <trkpt lat="42.99231" lon="2.18105">
        <ele>283.25</ele>
        <time>2012-12-18T10:12:39Z</time>
      </trkpt>
      <trkpt lat="42.99239" lon="2.18033">
        <ele>283.73</ele>
        <time>2012-12-18T10:12:53Z</time>
      </trkpt>
      <trkpt lat="42.99218" lon="2.17963">
        <ele>283.73</ele>
        <time>2012-12-18T10:13:06Z</time>
      </trkpt>
      <trkpt lat="42.99182" lon="2.17898">
        <ele>284.21</ele>
        <time>2012-12-18T10:13:20Z</time>
      </trkpt>
      <trkpt lat="42.99168" lon="2.17821">
        <ele>284.21</ele>
        <time>2012-12-18T10:13:35Z</time>
      </trkpt>
      <trkpt lat="42.99164" lon="2.177">
        <ele>285.17</ele>
        <time>2012-12-18T10:13:59Z</time>
      </trkpt>
      <trkpt lat="42.99161" lon="2.17597">
        <ele>286.13</ele>
        <time>2012-12-18T10:14:19Z</time>
      </trkpt>
      <trkpt lat="42.99156" lon="2.17497">
        <ele>287.57</ele>
        <time>2012-12-18T10:14:38Z</time>
      </trkpt>
      <trkpt lat="42.99139" lon="2.17413">
        <ele>287.57</ele>
        <time>2012-12-18T10:14:55Z</time>
      </trkpt>
      <trkpt lat="42.99119" lon="2.17328">
        <ele>289.01</ele>
        <time>2012-12-18T10:15:13Z</time>
      </trkpt>
      <trkpt lat="42.99094" lon="2.17258">
        <ele>289.97</ele>
        <time>2012-12-18T10:15:28Z</time>
      </trkpt>
      <trkpt lat="42.9907" lon="2.17192">
        <ele>290.94</ele>
        <time>2012-12-18T10:15:43Z</time>
      </trkpt>
      <trkpt lat="42.99032" lon="2.17107">
        <ele>291.9</ele>
        <time>2012-12-18T10:16:03Z</time>
      </trkpt>
      <trkpt lat="42.99009" lon="2.17014">
        <ele>292.38</ele>
        <time>2012-12-18T10:16:23Z</time>
      </trkpt>
      <trkpt lat="42.98988" lon="2.16948">
        <ele>294.3</ele>
        <time>2012-12-18T10:16:37Z</time>
      </trkpt>
      <trkpt lat="42.98947" lon="2.16893">
        <ele>294.78</ele>
        <time>2012-12-18T10:16:52Z</time>
      </trkpt>
      <trkpt lat="42.989" lon="2.16834">
        <ele>297.67</ele>
        <time>2012-12-18T10:17:10Z</time>
      </trkpt>
      <trkpt lat="42.9886" lon="2.16806">
        <ele>299.11</ele>
        <time>2012-12-18T10:17:23Z</time>
      </trkpt>
      <trkpt lat="42.98836" lon="2.16744">
        <ele>300.55</ele>
        <time>2012-12-18T10:17:38Z</time>
      </trkpt>
      <trkpt lat="42.98816" lon="2.16721">
        <ele>300.07</ele>
        <time>2012-12-18T10:17:45Z</time>
      </trkpt>
      <trkpt lat="42.98782" lon="2.16714">
        <ele>300.07</ele>
        <time>2012-12-18T10:17:52Z</time>
      </trkpt>
      <trkpt lat="42.98719" lon="2.16724">
        <ele>300.07</ele>
        <time>2012-12-18T10:18:03Z</time>
      </trkpt>
      <trkpt lat="42.98699" lon="2.1672">
        <ele>300.07</ele>
        <time>2012-12-18T10:18:07Z</time>
      </trkpt>
      <trkpt lat="42.98688" lon="2.16706">
        <ele>300.07</ele>
        <time>2012-12-18T10:18:11Z</time>
      </trkpt>
      <trkpt lat="42.98653" lon="2.16622">
        <ele>300.55</ele>
        <time>2012-12-18T10:18:27Z</time>
      </trkpt>
      <trkpt lat="42.98614" lon="2.16593">
        <ele>301.51</ele>
        <time>2012-12-18T10:18:40Z</time>
      </trkpt>
      <trkpt lat="42.98604" lon="2.16565">
        <ele>302.95</ele>
        <time>2012-12-18T10:18:48Z</time>
      </trkpt>
      <trkpt lat="42.98572" lon="2.16497">
        <ele>303.91</ele>
        <time>2012-12-18T10:19:05Z</time>
      </trkpt>
      <trkpt lat="42.98565" lon="2.16474">
        <ele>303.43</ele>
        <time>2012-12-18T10:19:09Z</time>
      </trkpt>
      <trkpt lat="42.98551" lon="2.16457">
        <ele>302.95</ele>
        <time>2012-12-18T10:19:13Z</time>
      </trkpt>
      <trkpt lat="42.98533" lon="2.16446">
        <ele>303.43</ele>
        <time>2012-12-18T10:19:17Z</time>
      </trkpt>
      <trkpt lat="42.9852" lon="2.16441">
        <ele>303.43</ele>
        <time>2012-12-18T10:19:20Z</time>
      </trkpt>
      <trkpt lat="42.98505" lon="2.1643">
        <ele>303.91</ele>
        <time>2012-12-18T10:19:24Z</time>
      </trkpt>
      <trkpt lat="42.9848" lon="2.16398">
        <ele>304.88</ele>
        <time>2012-12-18T10:19:32Z</time>
      </trkpt>
      <trkpt lat="42.98447" lon="2.16352">
        <ele>305.36</ele>
        <time>2012-12-18T10:19:43Z</time>
      </trkpt>
      <trkpt lat="42.98437" lon="2.16333">
        <ele>304.88</ele>
        <time>2012-12-18T10:19:47Z</time>
      </trkpt>
      <trkpt lat="42.98434" lon="2.16323">
        <ele>304.88</ele>
        <time>2012-12-18T10:19:49Z</time>
      </trkpt>
      <trkpt lat="42.98429" lon="2.16306">
        <ele>305.36</ele>
        <time>2012-12-18T10:19:52Z</time>
      </trkpt>
      <trkpt lat="42.98398" lon="2.16203">
        <ele>305.84</ele>
        <time>2012-12-18T10:20:11Z</time>
      </trkpt>
      <trkpt lat="42.98374" lon="2.16132">
        <ele>307.76</ele>
        <time>2012-12-18T10:20:25Z</time>
      </trkpt>
      <trkpt lat="42.98369" lon="2.16123">
        <ele>307.76</ele>
        <time>2012-12-18T10:20:27Z</time>
      </trkpt>
      <trkpt lat="42.9831" lon="2.1608">
        <ele>307.76</ele>
        <time>2012-12-18T10:20:42Z</time>
      </trkpt>
      <trkpt lat="42.98282" lon="2.16009">
        <ele>308.72</ele>
        <time>2012-12-18T10:20:58Z</time>
      </trkpt>
      <trkpt lat="42.98252" lon="2.1588">
        <ele>311.6</ele>
        <time>2012-12-18T10:21:27Z</time>
      </trkpt>
      <trkpt lat="42.98236" lon="2.15818">
        <ele>313.05</ele>
        <time>2012-12-18T10:21:41Z</time>
      </trkpt>
      <trkpt lat="42.98208" lon="2.15745">
        <ele>314.49</ele>
        <time>2012-12-18T10:21:57Z</time>
      </trkpt>
      <trkpt lat="42.98172" lon="2.15668">
        <ele>315.93</ele>
        <time>2012-12-18T10:22:14Z</time>
      </trkpt>
      <trkpt lat="42.98141" lon="2.15594">
        <ele>316.89</ele>
        <time>2012-12-18T10:22:32Z</time>
      </trkpt>
      <trkpt lat="42.98121" lon="2.15518">
        <ele>318.33</ele>
        <time>2012-12-18T10:22:49Z</time>
      </trkpt>
      <trkpt lat="42.98108" lon="2.15438">
        <ele>318.81</ele>
        <time>2012-12-18T10:23:06Z</time>
      </trkpt>
      <trkpt lat="42.98107" lon="2.15335">
        <ele>319.78</ele>
        <time>2012-12-18T10:23:27Z</time>
      </trkpt>
      <trkpt lat="42.98116" lon="2.1522">
        <ele>321.7</ele>
        <time>2012-12-18T10:23:51Z</time>
      </trkpt>
      <trkpt lat="42.98126" lon="2.15158">
        <ele>323.62</ele>
        <time>2012-12-18T10:24:06Z</time>
      </trkpt>
      <trkpt lat="42.98105" lon="2.1513">
        <ele>323.62</ele>
        <time>2012-12-18T10:24:13Z</time>
      </trkpt>
      <trkpt lat="42.98087" lon="2.15117">
        <ele>323.14</ele>
        <time>2012-12-18T10:24:17Z</time>
      </trkpt>
      <trkpt lat="42.98032" lon="2.15092">
        <ele>323.14</ele>
        <time>2012-12-18T10:24:29Z</time>
      </trkpt>
      <trkpt lat="42.98018" lon="2.15077">
        <ele>323.14</ele>
        <time>2012-12-18T10:24:33Z</time>
      </trkpt>
      <trkpt lat="42.97987" lon="2.15016">
        <ele>325.06</ele>
        <time>2012-12-18T10:24:46Z</time>
      </trkpt>
      <trkpt lat="42.97979" lon="2.15003">
        <ele>325.06</ele>
        <time>2012-12-18T10:24:49Z</time>
      </trkpt>
      <trkpt lat="42.97969" lon="2.14993">
        <ele>325.06</ele>
        <time>2012-12-18T10:24:52Z</time>
      </trkpt>
      <trkpt lat="42.9791" lon="2.14973">
        <ele>325.06</ele>
        <time>2012-12-18T10:25:05Z</time>
      </trkpt>
      <trkpt lat="42.9789" lon="2.14965">
        <ele>325.06</ele>
        <time>2012-12-18T10:25:09Z</time>
      </trkpt>
      <trkpt lat="42.97836" lon="2.14902">
        <ele>326.5</ele>
        <time>2012-12-18T10:25:26Z</time>
      </trkpt>
      <trkpt lat="42.97799" lon="2.14832">
        <ele>327.95</ele>
        <time>2012-12-18T10:25:44Z</time>
      </trkpt>
      <trkpt lat="42.9779" lon="2.14819">
        <ele>327.95</ele>
        <time>2012-12-18T10:25:47Z</time>
      </trkpt>
      <trkpt lat="42.97778" lon="2.14809">
        <ele>328.91</ele>
        <time>2012-12-18T10:25:50Z</time>
      </trkpt>
      <trkpt lat="42.97716" lon="2.14784">
        <ele>328.91</ele>
        <time>2012-12-18T10:26:05Z</time>
      </trkpt>
      <trkpt lat="42.9764" lon="2.14743">
        <ele>330.35</ele>
        <time>2012-12-18T10:26:26Z</time>
      </trkpt>
      <trkpt lat="42.97589" lon="2.14708">
        <ele>331.79</ele>
        <time>2012-12-18T10:26:42Z</time>
      </trkpt>
      <trkpt lat="42.97531" lon="2.14659">
        <ele>333.71</ele>
        <time>2012-12-18T10:27:01Z</time>
      </trkpt>
      <trkpt lat="42.97472" lon="2.146">
        <ele>335.64</ele>
        <time>2012-12-18T10:27:22Z</time>
      </trkpt>
      <trkpt lat="42.97416" lon="2.14522">
        <ele>338.04</ele>
        <time>2012-12-18T10:27:45Z</time>
      </trkpt>
      <trkpt lat="42.97381" lon="2.14453">
        <ele>340.44</ele>
        <time>2012-12-18T10:28:05Z</time>
      </trkpt>
      <trkpt lat="42.97351" lon="2.14377">
        <ele>341.89</ele>
        <time>2012-12-18T10:28:26Z</time>
      </trkpt>
      <trkpt lat="42.97297" lon="2.14333">
        <ele>343.33</ele>
        <time>2012-12-18T10:28:45Z</time>
      </trkpt>
      <trkpt lat="42.97249" lon="2.14293">
        <ele>344.77</ele>
        <time>2012-12-18T10:29:04Z</time>
      </trkpt>
      <trkpt lat="42.97231" lon="2.14234">
        <ele>346.21</ele>
        <time>2012-12-18T10:29:22Z</time>
      </trkpt>
      <trkpt lat="42.97211" lon="2.1419">
        <ele>347.65</ele>
        <time>2012-12-18T10:29:36Z</time>
      </trkpt>
      <trkpt lat="42.9719" lon="2.14146">
        <ele>349.1</ele>
        <time>2012-12-18T10:29:52Z</time>
      </trkpt>
      <trkpt lat="42.97171" lon="2.14089">
        <ele>350.06</ele>
        <time>2012-12-18T10:30:09Z</time>
      </trkpt>
      <trkpt lat="42.97151" lon="2.14038">
        <ele>351.98</ele>
        <time>2012-12-18T10:30:24Z</time>
      </trkpt>
      <trkpt lat="42.9709" lon="2.13986">
        <ele>353.9</ele>
        <time>2012-12-18T10:30:47Z</time>
      </trkpt>
      <trkpt lat="42.97059" lon="2.13952">
        <ele>354.38</ele>
        <time>2012-12-18T10:31:01Z</time>
      </trkpt>
      <trkpt lat="42.97" lon="2.13895">
        <ele>355.83</ele>
        <time>2012-12-18T10:31:26Z</time>
      </trkpt>
      <trkpt lat="42.96964" lon="2.13853">
        <ele>356.31</ele>
        <time>2012-12-18T10:31:42Z</time>
      </trkpt>
      <trkpt lat="42.96909" lon="2.13783">
        <ele>357.75</ele>
        <time>2012-12-18T10:32:06Z</time>
      </trkpt>
      <trkpt lat="42.96886" lon="2.13722">
        <ele>359.19</ele>
        <time>2012-12-18T10:32:22Z</time>
      </trkpt>
      <trkpt lat="42.96866" lon="2.13664">
        <ele>360.15</ele>
        <time>2012-12-18T10:32:38Z</time>
      </trkpt>
      <trkpt lat="42.96818" lon="2.13607">
        <ele>361.11</ele>
        <time>2012-12-18T10:32:58Z</time>
      </trkpt>
      <trkpt lat="42.96788" lon="2.13548">
        <ele>361.59</ele>
        <time>2012-12-18T10:33:14Z</time>
      </trkpt>
      <trkpt lat="42.96769" lon="2.13471">
        <ele>363.04</ele>
        <time>2012-12-18T10:33:32Z</time>
      </trkpt>
      <trkpt lat="42.96741" lon="2.13412">
        <ele>364</ele>
        <time>2012-12-18T10:33:48Z</time>
      </trkpt>
      <trkpt lat="42.96726" lon="2.13388">
        <ele>364</ele>
        <time>2012-12-18T10:33:54Z</time>
      </trkpt>
      <trkpt lat="42.96666" lon="2.13288">
        <ele>363.52</ele>
        <time>2012-12-18T10:34:17Z</time>
      </trkpt>
      <trkpt lat="42.96631" lon="2.13234">
        <ele>364.48</ele>
        <time>2012-12-18T10:34:33Z</time>
      </trkpt>
      <trkpt lat="42.96596" lon="2.13176">
        <ele>365.92</ele>
        <time>2012-12-18T10:34:51Z</time>
      </trkpt>
      <trkpt lat="42.9656" lon="2.13117">
        <ele>367.36</ele>
        <time>2012-12-18T10:35:09Z</time>
      </trkpt>
      <trkpt lat="42.96518" lon="2.13027">
        <ele>368.8</ele>
        <time>2012-12-18T10:35:35Z</time>
      </trkpt>
      <trkpt lat="42.96479" lon="2.12947">
        <ele>370.24</ele>
        <time>2012-12-18T10:35:59Z</time>
      </trkpt>
      <trkpt lat="42.96448" lon="2.1289">
        <ele>371.21</ele>
        <time>2012-12-18T10:36:16Z</time>
      </trkpt>
      <trkpt lat="42.96399" lon="2.12817">
        <ele>373.13</ele>
        <time>2012-12-18T10:36:39Z</time>
      </trkpt>
      <trkpt lat="42.96393" lon="2.12762">
        <ele>373.61</ele>
        <time>2012-12-18T10:36:54Z</time>
      </trkpt>
      <trkpt lat="42.96399" lon="2.1273">
        <ele>375.05</ele>
        <time>2012-12-18T10:37:02Z</time>
      </trkpt>
      <trkpt lat="42.9638" lon="2.12673">
        <ele>376.01</ele>
        <time>2012-12-18T10:37:17Z</time>
      </trkpt>
      <trkpt lat="42.9637" lon="2.12613">
        <ele>376.97</ele>
        <time>2012-12-18T10:37:32Z</time>
      </trkpt>
      <trkpt lat="42.96354" lon="2.1258">
        <ele>377.94</ele>
        <time>2012-12-18T10:37:44Z</time>
      </trkpt>
      <trkpt lat="42.96353" lon="2.12576">
        <ele>377.45</ele>
        <time>2012-12-18T10:38:06Z</time>
      </trkpt>
      <trkpt lat="42.96353" lon="2.12576">
        <ele>380.34</ele>
        <time>2012-12-18T10:41:14Z</time>
      </trkpt>
      <trkpt lat="42.96342" lon="2.12571">
        <ele>380.82</ele>
        <time>2012-12-18T10:41:53Z</time>
      </trkpt>
      <trkpt lat="42.96323" lon="2.12556">
        <ele>381.3</ele>
        <time>2012-12-18T10:41:57Z</time>
      </trkpt>
      <trkpt lat="42.96277" lon="2.1253">
        <ele>382.26</ele>
        <time>2012-12-18T10:42:13Z</time>
      </trkpt>
      <trkpt lat="42.96236" lon="2.12498">
        <ele>385.63</ele>
        <time>2012-12-18T10:42:29Z</time>
      </trkpt>
      <trkpt lat="42.962" lon="2.12475">
        <ele>388.51</ele>
        <time>2012-12-18T10:42:44Z</time>
      </trkpt>
      <trkpt lat="42.96164" lon="2.12444">
        <ele>389.95</ele>
        <time>2012-12-18T10:42:58Z</time>
      </trkpt>
      <trkpt lat="42.96138" lon="2.1242">
        <ele>392.36</ele>
        <time>2012-12-18T10:43:12Z</time>
      </trkpt>
      <trkpt lat="42.96114" lon="2.12397">
        <ele>394.28</ele>
        <time>2012-12-18T10:43:26Z</time>
      </trkpt>
      <trkpt lat="42.96075" lon="2.12363">
        <ele>395.24</ele>
        <time>2012-12-18T10:43:42Z</time>
      </trkpt>
      <trkpt lat="42.96062" lon="2.12333">
        <ele>397.16</ele>
        <time>2012-12-18T10:43:59Z</time>
      </trkpt>
      <trkpt lat="42.96049" lon="2.12293">
        <ele>398.6</ele>
        <time>2012-12-18T10:44:15Z</time>
      </trkpt>
      <trkpt lat="42.96033" lon="2.12252">
        <ele>400.05</ele>
        <time>2012-12-18T10:44:31Z</time>
      </trkpt>
      <trkpt lat="42.96024" lon="2.12213">
        <ele>401.49</ele>
        <time>2012-12-18T10:44:46Z</time>
      </trkpt>
      <trkpt lat="42.96002" lon="2.12154">
        <ele>402.93</ele>
        <time>2012-12-18T10:45:05Z</time>
      </trkpt>
      <trkpt lat="42.95982" lon="2.12096">
        <ele>404.37</ele>
        <time>2012-12-18T10:45:24Z</time>
      </trkpt>
      <trkpt lat="42.95972" lon="2.12061">
        <ele>405.81</ele>
        <time>2012-12-18T10:45:37Z</time>
      </trkpt>
      <trkpt lat="42.95966" lon="2.12021">
        <ele>407.26</ele>
        <time>2012-12-18T10:45:51Z</time>
      </trkpt>
      <trkpt lat="42.95963" lon="2.12009">
        <ele>408.22</ele>
        <time>2012-12-18T10:45:57Z</time>
      </trkpt>
      <trkpt lat="42.95954" lon="2.1195">
        <ele>411.58</ele>
        <time>2012-12-18T10:46:16Z</time>
      </trkpt>
      <trkpt lat="42.95947" lon="2.11912">
        <ele>413.02</ele>
        <time>2012-12-18T10:46:30Z</time>
      </trkpt>
      <trkpt lat="42.95938" lon="2.11868">
        <ele>415.43</ele>
        <time>2012-12-18T10:46:46Z</time>
      </trkpt>
      <trkpt lat="42.95926" lon="2.11823">
        <ele>417.35</ele>
        <time>2012-12-18T10:47:01Z</time>
      </trkpt>
      <trkpt lat="42.95915" lon="2.11767">
        <ele>418.79</ele>
        <time>2012-12-18T10:47:19Z</time>
      </trkpt>
      <trkpt lat="42.95911" lon="2.11725">
        <ele>420.71</ele>
        <time>2012-12-18T10:47:34Z</time>
      </trkpt>
      <trkpt lat="42.95903" lon="2.11681">
        <ele>423.12</ele>
        <time>2012-12-18T10:47:48Z</time>
      </trkpt>
      <trkpt lat="42.95899" lon="2.11662">
        <ele>424.08</ele>
        <time>2012-12-18T10:47:56Z</time>
      </trkpt>
      <trkpt lat="42.95884" lon="2.11611">
        <ele>426</ele>
        <time>2012-12-18T10:48:14Z</time>
      </trkpt>
      <trkpt lat="42.95874" lon="2.1158">
        <ele>427.44</ele>
        <time>2012-12-18T10:48:28Z</time>
      </trkpt>
      <trkpt lat="42.9586" lon="2.11539">
        <ele>428.4</ele>
        <time>2012-12-18T10:48:40Z</time>
      </trkpt>
      <trkpt lat="42.95855" lon="2.11501">
        <ele>431.29</ele>
        <time>2012-12-18T10:48:56Z</time>
      </trkpt>
      <trkpt lat="42.95851" lon="2.1148">
        <ele>431.77</ele>
        <time>2012-12-18T10:49:03Z</time>
      </trkpt>
      <trkpt lat="42.95844" lon="2.11436">
        <ele>433.21</ele>
        <time>2012-12-18T10:49:20Z</time>
      </trkpt>
      <trkpt lat="42.95838" lon="2.11401">
        <ele>435.13</ele>
        <time>2012-12-18T10:49:35Z</time>
      </trkpt>
      <trkpt lat="42.95829" lon="2.1135">
        <ele>437.54</ele>
        <time>2012-12-18T10:49:52Z</time>
      </trkpt>
      <trkpt lat="42.95832" lon="2.11306">
        <ele>439.46</ele>
        <time>2012-12-18T10:50:10Z</time>
      </trkpt>
      <trkpt lat="42.95815" lon="2.11282">
        <ele>441.38</ele>
        <time>2012-12-18T10:50:22Z</time>
      </trkpt>
      <trkpt lat="42.95804" lon="2.1125">
        <ele>443.79</ele>
        <time>2012-12-18T10:50:38Z</time>
      </trkpt>
      <trkpt lat="42.95791" lon="2.11219">
        <ele>444.75</ele>
        <time>2012-12-18T10:50:51Z</time>
      </trkpt>
      <trkpt lat="42.95786" lon="2.1117">
        <ele>446.67</ele>
        <time>2012-12-18T10:51:11Z</time>
      </trkpt>
      <trkpt lat="42.95794" lon="2.11133">
        <ele>449.07</ele>
        <time>2012-12-18T10:51:27Z</time>
      </trkpt>
      <trkpt lat="42.95793" lon="2.11102">
        <ele>450.03</ele>
        <time>2012-12-18T10:51:40Z</time>
      </trkpt>
      <trkpt lat="42.95776" lon="2.11074">
        <ele>451.48</ele>
        <time>2012-12-18T10:51:52Z</time>
      </trkpt>
      <trkpt lat="42.95767" lon="2.1104">
        <ele>453.4</ele>
        <time>2012-12-18T10:52:06Z</time>
      </trkpt>
      <trkpt lat="42.95762" lon="2.10995">
        <ele>456.76</ele>
        <time>2012-12-18T10:52:22Z</time>
      </trkpt>
      <trkpt lat="42.95758" lon="2.10948">
        <ele>458.69</ele>
        <time>2012-12-18T10:52:41Z</time>
      </trkpt>
      <trkpt lat="42.95747" lon="2.10899">
        <ele>460.13</ele>
        <time>2012-12-18T10:52:59Z</time>
      </trkpt>
      <trkpt lat="42.95745" lon="2.10867">
        <ele>461.57</ele>
        <time>2012-12-18T10:53:13Z</time>
      </trkpt>
      <trkpt lat="42.95762" lon="2.10824">
        <ele>463.01</ele>
        <time>2012-12-18T10:53:31Z</time>
      </trkpt>
      <trkpt lat="42.9578" lon="2.10793">
        <ele>463.97</ele>
        <time>2012-12-18T10:53:48Z</time>
      </trkpt>
      <trkpt lat="42.95781" lon="2.10791">
        <ele>463.97</ele>
        <time>2012-12-18T10:53:49Z</time>
      </trkpt>
      <trkpt lat="42.95784" lon="2.1075">
        <ele>465.9</ele>
        <time>2012-12-18T10:54:04Z</time>
      </trkpt>
      <trkpt lat="42.95804" lon="2.10708">
        <ele>468.78</ele>
        <time>2012-12-18T10:54:22Z</time>
      </trkpt>
      <trkpt lat="42.95823" lon="2.1068">
        <ele>471.18</ele>
        <time>2012-12-18T10:54:37Z</time>
      </trkpt>
      <trkpt lat="42.95834" lon="2.10644">
        <ele>472.63</ele>
        <time>2012-12-18T10:54:53Z</time>
      </trkpt>
      <trkpt lat="42.95826" lon="2.10635">
        <ele>474.07</ele>
        <time>2012-12-18T10:55:00Z</time>
      </trkpt>
      <trkpt lat="42.95789" lon="2.10643">
        <ele>475.51</ele>
        <time>2012-12-18T10:55:19Z</time>
      </trkpt>
      <trkpt lat="42.95762" lon="2.10656">
        <ele>476.95</ele>
        <time>2012-12-18T10:55:34Z</time>
      </trkpt>
      <trkpt lat="42.95742" lon="2.10653">
        <ele>478.39</ele>
        <time>2012-12-18T10:55:48Z</time>
      </trkpt>
      <trkpt lat="42.95731" lon="2.10616">
        <ele>480.8</ele>
        <time>2012-12-18T10:56:05Z</time>
      </trkpt>
      <trkpt lat="42.95724" lon="2.10566">
        <ele>483.2</ele>
        <time>2012-12-18T10:56:27Z</time>
      </trkpt>
      <trkpt lat="42.95723" lon="2.10561">
        <ele>483.68</ele>
        <time>2012-12-18T10:56:29Z</time>
      </trkpt>
      <trkpt lat="42.95718" lon="2.10519">
        <ele>485.6</ele>
        <time>2012-12-18T10:56:49Z</time>
      </trkpt>
      <trkpt lat="42.95703" lon="2.10469">
        <ele>487.53</ele>
        <time>2012-12-18T10:57:09Z</time>
      </trkpt>
      <trkpt lat="42.95701" lon="2.10459">
        <ele>488.01</ele>
        <time>2012-12-18T10:57:13Z</time>
      </trkpt>
      <trkpt lat="42.95705" lon="2.1042">
        <ele>488.97</ele>
        <time>2012-12-18T10:57:31Z</time>
      </trkpt>
      <trkpt lat="42.95708" lon="2.10401">
        <ele>490.41</ele>
        <time>2012-12-18T10:57:40Z</time>
      </trkpt>
      <trkpt lat="42.95704" lon="2.1038">
        <ele>490.89</ele>
        <time>2012-12-18T10:57:48Z</time>
      </trkpt>
      <trkpt lat="42.95689" lon="2.10346">
        <ele>492.81</ele>
        <time>2012-12-18T10:58:02Z</time>
      </trkpt>
      <trkpt lat="42.95669" lon="2.10307">
        <ele>494.74</ele>
        <time>2012-12-18T10:58:21Z</time>
      </trkpt>
      <trkpt lat="42.95652" lon="2.10254">
        <ele>496.66</ele>
        <time>2012-12-18T10:58:46Z</time>
      </trkpt>
      <trkpt lat="42.95645" lon="2.10218">
        <ele>497.62</ele>
        <time>2012-12-18T10:59:05Z</time>
      </trkpt>
      <trkpt lat="42.95655" lon="2.10182">
        <ele>498.58</ele>
        <time>2012-12-18T10:59:22Z</time>
      </trkpt>
      <trkpt lat="42.95665" lon="2.10151">
        <ele>500.98</ele>
        <time>2012-12-18T10:59:39Z</time>
      </trkpt>
      <trkpt lat="42.9567" lon="2.1012">
        <ele>501.95</ele>
        <time>2012-12-18T10:59:54Z</time>
      </trkpt>
      <trkpt lat="42.95644" lon="2.10084">
        <ele>503.39</ele>
        <time>2012-12-18T11:00:11Z</time>
      </trkpt>
      <trkpt lat="42.95617" lon="2.10083">
        <ele>506.27</ele>
        <time>2012-12-18T11:00:23Z</time>
      </trkpt>
      <trkpt lat="42.95586" lon="2.10082">
        <ele>506.27</ele>
        <time>2012-12-18T11:00:35Z</time>
      </trkpt>
      <trkpt lat="42.95552" lon="2.10083">
        <ele>508.67</ele>
        <time>2012-12-18T11:00:51Z</time>
      </trkpt>
      <trkpt lat="42.9553" lon="2.10056">
        <ele>509.16</ele>
        <time>2012-12-18T11:01:07Z</time>
      </trkpt>
      <trkpt lat="42.95517" lon="2.10023">
        <ele>510.6</ele>
        <time>2012-12-18T11:01:22Z</time>
      </trkpt>
      <trkpt lat="42.95501" lon="2.09984">
        <ele>512.52</ele>
        <time>2012-12-18T11:01:39Z</time>
      </trkpt>
      <trkpt lat="42.95496" lon="2.09963">
        <ele>513</ele>
        <time>2012-12-18T11:01:49Z</time>
      </trkpt>
      <trkpt lat="42.95487" lon="2.09914">
        <ele>515.4</ele>
        <time>2012-12-18T11:02:10Z</time>
      </trkpt>
      <trkpt lat="42.95491" lon="2.09905">
        <ele>516.37</ele>
        <time>2012-12-18T11:02:16Z</time>
      </trkpt>
      <trkpt lat="42.95499" lon="2.09891">
        <ele>516.37</ele>
        <time>2012-12-18T11:02:36Z</time>
      </trkpt>
      <trkpt lat="42.95499" lon="2.09891">
        <ele>515.88</ele>
        <time>2012-12-18T11:02:58Z</time>
      </trkpt>
      <trkpt lat="42.95504" lon="2.0988">
        <ele>516.85</ele>
        <time>2012-12-18T11:06:46Z</time>
      </trkpt>
      <trkpt lat="42.95516" lon="2.09863">
        <ele>518.29</ele>
        <time>2012-12-18T11:06:59Z</time>
      </trkpt>
      <trkpt lat="42.9554" lon="2.09832">
        <ele>520.21</ele>
        <time>2012-12-18T11:07:17Z</time>
      </trkpt>
      <trkpt lat="42.95562" lon="2.09797">
        <ele>522.13</ele>
        <time>2012-12-18T11:07:37Z</time>
      </trkpt>
      <trkpt lat="42.95563" lon="2.09795">
        <ele>522.13</ele>
        <time>2012-12-18T11:07:38Z</time>
      </trkpt>
      <trkpt lat="42.95563" lon="2.09788">
        <ele>522.13</ele>
        <time>2012-12-18T11:07:42Z</time>
      </trkpt>
      <trkpt lat="42.9555" lon="2.09762">
        <ele>523.58</ele>
        <time>2012-12-18T11:07:56Z</time>
      </trkpt>
      <trkpt lat="42.95541" lon="2.09756">
        <ele>524.54</ele>
        <time>2012-12-18T11:08:03Z</time>
      </trkpt>
      <trkpt lat="42.95536" lon="2.09753">
        <ele>525.02</ele>
        <time>2012-12-18T11:08:07Z</time>
      </trkpt>
      <trkpt lat="42.95514" lon="2.09749">
        <ele>525.98</ele>
        <time>2012-12-18T11:08:22Z</time>
      </trkpt>
      <trkpt lat="42.95475" lon="2.0975">
        <ele>528.38</ele>
        <time>2012-12-18T11:08:43Z</time>
      </trkpt>
      <trkpt lat="42.95449" lon="2.09742">
        <ele>529.34</ele>
        <time>2012-12-18T11:08:57Z</time>
      </trkpt>
      <trkpt lat="42.9544" lon="2.09735">
        <ele>530.3</ele>
        <time>2012-12-18T11:09:07Z</time>
      </trkpt>
      <trkpt lat="42.95439" lon="2.09685">
        <ele>532.71</ele>
        <time>2012-12-18T11:09:27Z</time>
      </trkpt>
      <trkpt lat="42.95436" lon="2.09644">
        <ele>536.07</ele>
        <time>2012-12-18T11:09:45Z</time>
      </trkpt>
      <trkpt lat="42.95427" lon="2.09595">
        <ele>537.51</ele>
        <time>2012-12-18T11:10:07Z</time>
      </trkpt>
      <trkpt lat="42.95421" lon="2.09549">
        <ele>539.92</ele>
        <time>2012-12-18T11:10:27Z</time>
      </trkpt>
      <trkpt lat="42.95429" lon="2.09506">
        <ele>541.84</ele>
        <time>2012-12-18T11:10:46Z</time>
      </trkpt>
      <trkpt lat="42.9544" lon="2.09471">
        <ele>542.8</ele>
        <time>2012-12-18T11:11:03Z</time>
      </trkpt>
      <trkpt lat="42.95442" lon="2.0943">
        <ele>545.69</ele>
        <time>2012-12-18T11:11:20Z</time>
      </trkpt>
      <trkpt lat="42.95458" lon="2.09386">
        <ele>548.09</ele>
        <time>2012-12-18T11:11:43Z</time>
      </trkpt>
      <trkpt lat="42.95461" lon="2.09345">
        <ele>549.53</ele>
        <time>2012-12-18T11:12:00Z</time>
      </trkpt>
      <trkpt lat="42.95468" lon="2.09291">
        <ele>551.93</ele>
        <time>2012-12-18T11:12:21Z</time>
      </trkpt>
      <trkpt lat="42.95467" lon="2.0926">
        <ele>554.82</ele>
        <time>2012-12-18T11:12:35Z</time>
      </trkpt>
      <trkpt lat="42.95473" lon="2.09221">
        <ele>555.78</ele>
        <time>2012-12-18T11:12:50Z</time>
      </trkpt>
      <trkpt lat="42.95488" lon="2.09198">
        <ele>557.22</ele>
        <time>2012-12-18T11:13:05Z</time>
      </trkpt>
      <trkpt lat="42.95511" lon="2.09183">
        <ele>559.14</ele>
        <time>2012-12-18T11:13:24Z</time>
      </trkpt>
      <trkpt lat="42.95548" lon="2.09166">
        <ele>561.07</ele>
        <time>2012-12-18T11:13:45Z</time>
      </trkpt>
      <trkpt lat="42.95557" lon="2.09154">
        <ele>561.55</ele>
        <time>2012-12-18T11:13:53Z</time>
      </trkpt>
      <trkpt lat="42.95561" lon="2.09115">
        <ele>562.03</ele>
        <time>2012-12-18T11:14:08Z</time>
      </trkpt>
      <trkpt lat="42.95575" lon="2.09067">
        <ele>565.39</ele>
        <time>2012-12-18T11:14:27Z</time>
      </trkpt>
      <trkpt lat="42.95581" lon="2.09027">
        <ele>567.8</ele>
        <time>2012-12-18T11:14:44Z</time>
      </trkpt>
      <trkpt lat="42.95557" lon="2.08988">
        <ele>568.76</ele>
        <time>2012-12-18T11:15:00Z</time>
      </trkpt>
      <trkpt lat="42.9553" lon="2.08958">
        <ele>571.16</ele>
        <time>2012-12-18T11:15:17Z</time>
      </trkpt>
      <trkpt lat="42.95501" lon="2.0893">
        <ele>571.64</ele>
        <time>2012-12-18T11:15:37Z</time>
      </trkpt>
      <trkpt lat="42.95511" lon="2.08901">
        <ele>573.56</ele>
        <time>2012-12-18T11:15:52Z</time>
      </trkpt>
      <trkpt lat="42.95531" lon="2.08877">
        <ele>574.53</ele>
        <time>2012-12-18T11:16:08Z</time>
      </trkpt>
      <trkpt lat="42.95538" lon="2.0885">
        <ele>577.41</ele>
        <time>2012-12-18T11:16:19Z</time>
      </trkpt>
      <trkpt lat="42.95538" lon="2.08848">
        <ele>577.89</ele>
        <time>2012-12-18T11:16:20Z</time>
      </trkpt>
      <trkpt lat="42.95536" lon="2.08835">
        <ele>578.37</ele>
        <time>2012-12-18T11:16:26Z</time>
      </trkpt>
      <trkpt lat="42.95532" lon="2.08829">
        <ele>578.37</ele>
        <time>2012-12-18T11:16:30Z</time>
      </trkpt>
      <trkpt lat="42.95499" lon="2.08811">
        <ele>579.33</ele>
        <time>2012-12-18T11:16:49Z</time>
      </trkpt>
      <trkpt lat="42.95469" lon="2.08812">
        <ele>581.73</ele>
        <time>2012-12-18T11:17:07Z</time>
      </trkpt>
      <trkpt lat="42.95452" lon="2.088">
        <ele>582.22</ele>
        <time>2012-12-18T11:17:15Z</time>
      </trkpt>
      <trkpt lat="42.9543" lon="2.08776">
        <ele>585.58</ele>
        <time>2012-12-18T11:17:30Z</time>
      </trkpt>
      <trkpt lat="42.9541" lon="2.08731">
        <ele>587.98</ele>
        <time>2012-12-18T11:17:50Z</time>
      </trkpt>
      <trkpt lat="42.95422" lon="2.08695">
        <ele>587.98</ele>
        <time>2012-12-18T11:18:07Z</time>
      </trkpt>
      <trkpt lat="42.95423" lon="2.08694">
        <ele>587.98</ele>
        <time>2012-12-18T11:18:08Z</time>
      </trkpt>
      <trkpt lat="42.9545" lon="2.0868">
        <ele>591.35</ele>
        <time>2012-12-18T11:18:26Z</time>
      </trkpt>
      <trkpt lat="42.95483" lon="2.0865">
        <ele>593.75</ele>
        <time>2012-12-18T11:18:44Z</time>
      </trkpt>
      <trkpt lat="42.95519" lon="2.08614">
        <ele>596.15</ele>
        <time>2012-12-18T11:19:04Z</time>
      </trkpt>
      <trkpt lat="42.95556" lon="2.08585">
        <ele>599.04</ele>
        <time>2012-12-18T11:19:22Z</time>
      </trkpt>
      <trkpt lat="42.95587" lon="2.08555">
        <ele>600.48</ele>
        <time>2012-12-18T11:19:40Z</time>
      </trkpt>
      <trkpt lat="42.95619" lon="2.08515">
        <ele>603.36</ele>
        <time>2012-12-18T11:20:02Z</time>
      </trkpt>
      <trkpt lat="42.95656" lon="2.08484">
        <ele>605.77</ele>
        <time>2012-12-18T11:20:22Z</time>
      </trkpt>
      <trkpt lat="42.95687" lon="2.0846">
        <ele>607.69</ele>
        <time>2012-12-18T11:20:41Z</time>
      </trkpt>
      <trkpt lat="42.9569" lon="2.08456">
        <ele>608.17</ele>
        <time>2012-12-18T11:20:43Z</time>
      </trkpt>
      <trkpt lat="42.95697" lon="2.08435">
        <ele>609.13</ele>
        <time>2012-12-18T11:20:51Z</time>
      </trkpt>
      <trkpt lat="42.95698" lon="2.08422">
        <ele>609.61</ele>
        <time>2012-12-18T11:20:56Z</time>
      </trkpt>
      <trkpt lat="42.95674" lon="2.08392">
        <ele>611.54</ele>
        <time>2012-12-18T11:21:12Z</time>
      </trkpt>
      <trkpt lat="42.95645" lon="2.08366">
        <ele>613.94</ele>
        <time>2012-12-18T11:21:29Z</time>
      </trkpt>
      <trkpt lat="42.95624" lon="2.08355">
        <ele>615.86</ele>
        <time>2012-12-18T11:21:42Z</time>
      </trkpt>
      <trkpt lat="42.95588" lon="2.08338">
        <ele>617.3</ele>
        <time>2012-12-18T11:21:57Z</time>
      </trkpt>
      <trkpt lat="42.95567" lon="2.08304">
        <ele>618.75</ele>
        <time>2012-12-18T11:22:14Z</time>
      </trkpt>
      <trkpt lat="42.95561" lon="2.08297">
        <ele>619.23</ele>
        <time>2012-12-18T11:22:18Z</time>
      </trkpt>
      <trkpt lat="42.95544" lon="2.08294">
        <ele>620.19</ele>
        <time>2012-12-18T11:22:26Z</time>
      </trkpt>
      <trkpt lat="42.95521" lon="2.08311">
        <ele>621.63</ele>
        <time>2012-12-18T11:22:37Z</time>
      </trkpt>
      <trkpt lat="42.95514" lon="2.0831">
        <ele>622.59</ele>
        <time>2012-12-18T11:22:41Z</time>
      </trkpt>
      <trkpt lat="42.95506" lon="2.083">
        <ele>624.03</ele>
        <time>2012-12-18T11:22:48Z</time>
      </trkpt>
      <trkpt lat="42.95489" lon="2.08268">
        <ele>625.96</ele>
        <time>2012-12-18T11:23:05Z</time>
      </trkpt>
      <trkpt lat="42.95463" lon="2.08272">
        <ele>626.92</ele>
        <time>2012-12-18T11:23:19Z</time>
      </trkpt>
      <trkpt lat="42.95425" lon="2.08295">
        <ele>628.84</ele>
        <time>2012-12-18T11:23:33Z</time>
      </trkpt>
      <trkpt lat="42.9541" lon="2.08294">
        <ele>630.76</ele>
        <time>2012-12-18T11:23:46Z</time>
      </trkpt>
      <trkpt lat="42.95399" lon="2.08275">
        <ele>632.2</ele>
        <time>2012-12-18T11:24:02Z</time>
      </trkpt>
      <trkpt lat="42.95392" lon="2.08267">
        <ele>632.2</ele>
        <time>2012-12-18T11:24:10Z</time>
      </trkpt>
      <trkpt lat="42.95373" lon="2.08259">
        <ele>632.68</ele>
        <time>2012-12-18T11:24:28Z</time>
      </trkpt>
      <trkpt lat="42.9535" lon="2.08268">
        <ele>634.61</ele>
        <time>2012-12-18T11:24:46Z</time>
      </trkpt>
      <trkpt lat="42.95347" lon="2.08273">
        <ele>635.57</ele>
        <time>2012-12-18T11:24:51Z</time>
      </trkpt>
      <trkpt lat="42.95334" lon="2.08295">
        <ele>637.49</ele>
        <time>2012-12-18T11:25:15Z</time>
      </trkpt>
      <trkpt lat="42.95307" lon="2.08336">
        <ele>638.45</ele>
        <time>2012-12-18T11:25:43Z</time>
      </trkpt>
      <trkpt lat="42.95276" lon="2.08365">
        <ele>639.89</ele>
        <time>2012-12-18T11:26:03Z</time>
      </trkpt>
      <trkpt lat="42.95253" lon="2.0835">
        <ele>641.82</ele>
        <time>2012-12-18T11:26:24Z</time>
      </trkpt>
      <trkpt lat="42.95233" lon="2.08314">
        <ele>644.22</ele>
        <time>2012-12-18T11:26:48Z</time>
      </trkpt>
      <trkpt lat="42.95218" lon="2.08277">
        <ele>645.18</ele>
        <time>2012-12-18T11:27:12Z</time>
      </trkpt>
      <trkpt lat="42.95199" lon="2.08224">
        <ele>647.59</ele>
        <time>2012-12-18T11:27:41Z</time>
      </trkpt>
      <trkpt lat="42.95181" lon="2.08189">
        <ele>649.51</ele>
        <time>2012-12-18T11:28:04Z</time>
      </trkpt>
      <trkpt lat="42.95163" lon="2.08151">
        <ele>650.95</ele>
        <time>2012-12-18T11:28:26Z</time>
      </trkpt>
      <trkpt lat="42.95138" lon="2.08144">
        <ele>652.39</ele>
        <time>2012-12-18T11:28:45Z</time>
      </trkpt>
      <trkpt lat="42.95113" lon="2.08141">
        <ele>653.35</ele>
        <time>2012-12-18T11:29:05Z</time>
      </trkpt>
      <trkpt lat="42.95091" lon="2.0814">
        <ele>654.31</ele>
        <time>2012-12-18T11:29:23Z</time>
      </trkpt>
      <trkpt lat="42.95084" lon="2.08142">
        <ele>654.8</ele>
        <time>2012-12-18T11:29:29Z</time>
      </trkpt>
      <trkpt lat="42.95064" lon="2.08149">
        <ele>655.28</ele>
        <time>2012-12-18T11:29:45Z</time>
      </trkpt>
      <trkpt lat="42.95035" lon="2.08135">
        <ele>657.68</ele>
        <time>2012-12-18T11:30:10Z</time>
      </trkpt>
      <trkpt lat="42.95005" lon="2.08147">
        <ele>658.64</ele>
        <time>2012-12-18T11:30:35Z</time>
      </trkpt>
      <trkpt lat="42.94999" lon="2.08151">
        <ele>659.12</ele>
        <time>2012-12-18T11:30:40Z</time>
      </trkpt>
      <trkpt lat="42.94965" lon="2.08182">
        <ele>660.08</ele>
        <time>2012-12-18T11:31:07Z</time>
      </trkpt>
      <trkpt lat="42.94948" lon="2.08186">
        <ele>660.56</ele>
        <time>2012-12-18T11:31:23Z</time>
      </trkpt>
      <trkpt lat="42.94925" lon="2.0818">
        <ele>662.01</ele>
        <time>2012-12-18T11:31:46Z</time>
      </trkpt>
      <trkpt lat="42.94918" lon="2.08176">
        <ele>662.01</ele>
        <time>2012-12-18T11:31:50Z</time>
      </trkpt>
      <trkpt lat="42.94905" lon="2.08172">
        <ele>662.97</ele>
        <time>2012-12-18T11:31:59Z</time>
      </trkpt>
      <trkpt lat="42.94893" lon="2.08161">
        <ele>663.93</ele>
        <time>2012-12-18T11:32:10Z</time>
      </trkpt>
      <trkpt lat="42.94866" lon="2.08144">
        <ele>665.37</ele>
        <time>2012-12-18T11:32:31Z</time>
      </trkpt>
      <trkpt lat="42.94848" lon="2.08143">
        <ele>666.33</ele>
        <time>2012-12-18T11:32:50Z</time>
      </trkpt>
      <trkpt lat="42.94813" lon="2.0814">
        <ele>668.25</ele>
        <time>2012-12-18T11:33:13Z</time>
      </trkpt>
      <trkpt lat="42.94785" lon="2.08117">
        <ele>670.18</ele>
        <time>2012-12-18T11:33:36Z</time>
      </trkpt>
      <trkpt lat="42.94777" lon="2.08111">
        <ele>671.14</ele>
        <time>2012-12-18T11:33:53Z</time>
      </trkpt>
      <trkpt lat="42.94767" lon="2.08107">
        <ele>672.1</ele>
        <time>2012-12-18T11:34:00Z</time>
      </trkpt>
      <trkpt lat="42.94745" lon="2.08117">
        <ele>673.54</ele>
        <time>2012-12-18T11:34:15Z</time>
      </trkpt>
      <trkpt lat="42.9472" lon="2.08137">
        <ele>674.98</ele>
        <time>2012-12-18T11:34:30Z</time>
      </trkpt>
      <trkpt lat="42.94691" lon="2.08161">
        <ele>676.91</ele>
        <time>2012-12-18T11:34:46Z</time>
      </trkpt>
      <trkpt lat="42.94688" lon="2.08161">
        <ele>677.39</ele>
        <time>2012-12-18T11:34:48Z</time>
      </trkpt>
      <trkpt lat="42.94647" lon="2.08133">
        <ele>679.79</ele>
        <time>2012-12-18T11:35:12Z</time>
      </trkpt>
      <trkpt lat="42.94613" lon="2.08123">
        <ele>682.19</ele>
        <time>2012-12-18T11:35:32Z</time>
      </trkpt>
      <trkpt lat="42.94604" lon="2.0813">
        <ele>680.75</ele>
        <time>2012-12-18T11:35:44Z</time>
      </trkpt>
      <trkpt lat="42.94598" lon="2.08135">
        <ele>677.39</ele>
        <time>2012-12-18T11:38:16Z</time>
      </trkpt>
      <trkpt lat="42.94596" lon="2.08131">
        <ele>678.35</ele>
        <time>2012-12-18T11:40:21Z</time>
      </trkpt>
      <trkpt lat="42.94565" lon="2.08124">
        <ele>676.91</ele>
        <time>2012-12-18T11:40:33Z</time>
      </trkpt>
      <trkpt lat="42.94554" lon="2.08111">
        <ele>676.42</ele>
        <time>2012-12-18T11:40:38Z</time>
      </trkpt>
      <trkpt lat="42.94528" lon="2.08054">
        <ele>674.98</ele>
        <time>2012-12-18T11:40:51Z</time>
      </trkpt>
      <trkpt lat="42.945" lon="2.08018">
        <ele>672.58</ele>
        <time>2012-12-18T11:41:01Z</time>
      </trkpt>
      <trkpt lat="42.94454" lon="2.07991">
        <ele>671.62</ele>
        <time>2012-12-18T11:41:12Z</time>
      </trkpt>
      <trkpt lat="42.94425" lon="2.07984">
        <ele>670.66</ele>
        <time>2012-12-18T11:41:17Z</time>
      </trkpt>
      <trkpt lat="42.94364" lon="2.08014">
        <ele>668.25</ele>
        <time>2012-12-18T11:41:28Z</time>
      </trkpt>
      <trkpt lat="42.94323" lon="2.08034">
        <ele>666.81</ele>
        <time>2012-12-18T11:41:37Z</time>
      </trkpt>
      <trkpt lat="42.9431" lon="2.0802">
        <ele>665.85</ele>
        <time>2012-12-18T11:41:43Z</time>
      </trkpt>
      <trkpt lat="42.94294" lon="2.07972">
        <ele>663.93</ele>
        <time>2012-12-18T11:41:53Z</time>
      </trkpt>
      <trkpt lat="42.94277" lon="2.07902">
        <ele>663.45</ele>
        <time>2012-12-18T11:42:03Z</time>
      </trkpt>
      <trkpt lat="42.94246" lon="2.07862">
        <ele>661.52</ele>
        <time>2012-12-18T11:42:10Z</time>
      </trkpt>
      <trkpt lat="42.94212" lon="2.07839">
        <ele>661.52</ele>
        <time>2012-12-18T11:42:14Z</time>
      </trkpt>
      <trkpt lat="42.94195" lon="2.07835">
        <ele>662.49</ele>
        <time>2012-12-18T11:42:16Z</time>
      </trkpt>
      <trkpt lat="42.94171" lon="2.07806">
        <ele>661.04</ele>
        <time>2012-12-18T11:42:21Z</time>
      </trkpt>
      <trkpt lat="42.94169" lon="2.07785">
        <ele>660.08</ele>
        <time>2012-12-18T11:42:23Z</time>
      </trkpt>
      <trkpt lat="42.94164" lon="2.0774">
        <ele>658.64</ele>
        <time>2012-12-18T11:42:29Z</time>
      </trkpt>
      <trkpt lat="42.94144" lon="2.07715">
        <ele>658.64</ele>
        <time>2012-12-18T11:42:33Z</time>
      </trkpt>
      <trkpt lat="42.94103" lon="2.0769">
        <ele>657.2</ele>
        <time>2012-12-18T11:42:41Z</time>
      </trkpt>
      <trkpt lat="42.94076" lon="2.07685">
        <ele>656.24</ele>
        <time>2012-12-18T11:42:45Z</time>
      </trkpt>
      <trkpt lat="42.94064" lon="2.0768">
        <ele>655.76</ele>
        <time>2012-12-18T11:42:47Z</time>
      </trkpt>
      <trkpt lat="42.94054" lon="2.07649">
        <ele>654.8</ele>
        <time>2012-12-18T11:42:53Z</time>
      </trkpt>
      <trkpt lat="42.94032" lon="2.07592">
        <ele>651.43</ele>
        <time>2012-12-18T11:43:00Z</time>
      </trkpt>
      <trkpt lat="42.94021" lon="2.07572">
        <ele>650.47</ele>
        <time>2012-12-18T11:43:02Z</time>
      </trkpt>
      <trkpt lat="42.93995" lon="2.07529">
        <ele>649.99</ele>
        <time>2012-12-18T11:43:08Z</time>
      </trkpt>
      <trkpt lat="42.93953" lon="2.07453">
        <ele>648.55</ele>
        <time>2012-12-18T11:43:19Z</time>
      </trkpt>
      <trkpt lat="42.93948" lon="2.07349">
        <ele>647.1</ele>
        <time>2012-12-18T11:43:30Z</time>
      </trkpt>
      <trkpt lat="42.93947" lon="2.07331">
        <ele>647.1</ele>
        <time>2012-12-18T11:43:32Z</time>
      </trkpt>
      <trkpt lat="42.93909" lon="2.07293">
        <ele>646.62</ele>
        <time>2012-12-18T11:43:38Z</time>
      </trkpt>
      <trkpt lat="42.93861" lon="2.07286">
        <ele>645.18</ele>
        <time>2012-12-18T11:43:45Z</time>
      </trkpt>
      <trkpt lat="42.93809" lon="2.07266">
        <ele>642.78</ele>
        <time>2012-12-18T11:43:52Z</time>
      </trkpt>
      <trkpt lat="42.93728" lon="2.07253">
        <ele>643.26</ele>
        <time>2012-12-18T11:44:03Z</time>
      </trkpt>
      <trkpt lat="42.9371" lon="2.07248">
        <ele>642.78</ele>
        <time>2012-12-18T11:44:05Z</time>
      </trkpt>
      <trkpt lat="42.93676" lon="2.07224">
        <ele>640.38</ele>
        <time>2012-12-18T11:44:10Z</time>
      </trkpt>
      <trkpt lat="42.93631" lon="2.0724">
        <ele>640.86</ele>
        <time>2012-12-18T11:44:17Z</time>
      </trkpt>
      <trkpt lat="42.93626" lon="2.07249">
        <ele>640.38</ele>
        <time>2012-12-18T11:44:18Z</time>
      </trkpt>
      <trkpt lat="42.93615" lon="2.0727">
        <ele>638.45</ele>
        <time>2012-12-18T11:44:20Z</time>
      </trkpt>
      <trkpt lat="42.93584" lon="2.07371">
        <ele>635.09</ele>
        <time>2012-12-18T11:44:29Z</time>
      </trkpt>
      <trkpt lat="42.93567" lon="2.07386">
        <ele>631.72</ele>
        <time>2012-12-18T11:44:37Z</time>
      </trkpt>
      <trkpt lat="42.93566" lon="2.07365">
        <ele>630.28</ele>
        <time>2012-12-18T11:44:40Z</time>
      </trkpt>
      <trkpt lat="42.93582" lon="2.07291">
        <ele>625.47</ele>
        <time>2012-12-18T11:44:48Z</time>
      </trkpt>
      <trkpt lat="42.9359" lon="2.07259">
        <ele>623.07</ele>
        <time>2012-12-18T11:44:51Z</time>
      </trkpt>
      <trkpt lat="42.93592" lon="2.07186">
        <ele>620.67</ele>
        <time>2012-12-18T11:44:57Z</time>
      </trkpt>
      <trkpt lat="42.93595" lon="2.07108">
        <ele>616.82</ele>
        <time>2012-12-18T11:45:03Z</time>
      </trkpt>
      <trkpt lat="42.93596" lon="2.07095">
        <ele>616.34</ele>
        <time>2012-12-18T11:45:04Z</time>
      </trkpt>
      <trkpt lat="42.93621" lon="2.07047">
        <ele>613.94</ele>
        <time>2012-12-18T11:45:10Z</time>
      </trkpt>
      <trkpt lat="42.93624" lon="2.07039">
        <ele>613.46</ele>
        <time>2012-12-18T11:45:12Z</time>
      </trkpt>
      <trkpt lat="42.93619" lon="2.07032">
        <ele>612.5</ele>
        <time>2012-12-18T11:45:15Z</time>
      </trkpt>
      <trkpt lat="42.93597" lon="2.07088">
        <ele>609.61</ele>
        <time>2012-12-18T11:45:23Z</time>
      </trkpt>
      <trkpt lat="42.93594" lon="2.07133">
        <ele>607.21</ele>
        <time>2012-12-18T11:45:27Z</time>
      </trkpt>
      <trkpt lat="42.93592" lon="2.07209">
        <ele>603.85</ele>
        <time>2012-12-18T11:45:33Z</time>
      </trkpt>
      <trkpt lat="42.93566" lon="2.07307">
        <ele>600</ele>
        <time>2012-12-18T11:45:41Z</time>
      </trkpt>
      <trkpt lat="42.93538" lon="2.07379">
        <ele>597.6</ele>
        <time>2012-12-18T11:45:47Z</time>
      </trkpt>
      <trkpt lat="42.93526" lon="2.07464">
        <ele>593.75</ele>
        <time>2012-12-18T11:45:53Z</time>
      </trkpt>
      <trkpt lat="42.93519" lon="2.07508">
        <ele>592.31</ele>
        <time>2012-12-18T11:45:56Z</time>
      </trkpt>
      <trkpt lat="42.93511" lon="2.07535">
        <ele>590.39</ele>
        <time>2012-12-18T11:45:58Z</time>
      </trkpt>
      <trkpt lat="42.93454" lon="2.07632">
        <ele>585.58</ele>
        <time>2012-12-18T11:46:07Z</time>
      </trkpt>
      <trkpt lat="42.93448" lon="2.07643">
        <ele>585.1</ele>
        <time>2012-12-18T11:46:08Z</time>
      </trkpt>
      <trkpt lat="42.93426" lon="2.07723">
        <ele>582.7</ele>
        <time>2012-12-18T11:46:16Z</time>
      </trkpt>
      <trkpt lat="42.93438" lon="2.07751">
        <ele>581.25</ele>
        <time>2012-12-18T11:46:20Z</time>
      </trkpt>
      <trkpt lat="42.93449" lon="2.07771">
        <ele>579.33</ele>
        <time>2012-12-18T11:46:24Z</time>
      </trkpt>
      <trkpt lat="42.93446" lon="2.07796">
        <ele>577.89</ele>
        <time>2012-12-18T11:46:28Z</time>
      </trkpt>
      <trkpt lat="42.93435" lon="2.07804">
        <ele>575.97</ele>
        <time>2012-12-18T11:46:33Z</time>
      </trkpt>
      <trkpt lat="42.93392" lon="2.0773">
        <ele>572.12</ele>
        <time>2012-12-18T11:46:41Z</time>
      </trkpt>
      <trkpt lat="42.93369" lon="2.07702">
        <ele>570.2</ele>
        <time>2012-12-18T11:46:44Z</time>
      </trkpt>
      <trkpt lat="42.93359" lon="2.07656">
        <ele>568.76</ele>
        <time>2012-12-18T11:46:49Z</time>
      </trkpt>
      <trkpt lat="42.93333" lon="2.07602">
        <ele>565.87</ele>
        <time>2012-12-18T11:46:54Z</time>
      </trkpt>
      <trkpt lat="42.93275" lon="2.07531">
        <ele>562.03</ele>
        <time>2012-12-18T11:47:02Z</time>
      </trkpt>
      <trkpt lat="42.93265" lon="2.0752">
        <ele>561.07</ele>
        <time>2012-12-18T11:47:04Z</time>
      </trkpt>
      <trkpt lat="42.93257" lon="2.07515">
        <ele>560.11</ele>
        <time>2012-12-18T11:47:06Z</time>
      </trkpt>
      <trkpt lat="42.9325" lon="2.07513">
        <ele>559.14</ele>
        <time>2012-12-18T11:47:08Z</time>
      </trkpt>
      <trkpt lat="42.93227" lon="2.07504">
        <ele>557.7</ele>
        <time>2012-12-18T11:47:15Z</time>
      </trkpt>
      <trkpt lat="42.93199" lon="2.07474">
        <ele>555.3</ele>
        <time>2012-12-18T11:47:22Z</time>
      </trkpt>
      <trkpt lat="42.93167" lon="2.07375">
        <ele>555.78</ele>
        <time>2012-12-18T11:47:34Z</time>
      </trkpt>
      <trkpt lat="42.93169" lon="2.07342">
        <ele>555.78</ele>
        <time>2012-12-18T11:47:38Z</time>
      </trkpt>
      <trkpt lat="42.93187" lon="2.07277">
        <ele>555.78</ele>
        <time>2012-12-18T11:47:47Z</time>
      </trkpt>
      <trkpt lat="42.93176" lon="2.07233">
        <ele>553.86</ele>
        <time>2012-12-18T11:47:56Z</time>
      </trkpt>
      <trkpt lat="42.93152" lon="2.07222">
        <ele>551.93</ele>
        <time>2012-12-18T11:48:00Z</time>
      </trkpt>
      <trkpt lat="42.93145" lon="2.07218">
        <ele>551.93</ele>
        <time>2012-12-18T11:48:01Z</time>
      </trkpt>
      <trkpt lat="42.93114" lon="2.07174">
        <ele>552.41</ele>
        <time>2012-12-18T11:48:08Z</time>
      </trkpt>
      <trkpt lat="42.9309" lon="2.07072">
        <ele>552.41</ele>
        <time>2012-12-18T11:48:20Z</time>
      </trkpt>
      <trkpt lat="42.93095" lon="2.07039">
        <ele>551.93</ele>
        <time>2012-12-18T11:48:25Z</time>
      </trkpt>
      <trkpt lat="42.93114" lon="2.06959">
        <ele>550.49</ele>
        <time>2012-12-18T11:48:36Z</time>
      </trkpt>
      <trkpt lat="42.93131" lon="2.06889">
        <ele>549.53</ele>
        <time>2012-12-18T11:48:46Z</time>
      </trkpt>
      <trkpt lat="42.93134" lon="2.06863">
        <ele>549.05</ele>
        <time>2012-12-18T11:48:50Z</time>
      </trkpt>
      <trkpt lat="42.93151" lon="2.06785">
        <ele>548.57</ele>
        <time>2012-12-18T11:49:00Z</time>
      </trkpt>
      <trkpt lat="42.93152" lon="2.06727">
        <ele>546.65</ele>
        <time>2012-12-18T11:49:08Z</time>
      </trkpt>
      <trkpt lat="42.93159" lon="2.06685">
        <ele>546.65</ele>
        <time>2012-12-18T11:49:13Z</time>
      </trkpt>
      <trkpt lat="42.93172" lon="2.06564">
        <ele>545.69</ele>
        <time>2012-12-18T11:49:26Z</time>
      </trkpt>
      <trkpt lat="42.93189" lon="2.06445">
        <ele>545.2</ele>
        <time>2012-12-18T11:49:39Z</time>
      </trkpt>
      <trkpt lat="42.93191" lon="2.06398">
        <ele>543.28</ele>
        <time>2012-12-18T11:49:45Z</time>
      </trkpt>
      <trkpt lat="42.93186" lon="2.06336">
        <ele>543.76</ele>
        <time>2012-12-18T11:49:52Z</time>
      </trkpt>
      <trkpt lat="42.93184" lon="2.06214">
        <ele>541.84</ele>
        <time>2012-12-18T11:50:06Z</time>
      </trkpt>
      <trkpt lat="42.93185" lon="2.06206">
        <ele>542.32</ele>
        <time>2012-12-18T11:50:07Z</time>
      </trkpt>
      <trkpt lat="42.93196" lon="2.06087">
        <ele>540.88</ele>
        <time>2012-12-18T11:50:21Z</time>
      </trkpt>
      <trkpt lat="42.93197" lon="2.05963">
        <ele>539.44</ele>
        <time>2012-12-18T11:50:34Z</time>
      </trkpt>
      <trkpt lat="42.93198" lon="2.05953">
        <ele>539.44</ele>
        <time>2012-12-18T11:50:35Z</time>
      </trkpt>
      <trkpt lat="42.93194" lon="2.05893">
        <ele>538.48</ele>
        <time>2012-12-18T11:50:42Z</time>
      </trkpt>
      <trkpt lat="42.93201" lon="2.05812">
        <ele>538.96</ele>
        <time>2012-12-18T11:50:51Z</time>
      </trkpt>
      <trkpt lat="42.93199" lon="2.05677">
        <ele>536.55</ele>
        <time>2012-12-18T11:51:06Z</time>
      </trkpt>
      <trkpt lat="42.93183" lon="2.05588">
        <ele>537.03</ele>
        <time>2012-12-18T11:51:15Z</time>
      </trkpt>
      <trkpt lat="42.93179" lon="2.05521">
        <ele>536.07</ele>
        <time>2012-12-18T11:51:22Z</time>
      </trkpt>
      <trkpt lat="42.93173" lon="2.05479">
        <ele>536.07</ele>
        <time>2012-12-18T11:51:26Z</time>
      </trkpt>
      <trkpt lat="42.9314" lon="2.05388">
        <ele>534.63</ele>
        <time>2012-12-18T11:51:36Z</time>
      </trkpt>
      <trkpt lat="42.93125" lon="2.05337">
        <ele>535.11</ele>
        <time>2012-12-18T11:51:42Z</time>
      </trkpt>
      <trkpt lat="42.93095" lon="2.05298">
        <ele>534.63</ele>
        <time>2012-12-18T11:51:48Z</time>
      </trkpt>
      <trkpt lat="42.93075" lon="2.05297">
        <ele>534.63</ele>
        <time>2012-12-18T11:51:51Z</time>
      </trkpt>
      <trkpt lat="42.93033" lon="2.05287">
        <ele>533.67</ele>
        <time>2012-12-18T11:51:58Z</time>
      </trkpt>
      <trkpt lat="42.9298" lon="2.05332">
        <ele>532.71</ele>
        <time>2012-12-18T11:52:08Z</time>
      </trkpt>
      <trkpt lat="42.92908" lon="2.05404">
        <ele>532.23</ele>
        <time>2012-12-18T11:52:21Z</time>
      </trkpt>
      <trkpt lat="42.92883" lon="2.0541">
        <ele>531.75</ele>
        <time>2012-12-18T11:52:25Z</time>
      </trkpt>
      <trkpt lat="42.92836" lon="2.05388">
        <ele>531.27</ele>
        <time>2012-12-18T11:52:32Z</time>
      </trkpt>
      <trkpt lat="42.92815" lon="2.05385">
        <ele>531.27</ele>
        <time>2012-12-18T11:52:35Z</time>
      </trkpt>
      <trkpt lat="42.92785" lon="2.05354">
        <ele>529.34</ele>
        <time>2012-12-18T11:52:41Z</time>
      </trkpt>
      <trkpt lat="42.92759" lon="2.05271">
        <ele>529.34</ele>
        <time>2012-12-18T11:52:51Z</time>
      </trkpt>
      <trkpt lat="42.92742" lon="2.05243">
        <ele>529.34</ele>
        <time>2012-12-18T11:52:55Z</time>
      </trkpt>
      <trkpt lat="42.92715" lon="2.05213">
        <ele>527.9</ele>
        <time>2012-12-18T11:53:00Z</time>
      </trkpt>
      <trkpt lat="42.92697" lon="2.05162">
        <ele>527.42</ele>
        <time>2012-12-18T11:53:06Z</time>
      </trkpt>
      <trkpt lat="42.92695" lon="2.05144">
        <ele>528.38</ele>
        <time>2012-12-18T11:53:08Z</time>
      </trkpt>
      <trkpt lat="42.92682" lon="2.05115">
        <ele>528.38</ele>
        <time>2012-12-18T11:53:12Z</time>
      </trkpt>
      <trkpt lat="42.9263" lon="2.05064">
        <ele>528.38</ele>
        <time>2012-12-18T11:53:22Z</time>
      </trkpt>
      <trkpt lat="42.92598" lon="2.05052">
        <ele>528.38</ele>
        <time>2012-12-18T11:53:27Z</time>
      </trkpt>
      <trkpt lat="42.92554" lon="2.05055">
        <ele>526.94</ele>
        <time>2012-12-18T11:53:33Z</time>
      </trkpt>
      <trkpt lat="42.92537" lon="2.0506">
        <ele>525.98</ele>
        <time>2012-12-18T11:53:35Z</time>
      </trkpt>
      <trkpt lat="42.9249" lon="2.05095">
        <ele>522.61</ele>
        <time>2012-12-18T11:53:41Z</time>
      </trkpt>
      <trkpt lat="42.9244" lon="2.05155">
        <ele>519.25</ele>
        <time>2012-12-18T11:53:49Z</time>
      </trkpt>
      <trkpt lat="42.92435" lon="2.05161">
        <ele>518.77</ele>
        <time>2012-12-18T11:53:50Z</time>
      </trkpt>
      <trkpt lat="42.92403" lon="2.05153">
        <ele>515.4</ele>
        <time>2012-12-18T11:53:57Z</time>
      </trkpt>
      <trkpt lat="42.92404" lon="2.05112">
        <ele>513.96</ele>
        <time>2012-12-18T11:54:01Z</time>
      </trkpt>
      <trkpt lat="42.92402" lon="2.05043">
        <ele>511.08</ele>
        <time>2012-12-18T11:54:08Z</time>
      </trkpt>
      <trkpt lat="42.92406" lon="2.05004">
        <ele>509.16</ele>
        <time>2012-12-18T11:54:12Z</time>
      </trkpt>
      <trkpt lat="42.92417" lon="2.0497">
        <ele>508.19</ele>
        <time>2012-12-18T11:54:16Z</time>
      </trkpt>
      <trkpt lat="42.924" lon="2.0494">
        <ele>504.83</ele>
        <time>2012-12-18T11:54:22Z</time>
      </trkpt>
      <trkpt lat="42.92394" lon="2.04942">
        <ele>504.35</ele>
        <time>2012-12-18T11:54:23Z</time>
      </trkpt>
      <trkpt lat="42.92342" lon="2.04941">
        <ele>500.5</ele>
        <time>2012-12-18T11:54:30Z</time>
      </trkpt>
      <trkpt lat="42.92303" lon="2.04948">
        <ele>499.06</ele>
        <time>2012-12-18T11:54:35Z</time>
      </trkpt>
      <trkpt lat="42.9228" lon="2.04965">
        <ele>497.62</ele>
        <time>2012-12-18T11:54:39Z</time>
      </trkpt>
      <trkpt lat="42.92252" lon="2.04946">
        <ele>494.74</ele>
        <time>2012-12-18T11:54:44Z</time>
      </trkpt>
      <trkpt lat="42.9221" lon="2.04903">
        <ele>491.85</ele>
        <time>2012-12-18T11:54:51Z</time>
      </trkpt>
      <trkpt lat="42.922" lon="2.04875">
        <ele>490.41</ele>
        <time>2012-12-18T11:54:54Z</time>
      </trkpt>
      <trkpt lat="42.92192" lon="2.04844">
        <ele>488.97</ele>
        <time>2012-12-18T11:54:57Z</time>
      </trkpt>
      <trkpt lat="42.92176" lon="2.04811">
        <ele>487.05</ele>
        <time>2012-12-18T11:55:01Z</time>
      </trkpt>
      <trkpt lat="42.92166" lon="2.048">
        <ele>486.56</ele>
        <time>2012-12-18T11:55:03Z</time>
      </trkpt>
      <trkpt lat="42.9213" lon="2.0477">
        <ele>484.64</ele>
        <time>2012-12-18T11:55:10Z</time>
      </trkpt>
      <trkpt lat="42.921" lon="2.04775">
        <ele>482.72</ele>
        <time>2012-12-18T11:55:16Z</time>
      </trkpt>
      <trkpt lat="42.92063" lon="2.04801">
        <ele>479.35</ele>
        <time>2012-12-18T11:55:26Z</time>
      </trkpt>
      <trkpt lat="42.92032" lon="2.04838">
        <ele>478.87</ele>
        <time>2012-12-18T11:55:36Z</time>
      </trkpt>
      <trkpt lat="42.9201" lon="2.04854">
        <ele>479.35</ele>
        <time>2012-12-18T11:55:41Z</time>
      </trkpt>
      <trkpt lat="42.91939" lon="2.04863">
        <ele>479.84</ele>
        <time>2012-12-18T11:55:53Z</time>
      </trkpt>
      <trkpt lat="42.91924" lon="2.04859">
        <ele>480.32</ele>
        <time>2012-12-18T11:55:56Z</time>
      </trkpt>
      <trkpt lat="42.91902" lon="2.04858">
        <ele>479.84</ele>
        <time>2012-12-18T11:56:00Z</time>
      </trkpt>
      <trkpt lat="42.91842" lon="2.04855">
        <ele>476.47</ele>
        <time>2012-12-18T11:56:08Z</time>
      </trkpt>
      <trkpt lat="42.91827" lon="2.04854">
        <ele>475.99</ele>
        <time>2012-12-18T11:56:10Z</time>
      </trkpt>
      <trkpt lat="42.9177" lon="2.049">
        <ele>475.99</ele>
        <time>2012-12-18T11:56:23Z</time>
      </trkpt>
      <trkpt lat="42.91762" lon="2.04923">
        <ele>475.51</ele>
        <time>2012-12-18T11:56:26Z</time>
      </trkpt>
      <trkpt lat="42.91754" lon="2.04953">
        <ele>474.07</ele>
        <time>2012-12-18T11:56:29Z</time>
      </trkpt>
      <trkpt lat="42.91714" lon="2.05">
        <ele>471.18</ele>
        <time>2012-12-18T11:56:36Z</time>
      </trkpt>
      <trkpt lat="42.91642" lon="2.05017">
        <ele>469.26</ele>
        <time>2012-12-18T11:56:45Z</time>
      </trkpt>
      <trkpt lat="42.91598" lon="2.05014">
        <ele>469.74</ele>
        <time>2012-12-18T11:56:50Z</time>
      </trkpt>
      <trkpt lat="42.91559" lon="2.05021">
        <ele>469.74</ele>
        <time>2012-12-18T11:56:55Z</time>
      </trkpt>
      <trkpt lat="42.91449" lon="2.05091">
        <ele>471.66</ele>
        <time>2012-12-18T11:57:10Z</time>
      </trkpt>
      <trkpt lat="42.91435" lon="2.05104">
        <ele>472.14</ele>
        <time>2012-12-18T11:57:12Z</time>
      </trkpt>
      <trkpt lat="42.91388" lon="2.052">
        <ele>473.11</ele>
        <time>2012-12-18T11:57:23Z</time>
      </trkpt>
      <trkpt lat="42.91305" lon="2.053">
        <ele>474.55</ele>
        <time>2012-12-18T11:57:38Z</time>
      </trkpt>
      <trkpt lat="42.91216" lon="2.05393">
        <ele>475.99</ele>
        <time>2012-12-18T11:57:54Z</time>
      </trkpt>
      <trkpt lat="42.91128" lon="2.05495">
        <ele>477.91</ele>
        <time>2012-12-18T11:58:10Z</time>
      </trkpt>
      <trkpt lat="42.91041" lon="2.05614">
        <ele>479.84</ele>
        <time>2012-12-18T11:58:28Z</time>
      </trkpt>
      <trkpt lat="42.90967" lon="2.05724">
        <ele>482.24</ele>
        <time>2012-12-18T11:58:47Z</time>
      </trkpt>
      <trkpt lat="42.90936" lon="2.05757">
        <ele>482.72</ele>
        <time>2012-12-18T11:58:55Z</time>
      </trkpt>
      <trkpt lat="42.9093" lon="2.05766">
        <ele>483.2</ele>
        <time>2012-12-18T11:58:57Z</time>
      </trkpt>
      <trkpt lat="42.90926" lon="2.05798">
        <ele>484.16</ele>
        <time>2012-12-18T11:59:03Z</time>
      </trkpt>
      <trkpt lat="42.9093" lon="2.05898">
        <ele>486.56</ele>
        <time>2012-12-18T11:59:21Z</time>
      </trkpt>
      <trkpt lat="42.90935" lon="2.05968">
        <ele>489.45</ele>
        <time>2012-12-18T11:59:37Z</time>
      </trkpt>
      <trkpt lat="42.90933" lon="2.06027">
        <ele>491.37</ele>
        <time>2012-12-18T11:59:54Z</time>
      </trkpt>
      <trkpt lat="42.90906" lon="2.06071">
        <ele>493.29</ele>
        <time>2012-12-18T12:00:10Z</time>
      </trkpt>
      <trkpt lat="42.90871" lon="2.06105">
        <ele>494.74</ele>
        <time>2012-12-18T12:00:21Z</time>
      </trkpt>
      <trkpt lat="42.9084" lon="2.06103">
        <ele>493.29</ele>
        <time>2012-12-18T12:00:30Z</time>
      </trkpt>
      <trkpt lat="42.90807" lon="2.06064">
        <ele>494.26</ele>
        <time>2012-12-18T12:00:38Z</time>
      </trkpt>
      <trkpt lat="42.90722" lon="2.06007">
        <ele>492.33</ele>
        <time>2012-12-18T12:00:52Z</time>
      </trkpt>
      <trkpt lat="42.90715" lon="2.06005">
        <ele>492.33</ele>
        <time>2012-12-18T12:00:53Z</time>
      </trkpt>
      <trkpt lat="42.90675" lon="2.06019">
        <ele>492.81</ele>
        <time>2012-12-18T12:01:00Z</time>
      </trkpt>
      <trkpt lat="42.90664" lon="2.06036">
        <ele>493.77</ele>
        <time>2012-12-18T12:01:03Z</time>
      </trkpt>
      <trkpt lat="42.90617" lon="2.06096">
        <ele>493.77</ele>
        <time>2012-12-18T12:01:14Z</time>
      </trkpt>
      <trkpt lat="42.90564" lon="2.06094">
        <ele>493.77</ele>
        <time>2012-12-18T12:01:23Z</time>
      </trkpt>
      <trkpt lat="42.90515" lon="2.06078">
        <ele>497.14</ele>
        <time>2012-12-18T12:01:36Z</time>
      </trkpt>
      <trkpt lat="42.90494" lon="2.06074">
        <ele>500.5</ele>
        <time>2012-12-18T12:01:47Z</time>
      </trkpt>
      <trkpt lat="42.90461" lon="2.0607">
        <ele>503.87</ele>
        <time>2012-12-18T12:02:05Z</time>
      </trkpt>
      <trkpt lat="42.90446" lon="2.06071">
        <ele>506.75</ele>
        <time>2012-12-18T12:02:19Z</time>
      </trkpt>
      <trkpt lat="42.90432" lon="2.06068">
        <ele>510.12</ele>
        <time>2012-12-18T12:02:36Z</time>
      </trkpt>
      <trkpt lat="42.90413" lon="2.06062">
        <ele>511.56</ele>
        <time>2012-12-18T12:02:48Z</time>
      </trkpt>
      <trkpt lat="42.90386" lon="2.06071">
        <ele>509.64</ele>
        <time>2012-12-18T12:03:03Z</time>
      </trkpt>
      <trkpt lat="42.90377" lon="2.06085">
        <ele>509.16</ele>
        <time>2012-12-18T12:04:49Z</time>
      </trkpt>
    </trkseg>
  </trk>
</gpx>